<?xml version="1.0" encoding="UTF-8" standalone="no" ?>
<gpx xmlns="http://www.topografix.com/GPX/1/1" xmlns:xsi="http://www.w3.org/2001/XMLSchema-instance" xsi:schemaLocation="http://www.topografix.com/GPX/1/1 http://www.topografix.com/GPX/1/1/gpx.xsd" version="1.1" creator="VisuGPX - https://www.visugpx.com">
  <metadata>
    <name>Champsecret 49km</name>
  </metadata>
  <trk>
    <name><![CDATA[Champsecret 49km_1]]></name>
    <trkseg>
      <trkpt lat="48.7479" lon="-0.57181">
        <ele>230.8</ele>
        <time>2013-09-08T09:14:17Z</time>
      </trkpt>
      <trkpt lat="48.74792" lon="-0.57189">
        <ele>230.8</ele>
        <time>2013-09-08T09:14:18Z</time>
      </trkpt>
      <trkpt lat="48.74798" lon="-0.57215">
        <ele>230.8</ele>
        <time>2013-09-08T09:14:47Z</time>
      </trkpt>
      <trkpt lat="48.7477" lon="-0.57206">
        <ele>232.6</ele>
        <time>2013-09-08T09:19:04Z</time>
      </trkpt>
      <trkpt lat="48.74771" lon="-0.57207">
        <ele>232.4</ele>
        <time>2013-09-08T09:19:08Z</time>
      </trkpt>
      <trkpt lat="48.74753" lon="-0.57248">
        <ele>232.8</ele>
        <time>2013-09-08T09:19:23Z</time>
      </trkpt>
      <trkpt lat="48.74732" lon="-0.57299">
        <ele>233</ele>
        <time>2013-09-08T09:19:36Z</time>
      </trkpt>
      <trkpt lat="48.74704" lon="-0.57371">
        <ele>234.8</ele>
        <time>2013-09-08T09:19:51Z</time>
      </trkpt>
      <trkpt lat="48.74677" lon="-0.57446">
        <ele>236.4</ele>
        <time>2013-09-08T09:20:07Z</time>
      </trkpt>
      <trkpt lat="48.74646" lon="-0.57534">
        <ele>238</ele>
        <time>2013-09-08T09:20:25Z</time>
      </trkpt>
      <trkpt lat="48.74614" lon="-0.57612">
        <ele>238.6</ele>
        <time>2013-09-08T09:20:41Z</time>
      </trkpt>
      <trkpt lat="48.74588" lon="-0.57701">
        <ele>240.2</ele>
        <time>2013-09-08T09:20:55Z</time>
      </trkpt>
      <trkpt lat="48.74567" lon="-0.57753">
        <ele>239.6</ele>
        <time>2013-09-08T09:21:03Z</time>
      </trkpt>
      <trkpt lat="48.74562" lon="-0.57764">
        <ele>239.6</ele>
        <time>2013-09-08T09:21:05Z</time>
      </trkpt>
      <trkpt lat="48.74554" lon="-0.57782">
        <ele>239.6</ele>
        <time>2013-09-08T09:21:08Z</time>
      </trkpt>
      <trkpt lat="48.74552" lon="-0.57788">
        <ele>239.6</ele>
        <time>2013-09-08T09:21:09Z</time>
      </trkpt>
      <trkpt lat="48.7455" lon="-0.57795">
        <ele>239.6</ele>
        <time>2013-09-08T09:21:10Z</time>
      </trkpt>
      <trkpt lat="48.74513" lon="-0.57896">
        <ele>239.6</ele>
        <time>2013-09-08T09:21:26Z</time>
      </trkpt>
      <trkpt lat="48.74506" lon="-0.57914">
        <ele>239.4</ele>
        <time>2013-09-08T09:21:29Z</time>
      </trkpt>
      <trkpt lat="48.74461" lon="-0.58035">
        <ele>239.8</ele>
        <time>2013-09-08T09:21:48Z</time>
      </trkpt>
      <trkpt lat="48.74418" lon="-0.58123">
        <ele>240.2</ele>
        <time>2013-09-08T09:22:03Z</time>
      </trkpt>
      <trkpt lat="48.74416" lon="-0.58129">
        <ele>240.4</ele>
        <time>2013-09-08T09:22:04Z</time>
      </trkpt>
      <trkpt lat="48.74364" lon="-0.58244">
        <ele>240.8</ele>
        <time>2013-09-08T09:22:23Z</time>
      </trkpt>
      <trkpt lat="48.74311" lon="-0.58356">
        <ele>241.4</ele>
        <time>2013-09-08T09:22:42Z</time>
      </trkpt>
      <trkpt lat="48.74243" lon="-0.58508">
        <ele>243.8</ele>
        <time>2013-09-08T09:23:07Z</time>
      </trkpt>
      <trkpt lat="48.74214" lon="-0.58566">
        <ele>244.6</ele>
        <time>2013-09-08T09:23:17Z</time>
      </trkpt>
      <trkpt lat="48.74209" lon="-0.58577">
        <ele>244.8</ele>
        <time>2013-09-08T09:23:19Z</time>
      </trkpt>
      <trkpt lat="48.74205" lon="-0.58582">
        <ele>244.8</ele>
        <time>2013-09-08T09:23:20Z</time>
      </trkpt>
      <trkpt lat="48.74119" lon="-0.58688">
        <ele>244</ele>
        <time>2013-09-08T09:23:41Z</time>
      </trkpt>
      <trkpt lat="48.74052" lon="-0.58773">
        <ele>244</ele>
        <time>2013-09-08T09:23:59Z</time>
      </trkpt>
      <trkpt lat="48.74034" lon="-0.58799">
        <ele>244.2</ele>
        <time>2013-09-08T09:24:04Z</time>
      </trkpt>
      <trkpt lat="48.74031" lon="-0.58805">
        <ele>244.2</ele>
        <time>2013-09-08T09:24:05Z</time>
      </trkpt>
      <trkpt lat="48.74024" lon="-0.58826">
        <ele>244</ele>
        <time>2013-09-08T09:24:08Z</time>
      </trkpt>
      <trkpt lat="48.74023" lon="-0.58833">
        <ele>243.8</ele>
        <time>2013-09-08T09:24:09Z</time>
      </trkpt>
      <trkpt lat="48.7401" lon="-0.58894">
        <ele>243.4</ele>
        <time>2013-09-08T09:24:18Z</time>
      </trkpt>
      <trkpt lat="48.74009" lon="-0.58901">
        <ele>243.4</ele>
        <time>2013-09-08T09:24:19Z</time>
      </trkpt>
      <trkpt lat="48.74007" lon="-0.58914">
        <ele>243.4</ele>
        <time>2013-09-08T09:24:21Z</time>
      </trkpt>
      <trkpt lat="48.74006" lon="-0.58921">
        <ele>243.6</ele>
        <time>2013-09-08T09:24:22Z</time>
      </trkpt>
      <trkpt lat="48.73993" lon="-0.58972">
        <ele>243.8</ele>
        <time>2013-09-08T09:24:30Z</time>
      </trkpt>
      <trkpt lat="48.73979" lon="-0.59043">
        <ele>244.6</ele>
        <time>2013-09-08T09:24:41Z</time>
      </trkpt>
      <trkpt lat="48.7397" lon="-0.59081">
        <ele>245</ele>
        <time>2013-09-08T09:24:47Z</time>
      </trkpt>
      <trkpt lat="48.7395" lon="-0.59157">
        <ele>246</ele>
        <time>2013-09-08T09:24:59Z</time>
      </trkpt>
      <trkpt lat="48.73924" lon="-0.5922">
        <ele>246.6</ele>
        <time>2013-09-08T09:25:10Z</time>
      </trkpt>
      <trkpt lat="48.73921" lon="-0.59232">
        <ele>246.8</ele>
        <time>2013-09-08T09:25:12Z</time>
      </trkpt>
      <trkpt lat="48.73919" lon="-0.59238">
        <ele>246.8</ele>
        <time>2013-09-08T09:25:13Z</time>
      </trkpt>
      <trkpt lat="48.73916" lon="-0.59243">
        <ele>246.8</ele>
        <time>2013-09-08T09:25:14Z</time>
      </trkpt>
      <trkpt lat="48.73912" lon="-0.59248">
        <ele>247</ele>
        <time>2013-09-08T09:25:15Z</time>
      </trkpt>
      <trkpt lat="48.73908" lon="-0.59252">
        <ele>247</ele>
        <time>2013-09-08T09:25:16Z</time>
      </trkpt>
      <trkpt lat="48.73905" lon="-0.59257">
        <ele>247</ele>
        <time>2013-09-08T09:25:17Z</time>
      </trkpt>
      <trkpt lat="48.73902" lon="-0.59262">
        <ele>247</ele>
        <time>2013-09-08T09:25:18Z</time>
      </trkpt>
      <trkpt lat="48.739" lon="-0.59269">
        <ele>247</ele>
        <time>2013-09-08T09:25:19Z</time>
      </trkpt>
      <trkpt lat="48.73843" lon="-0.59393">
        <ele>247.8</ele>
        <time>2013-09-08T09:25:40Z</time>
      </trkpt>
      <trkpt lat="48.7379" lon="-0.59533">
        <ele>248.8</ele>
        <time>2013-09-08T09:26:03Z</time>
      </trkpt>
      <trkpt lat="48.73734" lon="-0.59658">
        <ele>249.6</ele>
        <time>2013-09-08T09:26:22Z</time>
      </trkpt>
      <trkpt lat="48.73659" lon="-0.59796">
        <ele>249.6</ele>
        <time>2013-09-08T09:26:44Z</time>
      </trkpt>
      <trkpt lat="48.73605" lon="-0.59881">
        <ele>250.2</ele>
        <time>2013-09-08T09:27:02Z</time>
      </trkpt>
      <trkpt lat="48.73604" lon="-0.59885">
        <ele>250.2</ele>
        <time>2013-09-08T09:27:03Z</time>
      </trkpt>
      <trkpt lat="48.73604" lon="-0.59889">
        <ele>250.2</ele>
        <time>2013-09-08T09:27:04Z</time>
      </trkpt>
      <trkpt lat="48.73606" lon="-0.59894">
        <ele>251.2</ele>
        <time>2013-09-08T09:27:10Z</time>
      </trkpt>
      <trkpt lat="48.73607" lon="-0.59906">
        <ele>251.2</ele>
        <time>2013-09-08T09:27:40Z</time>
      </trkpt>
      <trkpt lat="48.7361" lon="-0.59908">
        <ele>251.2</ele>
        <time>2013-09-08T09:27:41Z</time>
      </trkpt>
      <trkpt lat="48.73627" lon="-0.59946">
        <ele>250.6</ele>
        <time>2013-09-08T09:27:50Z</time>
      </trkpt>
      <trkpt lat="48.73626" lon="-0.5995">
        <ele>250.4</ele>
        <time>2013-09-08T09:27:51Z</time>
      </trkpt>
      <trkpt lat="48.73623" lon="-0.59953">
        <ele>250.4</ele>
        <time>2013-09-08T09:27:52Z</time>
      </trkpt>
      <trkpt lat="48.7362" lon="-0.59956">
        <ele>250.4</ele>
        <time>2013-09-08T09:27:53Z</time>
      </trkpt>
      <trkpt lat="48.73617" lon="-0.5996">
        <ele>250.4</ele>
        <time>2013-09-08T09:27:54Z</time>
      </trkpt>
      <trkpt lat="48.73614" lon="-0.59963">
        <ele>250.4</ele>
        <time>2013-09-08T09:27:55Z</time>
      </trkpt>
      <trkpt lat="48.73612" lon="-0.59967">
        <ele>250.6</ele>
        <time>2013-09-08T09:27:56Z</time>
      </trkpt>
      <trkpt lat="48.73581" lon="-0.60015">
        <ele>251.4</ele>
        <time>2013-09-08T09:28:07Z</time>
      </trkpt>
      <trkpt lat="48.73553" lon="-0.60105">
        <ele>252.4</ele>
        <time>2013-09-08T09:28:21Z</time>
      </trkpt>
      <trkpt lat="48.73512" lon="-0.60198">
        <ele>253</ele>
        <time>2013-09-08T09:28:36Z</time>
      </trkpt>
      <trkpt lat="48.7351" lon="-0.60205">
        <ele>253</ele>
        <time>2013-09-08T09:28:37Z</time>
      </trkpt>
      <trkpt lat="48.73509" lon="-0.60211">
        <ele>253</ele>
        <time>2013-09-08T09:28:38Z</time>
      </trkpt>
      <trkpt lat="48.73484" lon="-0.60349">
        <ele>253.8</ele>
        <time>2013-09-08T09:28:56Z</time>
      </trkpt>
      <trkpt lat="48.73482" lon="-0.60357">
        <ele>253.8</ele>
        <time>2013-09-08T09:28:57Z</time>
      </trkpt>
      <trkpt lat="48.73475" lon="-0.60431">
        <ele>253.2</ele>
        <time>2013-09-08T09:29:06Z</time>
      </trkpt>
      <trkpt lat="48.73473" lon="-0.60439">
        <ele>253.2</ele>
        <time>2013-09-08T09:29:07Z</time>
      </trkpt>
      <trkpt lat="48.73471" lon="-0.60447">
        <ele>253.2</ele>
        <time>2013-09-08T09:29:08Z</time>
      </trkpt>
      <trkpt lat="48.73439" lon="-0.60531">
        <ele>253</ele>
        <time>2013-09-08T09:29:20Z</time>
      </trkpt>
      <trkpt lat="48.7341" lon="-0.60634">
        <ele>253</ele>
        <time>2013-09-08T09:29:33Z</time>
      </trkpt>
      <trkpt lat="48.73404" lon="-0.60657">
        <ele>253</ele>
        <time>2013-09-08T09:29:36Z</time>
      </trkpt>
      <trkpt lat="48.73401" lon="-0.60664">
        <ele>253</ele>
        <time>2013-09-08T09:29:37Z</time>
      </trkpt>
      <trkpt lat="48.73397" lon="-0.60668">
        <ele>252.8</ele>
        <time>2013-09-08T09:29:38Z</time>
      </trkpt>
      <trkpt lat="48.73393" lon="-0.6067">
        <ele>252.8</ele>
        <time>2013-09-08T09:29:39Z</time>
      </trkpt>
      <trkpt lat="48.73389" lon="-0.60669">
        <ele>252.6</ele>
        <time>2013-09-08T09:29:40Z</time>
      </trkpt>
      <trkpt lat="48.73386" lon="-0.60667">
        <ele>252.6</ele>
        <time>2013-09-08T09:29:41Z</time>
      </trkpt>
      <trkpt lat="48.73384" lon="-0.60664">
        <ele>252.6</ele>
        <time>2013-09-08T09:29:42Z</time>
      </trkpt>
      <trkpt lat="48.7334" lon="-0.6062">
        <ele>253.4</ele>
        <time>2013-09-08T09:29:54Z</time>
      </trkpt>
      <trkpt lat="48.73283" lon="-0.60559">
        <ele>254.8</ele>
        <time>2013-09-08T09:30:09Z</time>
      </trkpt>
      <trkpt lat="48.73276" lon="-0.6055">
        <ele>255</ele>
        <time>2013-09-08T09:30:11Z</time>
      </trkpt>
      <trkpt lat="48.73272" lon="-0.60546">
        <ele>255</ele>
        <time>2013-09-08T09:30:12Z</time>
      </trkpt>
      <trkpt lat="48.73251" lon="-0.60528">
        <ele>255</ele>
        <time>2013-09-08T09:30:17Z</time>
      </trkpt>
      <trkpt lat="48.73248" lon="-0.60525">
        <ele>255</ele>
        <time>2013-09-08T09:30:18Z</time>
      </trkpt>
      <trkpt lat="48.73244" lon="-0.60522">
        <ele>255</ele>
        <time>2013-09-08T09:30:19Z</time>
      </trkpt>
      <trkpt lat="48.73241" lon="-0.60522">
        <ele>255</ele>
        <time>2013-09-08T09:30:20Z</time>
      </trkpt>
      <trkpt lat="48.73238" lon="-0.60525">
        <ele>255</ele>
        <time>2013-09-08T09:30:21Z</time>
      </trkpt>
      <trkpt lat="48.73235" lon="-0.60529">
        <ele>255</ele>
        <time>2013-09-08T09:30:22Z</time>
      </trkpt>
      <trkpt lat="48.73231" lon="-0.60534">
        <ele>255</ele>
        <time>2013-09-08T09:30:23Z</time>
      </trkpt>
      <trkpt lat="48.73187" lon="-0.60615">
        <ele>255.4</ele>
        <time>2013-09-08T09:30:39Z</time>
      </trkpt>
      <trkpt lat="48.73184" lon="-0.60618">
        <ele>255.4</ele>
        <time>2013-09-08T09:30:40Z</time>
      </trkpt>
      <trkpt lat="48.7318" lon="-0.6062">
        <ele>255.4</ele>
        <time>2013-09-08T09:30:41Z</time>
      </trkpt>
      <trkpt lat="48.73176" lon="-0.60621">
        <ele>255.4</ele>
        <time>2013-09-08T09:30:42Z</time>
      </trkpt>
      <trkpt lat="48.73173" lon="-0.60621">
        <ele>255.6</ele>
        <time>2013-09-08T09:30:43Z</time>
      </trkpt>
      <trkpt lat="48.7317" lon="-0.6062">
        <ele>255.6</ele>
        <time>2013-09-08T09:30:44Z</time>
      </trkpt>
      <trkpt lat="48.73168" lon="-0.60618">
        <ele>255.6</ele>
        <time>2013-09-08T09:30:45Z</time>
      </trkpt>
      <trkpt lat="48.73165" lon="-0.60616">
        <ele>255.8</ele>
        <time>2013-09-08T09:30:46Z</time>
      </trkpt>
      <trkpt lat="48.73164" lon="-0.60613">
        <ele>255.8</ele>
        <time>2013-09-08T09:30:47Z</time>
      </trkpt>
      <trkpt lat="48.73162" lon="-0.60609">
        <ele>255.8</ele>
        <time>2013-09-08T09:30:48Z</time>
      </trkpt>
      <trkpt lat="48.73138" lon="-0.60584">
        <ele>254.8</ele>
        <time>2013-09-08T09:30:59Z</time>
      </trkpt>
      <trkpt lat="48.73138" lon="-0.60583">
        <ele>255</ele>
        <time>2013-09-08T09:31:01Z</time>
      </trkpt>
      <trkpt lat="48.73127" lon="-0.6057">
        <ele>255</ele>
        <time>2013-09-08T09:32:47Z</time>
      </trkpt>
      <trkpt lat="48.73105" lon="-0.60547">
        <ele>254.6</ele>
        <time>2013-09-08T09:32:57Z</time>
      </trkpt>
      <trkpt lat="48.73103" lon="-0.60544">
        <ele>254.6</ele>
        <time>2013-09-08T09:33:04Z</time>
      </trkpt>
      <trkpt lat="48.73099" lon="-0.60538">
        <ele>254.6</ele>
        <time>2013-09-08T09:36:55Z</time>
      </trkpt>
      <trkpt lat="48.73097" lon="-0.60535">
        <ele>254.6</ele>
        <time>2013-09-08T09:36:56Z</time>
      </trkpt>
      <trkpt lat="48.73093" lon="-0.60531">
        <ele>254.4</ele>
        <time>2013-09-08T09:36:57Z</time>
      </trkpt>
      <trkpt lat="48.73045" lon="-0.60472">
        <ele>252.8</ele>
        <time>2013-09-08T09:37:11Z</time>
      </trkpt>
      <trkpt lat="48.73042" lon="-0.60464">
        <ele>252.4</ele>
        <time>2013-09-08T09:37:12Z</time>
      </trkpt>
      <trkpt lat="48.7304" lon="-0.60455">
        <ele>252.2</ele>
        <time>2013-09-08T09:37:13Z</time>
      </trkpt>
      <trkpt lat="48.73038" lon="-0.60445">
        <ele>252</ele>
        <time>2013-09-08T09:37:14Z</time>
      </trkpt>
      <trkpt lat="48.73036" lon="-0.60436">
        <ele>251.6</ele>
        <time>2013-09-08T09:37:15Z</time>
      </trkpt>
      <trkpt lat="48.73035" lon="-0.60426">
        <ele>251.4</ele>
        <time>2013-09-08T09:37:16Z</time>
      </trkpt>
      <trkpt lat="48.73026" lon="-0.6039">
        <ele>251</ele>
        <time>2013-09-08T09:37:21Z</time>
      </trkpt>
      <trkpt lat="48.73024" lon="-0.60385">
        <ele>251</ele>
        <time>2013-09-08T09:37:22Z</time>
      </trkpt>
      <trkpt lat="48.73021" lon="-0.6038">
        <ele>251</ele>
        <time>2013-09-08T09:37:23Z</time>
      </trkpt>
      <trkpt lat="48.73003" lon="-0.60357">
        <ele>252</ele>
        <time>2013-09-08T09:37:28Z</time>
      </trkpt>
      <trkpt lat="48.72999" lon="-0.60353">
        <ele>252.4</ele>
        <time>2013-09-08T09:37:29Z</time>
      </trkpt>
      <trkpt lat="48.72963" lon="-0.60299">
        <ele>255.2</ele>
        <time>2013-09-08T09:37:43Z</time>
      </trkpt>
      <trkpt lat="48.72922" lon="-0.6024">
        <ele>257</ele>
        <time>2013-09-08T09:37:58Z</time>
      </trkpt>
      <trkpt lat="48.72893" lon="-0.60191">
        <ele>258.2</ele>
        <time>2013-09-08T09:38:11Z</time>
      </trkpt>
      <trkpt lat="48.72895" lon="-0.60172">
        <ele>258.4</ele>
        <time>2013-09-08T09:38:14Z</time>
      </trkpt>
      <trkpt lat="48.72899" lon="-0.60167">
        <ele>258.4</ele>
        <time>2013-09-08T09:38:15Z</time>
      </trkpt>
      <trkpt lat="48.72902" lon="-0.60162">
        <ele>258.6</ele>
        <time>2013-09-08T09:38:16Z</time>
      </trkpt>
      <trkpt lat="48.72929" lon="-0.60115">
        <ele>257.8</ele>
        <time>2013-09-08T09:38:25Z</time>
      </trkpt>
      <trkpt lat="48.72931" lon="-0.60109">
        <ele>257.8</ele>
        <time>2013-09-08T09:38:26Z</time>
      </trkpt>
      <trkpt lat="48.72931" lon="-0.60102">
        <ele>257.6</ele>
        <time>2013-09-08T09:38:27Z</time>
      </trkpt>
      <trkpt lat="48.72929" lon="-0.60095">
        <ele>257.6</ele>
        <time>2013-09-08T09:38:28Z</time>
      </trkpt>
      <trkpt lat="48.72927" lon="-0.60089">
        <ele>257.4</ele>
        <time>2013-09-08T09:38:29Z</time>
      </trkpt>
      <trkpt lat="48.72924" lon="-0.60084">
        <ele>257.4</ele>
        <time>2013-09-08T09:38:30Z</time>
      </trkpt>
      <trkpt lat="48.72922" lon="-0.60079">
        <ele>257.2</ele>
        <time>2013-09-08T09:38:31Z</time>
      </trkpt>
      <trkpt lat="48.72893" lon="-0.59993">
        <ele>255.8</ele>
        <time>2013-09-08T09:38:44Z</time>
      </trkpt>
      <trkpt lat="48.72878" lon="-0.59971">
        <ele>254.8</ele>
        <time>2013-09-08T09:38:51Z</time>
      </trkpt>
      <trkpt lat="48.72867" lon="-0.59974">
        <ele>254.4</ele>
        <time>2013-09-08T09:38:54Z</time>
      </trkpt>
      <trkpt lat="48.72863" lon="-0.59977">
        <ele>254.2</ele>
        <time>2013-09-08T09:38:55Z</time>
      </trkpt>
      <trkpt lat="48.72848" lon="-0.59988">
        <ele>254</ele>
        <time>2013-09-08T09:38:59Z</time>
      </trkpt>
      <trkpt lat="48.72845" lon="-0.59992">
        <ele>254</ele>
        <time>2013-09-08T09:39:00Z</time>
      </trkpt>
      <trkpt lat="48.72841" lon="-0.59996">
        <ele>254</ele>
        <time>2013-09-08T09:39:01Z</time>
      </trkpt>
      <trkpt lat="48.72837" lon="-0.60001">
        <ele>254.2</ele>
        <time>2013-09-08T09:39:02Z</time>
      </trkpt>
      <trkpt lat="48.72832" lon="-0.60004">
        <ele>254.2</ele>
        <time>2013-09-08T09:39:03Z</time>
      </trkpt>
      <trkpt lat="48.72828" lon="-0.60008">
        <ele>254.2</ele>
        <time>2013-09-08T09:39:04Z</time>
      </trkpt>
      <trkpt lat="48.72804" lon="-0.60028">
        <ele>254.6</ele>
        <time>2013-09-08T09:39:10Z</time>
      </trkpt>
      <trkpt lat="48.728" lon="-0.60032">
        <ele>254.8</ele>
        <time>2013-09-08T09:39:11Z</time>
      </trkpt>
      <trkpt lat="48.72796" lon="-0.60036">
        <ele>254.8</ele>
        <time>2013-09-08T09:39:12Z</time>
      </trkpt>
      <trkpt lat="48.72785" lon="-0.60051">
        <ele>254.8</ele>
        <time>2013-09-08T09:39:15Z</time>
      </trkpt>
      <trkpt lat="48.72781" lon="-0.60055">
        <ele>255</ele>
        <time>2013-09-08T09:39:16Z</time>
      </trkpt>
      <trkpt lat="48.72716" lon="-0.60121">
        <ele>256</ele>
        <time>2013-09-08T09:39:32Z</time>
      </trkpt>
      <trkpt lat="48.72704" lon="-0.60132">
        <ele>256.4</ele>
        <time>2013-09-08T09:39:35Z</time>
      </trkpt>
      <trkpt lat="48.72645" lon="-0.602">
        <ele>257.6</ele>
        <time>2013-09-08T09:39:51Z</time>
      </trkpt>
      <trkpt lat="48.72585" lon="-0.60273">
        <ele>260.4</ele>
        <time>2013-09-08T09:40:08Z</time>
      </trkpt>
      <trkpt lat="48.72538" lon="-0.60331">
        <ele>262.6</ele>
        <time>2013-09-08T09:40:23Z</time>
      </trkpt>
      <trkpt lat="48.72508" lon="-0.6037">
        <ele>264.6</ele>
        <time>2013-09-08T09:40:34Z</time>
      </trkpt>
      <trkpt lat="48.7248" lon="-0.60418">
        <ele>266.2</ele>
        <time>2013-09-08T09:40:45Z</time>
      </trkpt>
      <trkpt lat="48.72452" lon="-0.60475">
        <ele>269</ele>
        <time>2013-09-08T09:40:58Z</time>
      </trkpt>
      <trkpt lat="48.72445" lon="-0.60491">
        <ele>269.6</ele>
        <time>2013-09-08T09:41:01Z</time>
      </trkpt>
      <trkpt lat="48.72443" lon="-0.60498">
        <ele>269.6</ele>
        <time>2013-09-08T09:41:02Z</time>
      </trkpt>
      <trkpt lat="48.72432" lon="-0.60538">
        <ele>270.4</ele>
        <time>2013-09-08T09:41:09Z</time>
      </trkpt>
      <trkpt lat="48.7242" lon="-0.60587">
        <ele>270.6</ele>
        <time>2013-09-08T09:41:17Z</time>
      </trkpt>
      <trkpt lat="48.724" lon="-0.60662">
        <ele>270.2</ele>
        <time>2013-09-08T09:41:29Z</time>
      </trkpt>
      <trkpt lat="48.72398" lon="-0.60667">
        <ele>270.2</ele>
        <time>2013-09-08T09:41:30Z</time>
      </trkpt>
      <trkpt lat="48.72377" lon="-0.60707">
        <ele>270</ele>
        <time>2013-09-08T09:41:37Z</time>
      </trkpt>
      <trkpt lat="48.72374" lon="-0.60712">
        <ele>270</ele>
        <time>2013-09-08T09:41:38Z</time>
      </trkpt>
      <trkpt lat="48.72368" lon="-0.60722">
        <ele>269.8</ele>
        <time>2013-09-08T09:41:40Z</time>
      </trkpt>
      <trkpt lat="48.7236" lon="-0.60729">
        <ele>269.8</ele>
        <time>2013-09-08T09:41:42Z</time>
      </trkpt>
      <trkpt lat="48.72352" lon="-0.60736">
        <ele>269.8</ele>
        <time>2013-09-08T09:41:44Z</time>
      </trkpt>
      <trkpt lat="48.72345" lon="-0.60744">
        <ele>269.8</ele>
        <time>2013-09-08T09:41:46Z</time>
      </trkpt>
      <trkpt lat="48.72318" lon="-0.60778">
        <ele>270.8</ele>
        <time>2013-09-08T09:41:54Z</time>
      </trkpt>
      <trkpt lat="48.72298" lon="-0.60803">
        <ele>271.4</ele>
        <time>2013-09-08T09:42:00Z</time>
      </trkpt>
      <trkpt lat="48.72296" lon="-0.60808">
        <ele>271.4</ele>
        <time>2013-09-08T09:42:01Z</time>
      </trkpt>
      <trkpt lat="48.7228" lon="-0.60838">
        <ele>272.2</ele>
        <time>2013-09-08T09:42:07Z</time>
      </trkpt>
      <trkpt lat="48.72278" lon="-0.60844">
        <ele>272.4</ele>
        <time>2013-09-08T09:42:08Z</time>
      </trkpt>
      <trkpt lat="48.72267" lon="-0.60873">
        <ele>273</ele>
        <time>2013-09-08T09:42:13Z</time>
      </trkpt>
      <trkpt lat="48.7226" lon="-0.60889">
        <ele>273.6</ele>
        <time>2013-09-08T09:42:16Z</time>
      </trkpt>
      <trkpt lat="48.72251" lon="-0.60905">
        <ele>274</ele>
        <time>2013-09-08T09:42:19Z</time>
      </trkpt>
      <trkpt lat="48.72237" lon="-0.6093">
        <ele>274.8</ele>
        <time>2013-09-08T09:42:24Z</time>
      </trkpt>
      <trkpt lat="48.72233" lon="-0.60935">
        <ele>274.8</ele>
        <time>2013-09-08T09:42:25Z</time>
      </trkpt>
      <trkpt lat="48.72227" lon="-0.60945">
        <ele>275</ele>
        <time>2013-09-08T09:42:27Z</time>
      </trkpt>
      <trkpt lat="48.72205" lon="-0.60977">
        <ele>276</ele>
        <time>2013-09-08T09:42:34Z</time>
      </trkpt>
      <trkpt lat="48.72202" lon="-0.60982">
        <ele>276.2</ele>
        <time>2013-09-08T09:42:35Z</time>
      </trkpt>
      <trkpt lat="48.72152" lon="-0.61041">
        <ele>278.8</ele>
        <time>2013-09-08T09:42:51Z</time>
      </trkpt>
      <trkpt lat="48.72129" lon="-0.61064">
        <ele>281.2</ele>
        <time>2013-09-08T09:43:03Z</time>
      </trkpt>
      <trkpt lat="48.72127" lon="-0.61066">
        <ele>281.4</ele>
        <time>2013-09-08T09:43:04Z</time>
      </trkpt>
      <trkpt lat="48.72126" lon="-0.61069">
        <ele>281.4</ele>
        <time>2013-09-08T09:43:05Z</time>
      </trkpt>
      <trkpt lat="48.72124" lon="-0.61072">
        <ele>281.6</ele>
        <time>2013-09-08T09:43:06Z</time>
      </trkpt>
      <trkpt lat="48.72121" lon="-0.61077">
        <ele>281.6</ele>
        <time>2013-09-08T09:43:07Z</time>
      </trkpt>
      <trkpt lat="48.72083" lon="-0.61114">
        <ele>283.6</ele>
        <time>2013-09-08T09:43:19Z</time>
      </trkpt>
      <trkpt lat="48.7207" lon="-0.6113">
        <ele>284.6</ele>
        <time>2013-09-08T09:43:23Z</time>
      </trkpt>
      <trkpt lat="48.72053" lon="-0.61149">
        <ele>285.6</ele>
        <time>2013-09-08T09:43:27Z</time>
      </trkpt>
      <trkpt lat="48.72037" lon="-0.61171">
        <ele>286.8</ele>
        <time>2013-09-08T09:43:31Z</time>
      </trkpt>
      <trkpt lat="48.71995" lon="-0.61211">
        <ele>290.2</ele>
        <time>2013-09-08T09:43:40Z</time>
      </trkpt>
      <trkpt lat="48.71978" lon="-0.61238">
        <ele>291.6</ele>
        <time>2013-09-08T09:43:45Z</time>
      </trkpt>
      <trkpt lat="48.71953" lon="-0.61276">
        <ele>294.4</ele>
        <time>2013-09-08T09:43:52Z</time>
      </trkpt>
      <trkpt lat="48.71946" lon="-0.61288">
        <ele>295.6</ele>
        <time>2013-09-08T09:43:54Z</time>
      </trkpt>
      <trkpt lat="48.71936" lon="-0.61307">
        <ele>296.8</ele>
        <time>2013-09-08T09:43:57Z</time>
      </trkpt>
      <trkpt lat="48.71912" lon="-0.61364">
        <ele>299.4</ele>
        <time>2013-09-08T09:44:08Z</time>
      </trkpt>
      <trkpt lat="48.71908" lon="-0.6137">
        <ele>299.6</ele>
        <time>2013-09-08T09:44:09Z</time>
      </trkpt>
      <trkpt lat="48.71898" lon="-0.61376">
        <ele>299.8</ele>
        <time>2013-09-08T09:44:11Z</time>
      </trkpt>
      <trkpt lat="48.71865" lon="-0.61398">
        <ele>299.8</ele>
        <time>2013-09-08T09:44:17Z</time>
      </trkpt>
      <trkpt lat="48.71811" lon="-0.6144">
        <ele>300.8</ele>
        <time>2013-09-08T09:44:29Z</time>
      </trkpt>
      <trkpt lat="48.7179" lon="-0.61443">
        <ele>301.4</ele>
        <time>2013-09-08T09:44:33Z</time>
      </trkpt>
      <trkpt lat="48.71778" lon="-0.61449">
        <ele>301.4</ele>
        <time>2013-09-08T09:44:35Z</time>
      </trkpt>
      <trkpt lat="48.71767" lon="-0.61453">
        <ele>301.6</ele>
        <time>2013-09-08T09:44:37Z</time>
      </trkpt>
      <trkpt lat="48.71732" lon="-0.61466">
        <ele>303</ele>
        <time>2013-09-08T09:44:44Z</time>
      </trkpt>
      <trkpt lat="48.71723" lon="-0.61469">
        <ele>303.6</ele>
        <time>2013-09-08T09:44:46Z</time>
      </trkpt>
      <trkpt lat="48.71699" lon="-0.61478">
        <ele>305</ele>
        <time>2013-09-08T09:44:52Z</time>
      </trkpt>
      <trkpt lat="48.71649" lon="-0.61483">
        <ele>308.2</ele>
        <time>2013-09-08T09:45:02Z</time>
      </trkpt>
      <trkpt lat="48.71612" lon="-0.61479">
        <ele>311.8</ele>
        <time>2013-09-08T09:45:11Z</time>
      </trkpt>
      <trkpt lat="48.71565" lon="-0.61469">
        <ele>314.8</ele>
        <time>2013-09-08T09:45:22Z</time>
      </trkpt>
      <trkpt lat="48.71515" lon="-0.61462">
        <ele>317</ele>
        <time>2013-09-08T09:45:34Z</time>
      </trkpt>
      <trkpt lat="48.71468" lon="-0.61468">
        <ele>316.6</ele>
        <time>2013-09-08T09:45:44Z</time>
      </trkpt>
      <trkpt lat="48.71412" lon="-0.61473">
        <ele>316.2</ele>
        <time>2013-09-08T09:45:54Z</time>
      </trkpt>
      <trkpt lat="48.71393" lon="-0.61495">
        <ele>315.2</ele>
        <time>2013-09-08T09:46:00Z</time>
      </trkpt>
      <trkpt lat="48.7139" lon="-0.61499">
        <ele>315</ele>
        <time>2013-09-08T09:46:01Z</time>
      </trkpt>
      <trkpt lat="48.71386" lon="-0.61501">
        <ele>314.4</ele>
        <time>2013-09-08T09:46:02Z</time>
      </trkpt>
      <trkpt lat="48.71381" lon="-0.61504">
        <ele>314</ele>
        <time>2013-09-08T09:46:03Z</time>
      </trkpt>
      <trkpt lat="48.71376" lon="-0.61505">
        <ele>313.8</ele>
        <time>2013-09-08T09:46:04Z</time>
      </trkpt>
      <trkpt lat="48.71371" lon="-0.61506">
        <ele>313.8</ele>
        <time>2013-09-08T09:46:05Z</time>
      </trkpt>
      <trkpt lat="48.71329" lon="-0.61511">
        <ele>313.8</ele>
        <time>2013-09-08T09:46:13Z</time>
      </trkpt>
      <trkpt lat="48.71324" lon="-0.61514">
        <ele>314</ele>
        <time>2013-09-08T09:46:14Z</time>
      </trkpt>
      <trkpt lat="48.71312" lon="-0.61519">
        <ele>314</ele>
        <time>2013-09-08T09:46:16Z</time>
      </trkpt>
      <trkpt lat="48.71255" lon="-0.61528">
        <ele>314</ele>
        <time>2013-09-08T09:46:28Z</time>
      </trkpt>
      <trkpt lat="48.71251" lon="-0.61531">
        <ele>314.4</ele>
        <time>2013-09-08T09:46:29Z</time>
      </trkpt>
      <trkpt lat="48.71247" lon="-0.61534">
        <ele>314.6</ele>
        <time>2013-09-08T09:46:30Z</time>
      </trkpt>
      <trkpt lat="48.71234" lon="-0.6154">
        <ele>314.8</ele>
        <time>2013-09-08T09:46:33Z</time>
      </trkpt>
      <trkpt lat="48.71183" lon="-0.61543">
        <ele>313.2</ele>
        <time>2013-09-08T09:46:44Z</time>
      </trkpt>
      <trkpt lat="48.71179" lon="-0.61544">
        <ele>313</ele>
        <time>2013-09-08T09:46:45Z</time>
      </trkpt>
      <trkpt lat="48.71142" lon="-0.61558">
        <ele>310.2</ele>
        <time>2013-09-08T09:46:53Z</time>
      </trkpt>
      <trkpt lat="48.71137" lon="-0.61558">
        <ele>309.8</ele>
        <time>2013-09-08T09:46:54Z</time>
      </trkpt>
      <trkpt lat="48.71133" lon="-0.61557">
        <ele>308.8</ele>
        <time>2013-09-08T09:46:55Z</time>
      </trkpt>
      <trkpt lat="48.71129" lon="-0.61555">
        <ele>308.4</ele>
        <time>2013-09-08T09:46:56Z</time>
      </trkpt>
      <trkpt lat="48.71125" lon="-0.61551">
        <ele>308.2</ele>
        <time>2013-09-08T09:46:57Z</time>
      </trkpt>
      <trkpt lat="48.71123" lon="-0.61547">
        <ele>307.8</ele>
        <time>2013-09-08T09:46:58Z</time>
      </trkpt>
      <trkpt lat="48.7112" lon="-0.61542">
        <ele>307.6</ele>
        <time>2013-09-08T09:46:59Z</time>
      </trkpt>
      <trkpt lat="48.71117" lon="-0.61529">
        <ele>307.2</ele>
        <time>2013-09-08T09:47:01Z</time>
      </trkpt>
      <trkpt lat="48.71088" lon="-0.61428">
        <ele>309.6</ele>
        <time>2013-09-08T09:47:16Z</time>
      </trkpt>
      <trkpt lat="48.71074" lon="-0.61388">
        <ele>310.4</ele>
        <time>2013-09-08T09:47:24Z</time>
      </trkpt>
      <trkpt lat="48.7104" lon="-0.61406">
        <ele>309.8</ele>
        <time>2013-09-08T09:47:34Z</time>
      </trkpt>
      <trkpt lat="48.7102" lon="-0.61421">
        <ele>308.8</ele>
        <time>2013-09-08T09:47:39Z</time>
      </trkpt>
      <trkpt lat="48.70981" lon="-0.61454">
        <ele>307.8</ele>
        <time>2013-09-08T09:47:48Z</time>
      </trkpt>
      <trkpt lat="48.70971" lon="-0.6146">
        <ele>307.4</ele>
        <time>2013-09-08T09:47:50Z</time>
      </trkpt>
      <trkpt lat="48.70951" lon="-0.61473">
        <ele>306.6</ele>
        <time>2013-09-08T09:47:54Z</time>
      </trkpt>
      <trkpt lat="48.70902" lon="-0.61499">
        <ele>305.2</ele>
        <time>2013-09-08T09:48:03Z</time>
      </trkpt>
      <trkpt lat="48.70851" lon="-0.61519">
        <ele>304.8</ele>
        <time>2013-09-08T09:48:14Z</time>
      </trkpt>
      <trkpt lat="48.70798" lon="-0.61536">
        <ele>305</ele>
        <time>2013-09-08T09:48:27Z</time>
      </trkpt>
      <trkpt lat="48.70734" lon="-0.61565">
        <ele>307.8</ele>
        <time>2013-09-08T09:48:42Z</time>
      </trkpt>
      <trkpt lat="48.70689" lon="-0.6158">
        <ele>309.2</ele>
        <time>2013-09-08T09:48:54Z</time>
      </trkpt>
      <trkpt lat="48.7065" lon="-0.61595">
        <ele>308.2</ele>
        <time>2013-09-08T09:49:05Z</time>
      </trkpt>
      <trkpt lat="48.70647" lon="-0.61596">
        <ele>308.2</ele>
        <time>2013-09-08T09:49:06Z</time>
      </trkpt>
      <trkpt lat="48.70627" lon="-0.61558">
        <ele>307.6</ele>
        <time>2013-09-08T09:49:14Z</time>
      </trkpt>
      <trkpt lat="48.70626" lon="-0.61555">
        <ele>307.6</ele>
        <time>2013-09-08T09:49:15Z</time>
      </trkpt>
      <trkpt lat="48.70617" lon="-0.61564">
        <ele>307.6</ele>
        <time>2013-09-08T09:49:21Z</time>
      </trkpt>
      <trkpt lat="48.70592" lon="-0.61653">
        <ele>305.2</ele>
        <time>2013-09-08T09:49:34Z</time>
      </trkpt>
      <trkpt lat="48.70573" lon="-0.6171">
        <ele>304.8</ele>
        <time>2013-09-08T09:49:46Z</time>
      </trkpt>
      <trkpt lat="48.70559" lon="-0.61763">
        <ele>304.6</ele>
        <time>2013-09-08T09:49:57Z</time>
      </trkpt>
      <trkpt lat="48.70561" lon="-0.61768">
        <ele>304.6</ele>
        <time>2013-09-08T09:49:58Z</time>
      </trkpt>
      <trkpt lat="48.70555" lon="-0.61797">
        <ele>304.6</ele>
        <time>2013-09-08T09:50:01Z</time>
      </trkpt>
      <trkpt lat="48.70552" lon="-0.61841">
        <ele>305</ele>
        <time>2013-09-08T09:50:07Z</time>
      </trkpt>
      <trkpt lat="48.7055" lon="-0.61879">
        <ele>304.8</ele>
        <time>2013-09-08T09:50:12Z</time>
      </trkpt>
      <trkpt lat="48.7055" lon="-0.61942">
        <ele>305.4</ele>
        <time>2013-09-08T09:50:23Z</time>
      </trkpt>
      <trkpt lat="48.70558" lon="-0.61962">
        <ele>306</ele>
        <time>2013-09-08T09:50:28Z</time>
      </trkpt>
      <trkpt lat="48.70552" lon="-0.61972">
        <ele>306.8</ele>
        <time>2013-09-08T09:50:33Z</time>
      </trkpt>
      <trkpt lat="48.70548" lon="-0.61971">
        <ele>307</ele>
        <time>2013-09-08T09:50:34Z</time>
      </trkpt>
      <trkpt lat="48.70545" lon="-0.6197">
        <ele>307.2</ele>
        <time>2013-09-08T09:50:35Z</time>
      </trkpt>
      <trkpt lat="48.70541" lon="-0.61972">
        <ele>307.4</ele>
        <time>2013-09-08T09:50:36Z</time>
      </trkpt>
      <trkpt lat="48.70536" lon="-0.61974">
        <ele>307.8</ele>
        <time>2013-09-08T09:50:37Z</time>
      </trkpt>
      <trkpt lat="48.70531" lon="-0.61978">
        <ele>308</ele>
        <time>2013-09-08T09:50:38Z</time>
      </trkpt>
      <trkpt lat="48.70522" lon="-0.61986">
        <ele>308.4</ele>
        <time>2013-09-08T09:50:40Z</time>
      </trkpt>
      <trkpt lat="48.70513" lon="-0.61992">
        <ele>308.8</ele>
        <time>2013-09-08T09:50:42Z</time>
      </trkpt>
      <trkpt lat="48.70492" lon="-0.6201">
        <ele>311</ele>
        <time>2013-09-08T09:50:47Z</time>
      </trkpt>
      <trkpt lat="48.70475" lon="-0.62026">
        <ele>312.6</ele>
        <time>2013-09-08T09:50:51Z</time>
      </trkpt>
      <trkpt lat="48.70447" lon="-0.62046">
        <ele>316.2</ele>
        <time>2013-09-08T09:50:58Z</time>
      </trkpt>
      <trkpt lat="48.70424" lon="-0.62072">
        <ele>319.4</ele>
        <time>2013-09-08T09:51:05Z</time>
      </trkpt>
      <trkpt lat="48.70399" lon="-0.62088">
        <ele>322.6</ele>
        <time>2013-09-08T09:51:11Z</time>
      </trkpt>
      <trkpt lat="48.70377" lon="-0.62101">
        <ele>325.6</ele>
        <time>2013-09-08T09:51:17Z</time>
      </trkpt>
      <trkpt lat="48.70373" lon="-0.62104">
        <ele>326.2</ele>
        <time>2013-09-08T09:51:18Z</time>
      </trkpt>
      <trkpt lat="48.70341" lon="-0.62127">
        <ele>330</ele>
        <time>2013-09-08T09:51:26Z</time>
      </trkpt>
      <trkpt lat="48.70313" lon="-0.62147">
        <ele>333</ele>
        <time>2013-09-08T09:51:34Z</time>
      </trkpt>
      <trkpt lat="48.70272" lon="-0.6217">
        <ele>334.6</ele>
        <time>2013-09-08T09:51:45Z</time>
      </trkpt>
      <trkpt lat="48.7026" lon="-0.62177">
        <ele>335.2</ele>
        <time>2013-09-08T09:51:48Z</time>
      </trkpt>
      <trkpt lat="48.70235" lon="-0.62196">
        <ele>336</ele>
        <time>2013-09-08T09:51:54Z</time>
      </trkpt>
      <trkpt lat="48.70222" lon="-0.62206">
        <ele>336.6</ele>
        <time>2013-09-08T09:51:57Z</time>
      </trkpt>
      <trkpt lat="48.70163" lon="-0.62255">
        <ele>338.2</ele>
        <time>2013-09-08T09:52:13Z</time>
      </trkpt>
      <trkpt lat="48.70134" lon="-0.62276">
        <ele>340.2</ele>
        <time>2013-09-08T09:52:24Z</time>
      </trkpt>
      <trkpt lat="48.70098" lon="-0.62295">
        <ele>340.8</ele>
        <time>2013-09-08T09:52:31Z</time>
      </trkpt>
      <trkpt lat="48.7009" lon="-0.62301">
        <ele>341</ele>
        <time>2013-09-08T09:52:33Z</time>
      </trkpt>
      <trkpt lat="48.70079" lon="-0.62308">
        <ele>341.4</ele>
        <time>2013-09-08T09:52:35Z</time>
      </trkpt>
      <trkpt lat="48.70068" lon="-0.62316">
        <ele>341.8</ele>
        <time>2013-09-08T09:52:38Z</time>
      </trkpt>
      <trkpt lat="48.70037" lon="-0.6234">
        <ele>343.2</ele>
        <time>2013-09-08T09:52:45Z</time>
      </trkpt>
      <trkpt lat="48.70022" lon="-0.62349">
        <ele>343.8</ele>
        <time>2013-09-08T09:52:48Z</time>
      </trkpt>
      <trkpt lat="48.69974" lon="-0.62382">
        <ele>346.4</ele>
        <time>2013-09-08T09:52:58Z</time>
      </trkpt>
      <trkpt lat="48.69948" lon="-0.62403">
        <ele>347.2</ele>
        <time>2013-09-08T09:53:04Z</time>
      </trkpt>
      <trkpt lat="48.69932" lon="-0.62412">
        <ele>347.8</ele>
        <time>2013-09-08T09:53:07Z</time>
      </trkpt>
      <trkpt lat="48.69918" lon="-0.62422">
        <ele>348.4</ele>
        <time>2013-09-08T09:53:10Z</time>
      </trkpt>
      <trkpt lat="48.69903" lon="-0.62431">
        <ele>349.2</ele>
        <time>2013-09-08T09:53:13Z</time>
      </trkpt>
      <trkpt lat="48.69884" lon="-0.62447">
        <ele>350</ele>
        <time>2013-09-08T09:53:17Z</time>
      </trkpt>
      <trkpt lat="48.69861" lon="-0.62463">
        <ele>350.4</ele>
        <time>2013-09-08T09:53:22Z</time>
      </trkpt>
      <trkpt lat="48.69838" lon="-0.62482">
        <ele>350.2</ele>
        <time>2013-09-08T09:53:27Z</time>
      </trkpt>
      <trkpt lat="48.69793" lon="-0.62514">
        <ele>348.4</ele>
        <time>2013-09-08T09:53:36Z</time>
      </trkpt>
      <trkpt lat="48.69758" lon="-0.62538">
        <ele>347.8</ele>
        <time>2013-09-08T09:53:44Z</time>
      </trkpt>
      <trkpt lat="48.69748" lon="-0.62543">
        <ele>347.4</ele>
        <time>2013-09-08T09:53:46Z</time>
      </trkpt>
      <trkpt lat="48.69728" lon="-0.62558">
        <ele>346.8</ele>
        <time>2013-09-08T09:53:50Z</time>
      </trkpt>
      <trkpt lat="48.69708" lon="-0.62574">
        <ele>346</ele>
        <time>2013-09-08T09:53:55Z</time>
      </trkpt>
      <trkpt lat="48.69678" lon="-0.62597">
        <ele>344.2</ele>
        <time>2013-09-08T09:54:01Z</time>
      </trkpt>
      <trkpt lat="48.69661" lon="-0.62611">
        <ele>342.6</ele>
        <time>2013-09-08T09:54:05Z</time>
      </trkpt>
      <trkpt lat="48.69639" lon="-0.62623">
        <ele>341.4</ele>
        <time>2013-09-08T09:54:08Z</time>
      </trkpt>
      <trkpt lat="48.69605" lon="-0.62646">
        <ele>339.6</ele>
        <time>2013-09-08T09:54:14Z</time>
      </trkpt>
      <trkpt lat="48.69589" lon="-0.62657">
        <ele>337.8</ele>
        <time>2013-09-08T09:54:18Z</time>
      </trkpt>
      <trkpt lat="48.69555" lon="-0.62677">
        <ele>334.2</ele>
        <time>2013-09-08T09:54:26Z</time>
      </trkpt>
      <trkpt lat="48.69523" lon="-0.62674">
        <ele>331.2</ele>
        <time>2013-09-08T09:54:36Z</time>
      </trkpt>
      <trkpt lat="48.69501" lon="-0.62628">
        <ele>329.4</ele>
        <time>2013-09-08T09:54:48Z</time>
      </trkpt>
      <trkpt lat="48.69489" lon="-0.62581">
        <ele>328.6</ele>
        <time>2013-09-08T09:54:58Z</time>
      </trkpt>
      <trkpt lat="48.69474" lon="-0.62546">
        <ele>328.2</ele>
        <time>2013-09-08T09:55:08Z</time>
      </trkpt>
      <trkpt lat="48.69454" lon="-0.62482">
        <ele>327.2</ele>
        <time>2013-09-08T09:55:18Z</time>
      </trkpt>
      <trkpt lat="48.69442" lon="-0.62438">
        <ele>326.4</ele>
        <time>2013-09-08T09:55:27Z</time>
      </trkpt>
      <trkpt lat="48.69429" lon="-0.62393">
        <ele>325.4</ele>
        <time>2013-09-08T09:55:36Z</time>
      </trkpt>
      <trkpt lat="48.69413" lon="-0.62352">
        <ele>324.4</ele>
        <time>2013-09-08T09:55:42Z</time>
      </trkpt>
      <trkpt lat="48.69405" lon="-0.62335">
        <ele>323.4</ele>
        <time>2013-09-08T09:55:45Z</time>
      </trkpt>
      <trkpt lat="48.69387" lon="-0.62272">
        <ele>321</ele>
        <time>2013-09-08T09:55:56Z</time>
      </trkpt>
      <trkpt lat="48.69378" lon="-0.62246">
        <ele>320.2</ele>
        <time>2013-09-08T09:56:00Z</time>
      </trkpt>
      <trkpt lat="48.69367" lon="-0.6221">
        <ele>319.6</ele>
        <time>2013-09-08T09:56:06Z</time>
      </trkpt>
      <trkpt lat="48.69366" lon="-0.62199">
        <ele>319.2</ele>
        <time>2013-09-08T09:56:08Z</time>
      </trkpt>
      <trkpt lat="48.69346" lon="-0.62124">
        <ele>317.6</ele>
        <time>2013-09-08T09:56:19Z</time>
      </trkpt>
      <trkpt lat="48.69317" lon="-0.62027">
        <ele>316.2</ele>
        <time>2013-09-08T09:56:31Z</time>
      </trkpt>
      <trkpt lat="48.69292" lon="-0.61948">
        <ele>316.6</ele>
        <time>2013-09-08T09:56:43Z</time>
      </trkpt>
      <trkpt lat="48.6929" lon="-0.61941">
        <ele>316.6</ele>
        <time>2013-09-08T09:56:44Z</time>
      </trkpt>
      <trkpt lat="48.69264" lon="-0.61867">
        <ele>316.6</ele>
        <time>2013-09-08T09:56:56Z</time>
      </trkpt>
      <trkpt lat="48.69249" lon="-0.6182">
        <ele>318.2</ele>
        <time>2013-09-08T09:57:07Z</time>
      </trkpt>
      <trkpt lat="48.69248" lon="-0.61811">
        <ele>319.2</ele>
        <time>2013-09-08T09:57:17Z</time>
      </trkpt>
      <trkpt lat="48.69247" lon="-0.61801">
        <ele>319.2</ele>
        <time>2013-09-08T09:57:23Z</time>
      </trkpt>
      <trkpt lat="48.69246" lon="-0.61794">
        <ele>319</ele>
        <time>2013-09-08T09:57:24Z</time>
      </trkpt>
      <trkpt lat="48.69245" lon="-0.61789">
        <ele>319.2</ele>
        <time>2013-09-08T09:57:25Z</time>
      </trkpt>
      <trkpt lat="48.69244" lon="-0.61784">
        <ele>319.2</ele>
        <time>2013-09-08T09:57:26Z</time>
      </trkpt>
      <trkpt lat="48.69242" lon="-0.61779">
        <ele>319.2</ele>
        <time>2013-09-08T09:57:27Z</time>
      </trkpt>
      <trkpt lat="48.69225" lon="-0.61734">
        <ele>320</ele>
        <time>2013-09-08T09:57:35Z</time>
      </trkpt>
      <trkpt lat="48.6921" lon="-0.61676">
        <ele>321.4</ele>
        <time>2013-09-08T09:57:44Z</time>
      </trkpt>
      <trkpt lat="48.69203" lon="-0.61648">
        <ele>322</ele>
        <time>2013-09-08T09:57:48Z</time>
      </trkpt>
      <trkpt lat="48.6918" lon="-0.61579">
        <ele>322.6</ele>
        <time>2013-09-08T09:58:00Z</time>
      </trkpt>
      <trkpt lat="48.69168" lon="-0.6155">
        <ele>322.4</ele>
        <time>2013-09-08T09:58:05Z</time>
      </trkpt>
      <trkpt lat="48.69151" lon="-0.61509">
        <ele>321.8</ele>
        <time>2013-09-08T09:58:11Z</time>
      </trkpt>
      <trkpt lat="48.69129" lon="-0.61446">
        <ele>320.2</ele>
        <time>2013-09-08T09:58:19Z</time>
      </trkpt>
      <trkpt lat="48.69115" lon="-0.61408">
        <ele>318.6</ele>
        <time>2013-09-08T09:58:29Z</time>
      </trkpt>
      <trkpt lat="48.69104" lon="-0.61363">
        <ele>317</ele>
        <time>2013-09-08T09:58:40Z</time>
      </trkpt>
      <trkpt lat="48.69088" lon="-0.61311">
        <ele>315.4</ele>
        <time>2013-09-08T09:58:51Z</time>
      </trkpt>
      <trkpt lat="48.69066" lon="-0.6126">
        <ele>314.2</ele>
        <time>2013-09-08T09:59:02Z</time>
      </trkpt>
      <trkpt lat="48.69064" lon="-0.61253">
        <ele>314</ele>
        <time>2013-09-08T09:59:03Z</time>
      </trkpt>
      <trkpt lat="48.69062" lon="-0.61246">
        <ele>314</ele>
        <time>2013-09-08T09:59:04Z</time>
      </trkpt>
      <trkpt lat="48.6906" lon="-0.61239">
        <ele>313.8</ele>
        <time>2013-09-08T09:59:05Z</time>
      </trkpt>
      <trkpt lat="48.69058" lon="-0.61233">
        <ele>313.8</ele>
        <time>2013-09-08T09:59:06Z</time>
      </trkpt>
      <trkpt lat="48.69038" lon="-0.61165">
        <ele>312</ele>
        <time>2013-09-08T09:59:17Z</time>
      </trkpt>
      <trkpt lat="48.69033" lon="-0.61125">
        <ele>310.4</ele>
        <time>2013-09-08T09:59:27Z</time>
      </trkpt>
      <trkpt lat="48.69012" lon="-0.61075">
        <ele>309.2</ele>
        <time>2013-09-08T09:59:37Z</time>
      </trkpt>
      <trkpt lat="48.68998" lon="-0.61029">
        <ele>308.6</ele>
        <time>2013-09-08T09:59:46Z</time>
      </trkpt>
      <trkpt lat="48.6899" lon="-0.61002">
        <ele>308.6</ele>
        <time>2013-09-08T09:59:50Z</time>
      </trkpt>
      <trkpt lat="48.68989" lon="-0.60996">
        <ele>308.6</ele>
        <time>2013-09-08T09:59:51Z</time>
      </trkpt>
      <trkpt lat="48.68985" lon="-0.6098">
        <ele>307.6</ele>
        <time>2013-09-08T10:00:00Z</time>
      </trkpt>
      <trkpt lat="48.68984" lon="-0.60978">
        <ele>307.6</ele>
        <time>2013-09-08T10:00:02Z</time>
      </trkpt>
      <trkpt lat="48.68978" lon="-0.60966">
        <ele>307.6</ele>
        <time>2013-09-08T10:00:13Z</time>
      </trkpt>
      <trkpt lat="48.68968" lon="-0.60937">
        <ele>308</ele>
        <time>2013-09-08T10:00:24Z</time>
      </trkpt>
      <trkpt lat="48.68957" lon="-0.6092">
        <ele>308.2</ele>
        <time>2013-09-08T10:00:31Z</time>
      </trkpt>
      <trkpt lat="48.68931" lon="-0.609">
        <ele>308.8</ele>
        <time>2013-09-08T10:00:42Z</time>
      </trkpt>
      <trkpt lat="48.68913" lon="-0.60838">
        <ele>309</ele>
        <time>2013-09-08T10:00:53Z</time>
      </trkpt>
      <trkpt lat="48.68903" lon="-0.60823">
        <ele>309</ele>
        <time>2013-09-08T10:00:56Z</time>
      </trkpt>
      <trkpt lat="48.68899" lon="-0.60818">
        <ele>308.8</ele>
        <time>2013-09-08T10:00:57Z</time>
      </trkpt>
      <trkpt lat="48.68845" lon="-0.6076">
        <ele>307.4</ele>
        <time>2013-09-08T10:01:09Z</time>
      </trkpt>
      <trkpt lat="48.68833" lon="-0.60744">
        <ele>307.2</ele>
        <time>2013-09-08T10:01:12Z</time>
      </trkpt>
      <trkpt lat="48.68771" lon="-0.6064">
        <ele>305.4</ele>
        <time>2013-09-08T10:01:26Z</time>
      </trkpt>
      <trkpt lat="48.68757" lon="-0.60608">
        <ele>304.8</ele>
        <time>2013-09-08T10:01:31Z</time>
      </trkpt>
      <trkpt lat="48.68756" lon="-0.60602">
        <ele>304.6</ele>
        <time>2013-09-08T10:01:32Z</time>
      </trkpt>
      <trkpt lat="48.68727" lon="-0.6052">
        <ele>303.8</ele>
        <time>2013-09-08T10:01:44Z</time>
      </trkpt>
      <trkpt lat="48.68689" lon="-0.60433">
        <ele>302.6</ele>
        <time>2013-09-08T10:01:56Z</time>
      </trkpt>
      <trkpt lat="48.68654" lon="-0.60353">
        <ele>301.6</ele>
        <time>2013-09-08T10:02:07Z</time>
      </trkpt>
      <trkpt lat="48.6861" lon="-0.60253">
        <ele>300.6</ele>
        <time>2013-09-08T10:02:21Z</time>
      </trkpt>
      <trkpt lat="48.68595" lon="-0.60215">
        <ele>300</ele>
        <time>2013-09-08T10:02:26Z</time>
      </trkpt>
      <trkpt lat="48.68592" lon="-0.60209">
        <ele>300</ele>
        <time>2013-09-08T10:02:27Z</time>
      </trkpt>
      <trkpt lat="48.68563" lon="-0.60136">
        <ele>298.4</ele>
        <time>2013-09-08T10:02:41Z</time>
      </trkpt>
      <trkpt lat="48.68565" lon="-0.6013">
        <ele>298.4</ele>
        <time>2013-09-08T10:02:45Z</time>
      </trkpt>
      <trkpt lat="48.68566" lon="-0.60127">
        <ele>298.4</ele>
        <time>2013-09-08T10:02:46Z</time>
      </trkpt>
      <trkpt lat="48.68566" lon="-0.60125">
        <ele>298.4</ele>
        <time>2013-09-08T10:02:47Z</time>
      </trkpt>
      <trkpt lat="48.68566" lon="-0.60102">
        <ele>298.4</ele>
        <time>2013-09-08T10:02:55Z</time>
      </trkpt>
      <trkpt lat="48.68574" lon="-0.60085">
        <ele>298.6</ele>
        <time>2013-09-08T10:03:03Z</time>
      </trkpt>
      <trkpt lat="48.68575" lon="-0.60081">
        <ele>298.8</ele>
        <time>2013-09-08T10:03:04Z</time>
      </trkpt>
      <trkpt lat="48.68575" lon="-0.60077">
        <ele>298.8</ele>
        <time>2013-09-08T10:03:05Z</time>
      </trkpt>
      <trkpt lat="48.68576" lon="-0.60072">
        <ele>299</ele>
        <time>2013-09-08T10:03:06Z</time>
      </trkpt>
      <trkpt lat="48.68576" lon="-0.60068">
        <ele>299</ele>
        <time>2013-09-08T10:03:07Z</time>
      </trkpt>
      <trkpt lat="48.68587" lon="-0.60015">
        <ele>300.4</ele>
        <time>2013-09-08T10:03:18Z</time>
      </trkpt>
      <trkpt lat="48.68613" lon="-0.59952">
        <ele>301.8</ele>
        <time>2013-09-08T10:03:30Z</time>
      </trkpt>
      <trkpt lat="48.68616" lon="-0.59947">
        <ele>302.2</ele>
        <time>2013-09-08T10:03:32Z</time>
      </trkpt>
      <trkpt lat="48.68623" lon="-0.59948">
        <ele>302.4</ele>
        <time>2013-09-08T10:03:35Z</time>
      </trkpt>
      <trkpt lat="48.68636" lon="-0.59928">
        <ele>303.2</ele>
        <time>2013-09-08T10:03:47Z</time>
      </trkpt>
      <trkpt lat="48.68639" lon="-0.59924">
        <ele>303.4</ele>
        <time>2013-09-08T10:03:53Z</time>
      </trkpt>
      <trkpt lat="48.68638" lon="-0.59909">
        <ele>303.6</ele>
        <time>2013-09-08T10:03:58Z</time>
      </trkpt>
      <trkpt lat="48.6863" lon="-0.59855">
        <ele>303</ele>
        <time>2013-09-08T10:04:12Z</time>
      </trkpt>
      <trkpt lat="48.68627" lon="-0.59851">
        <ele>303</ele>
        <time>2013-09-08T10:04:14Z</time>
      </trkpt>
      <trkpt lat="48.68624" lon="-0.59847">
        <ele>302.8</ele>
        <time>2013-09-08T10:04:16Z</time>
      </trkpt>
      <trkpt lat="48.68623" lon="-0.59843">
        <ele>302.6</ele>
        <time>2013-09-08T10:04:17Z</time>
      </trkpt>
      <trkpt lat="48.68621" lon="-0.59841">
        <ele>302.6</ele>
        <time>2013-09-08T10:04:18Z</time>
      </trkpt>
      <trkpt lat="48.6862" lon="-0.5984">
        <ele>302.4</ele>
        <time>2013-09-08T10:04:19Z</time>
      </trkpt>
      <trkpt lat="48.68613" lon="-0.59842">
        <ele>302</ele>
        <time>2013-09-08T10:04:23Z</time>
      </trkpt>
      <trkpt lat="48.68586" lon="-0.59838">
        <ele>300.8</ele>
        <time>2013-09-08T10:04:32Z</time>
      </trkpt>
      <trkpt lat="48.68564" lon="-0.59816">
        <ele>300.2</ele>
        <time>2013-09-08T10:04:39Z</time>
      </trkpt>
      <trkpt lat="48.6855" lon="-0.59793">
        <ele>299.4</ele>
        <time>2013-09-08T10:04:44Z</time>
      </trkpt>
      <trkpt lat="48.68534" lon="-0.59775">
        <ele>298.6</ele>
        <time>2013-09-08T10:04:49Z</time>
      </trkpt>
      <trkpt lat="48.68517" lon="-0.59761">
        <ele>297.6</ele>
        <time>2013-09-08T10:04:55Z</time>
      </trkpt>
      <trkpt lat="48.68513" lon="-0.59731">
        <ele>296.8</ele>
        <time>2013-09-08T10:04:59Z</time>
      </trkpt>
      <trkpt lat="48.68507" lon="-0.59617">
        <ele>293.4</ele>
        <time>2013-09-08T10:05:13Z</time>
      </trkpt>
      <trkpt lat="48.68514" lon="-0.59526">
        <ele>291.6</ele>
        <time>2013-09-08T10:05:24Z</time>
      </trkpt>
      <trkpt lat="48.68517" lon="-0.59518">
        <ele>291.6</ele>
        <time>2013-09-08T10:05:25Z</time>
      </trkpt>
      <trkpt lat="48.68518" lon="-0.5951">
        <ele>291.4</ele>
        <time>2013-09-08T10:05:26Z</time>
      </trkpt>
      <trkpt lat="48.6852" lon="-0.59502">
        <ele>291.4</ele>
        <time>2013-09-08T10:05:27Z</time>
      </trkpt>
      <trkpt lat="48.68521" lon="-0.59493">
        <ele>291.2</ele>
        <time>2013-09-08T10:05:28Z</time>
      </trkpt>
      <trkpt lat="48.68524" lon="-0.59483">
        <ele>291.2</ele>
        <time>2013-09-08T10:05:29Z</time>
      </trkpt>
      <trkpt lat="48.68532" lon="-0.59456">
        <ele>291.2</ele>
        <time>2013-09-08T10:05:32Z</time>
      </trkpt>
      <trkpt lat="48.68537" lon="-0.59437">
        <ele>291</ele>
        <time>2013-09-08T10:05:34Z</time>
      </trkpt>
      <trkpt lat="48.68567" lon="-0.59349">
        <ele>289.6</ele>
        <time>2013-09-08T10:05:46Z</time>
      </trkpt>
      <trkpt lat="48.68571" lon="-0.59286">
        <ele>288.6</ele>
        <time>2013-09-08T10:05:58Z</time>
      </trkpt>
      <trkpt lat="48.68571" lon="-0.59281">
        <ele>288.4</ele>
        <time>2013-09-08T10:05:59Z</time>
      </trkpt>
      <trkpt lat="48.68573" lon="-0.59265">
        <ele>287.8</ele>
        <time>2013-09-08T10:06:01Z</time>
      </trkpt>
      <trkpt lat="48.68569" lon="-0.5924">
        <ele>286.4</ele>
        <time>2013-09-08T10:06:04Z</time>
      </trkpt>
      <trkpt lat="48.68568" lon="-0.59234">
        <ele>286</ele>
        <time>2013-09-08T10:06:05Z</time>
      </trkpt>
      <trkpt lat="48.68565" lon="-0.5923">
        <ele>285.6</ele>
        <time>2013-09-08T10:06:06Z</time>
      </trkpt>
      <trkpt lat="48.68551" lon="-0.59232">
        <ele>284</ele>
        <time>2013-09-08T10:06:11Z</time>
      </trkpt>
      <trkpt lat="48.68549" lon="-0.59234">
        <ele>283.8</ele>
        <time>2013-09-08T10:06:12Z</time>
      </trkpt>
      <trkpt lat="48.68547" lon="-0.59238">
        <ele>283.8</ele>
        <time>2013-09-08T10:06:13Z</time>
      </trkpt>
      <trkpt lat="48.68548" lon="-0.59244">
        <ele>283.6</ele>
        <time>2013-09-08T10:06:14Z</time>
      </trkpt>
      <trkpt lat="48.68546" lon="-0.59248">
        <ele>283.6</ele>
        <time>2013-09-08T10:06:15Z</time>
      </trkpt>
      <trkpt lat="48.68545" lon="-0.59259">
        <ele>283.4</ele>
        <time>2013-09-08T10:06:18Z</time>
      </trkpt>
      <trkpt lat="48.68543" lon="-0.5926">
        <ele>283.4</ele>
        <time>2013-09-08T10:06:19Z</time>
      </trkpt>
      <trkpt lat="48.6854" lon="-0.59263">
        <ele>283.4</ele>
        <time>2013-09-08T10:06:21Z</time>
      </trkpt>
      <trkpt lat="48.68538" lon="-0.59262">
        <ele>283.4</ele>
        <time>2013-09-08T10:06:22Z</time>
      </trkpt>
      <trkpt lat="48.68536" lon="-0.59258">
        <ele>283.4</ele>
        <time>2013-09-08T10:06:23Z</time>
      </trkpt>
      <trkpt lat="48.68534" lon="-0.59253">
        <ele>283.2</ele>
        <time>2013-09-08T10:06:24Z</time>
      </trkpt>
      <trkpt lat="48.68533" lon="-0.59247">
        <ele>282.8</ele>
        <time>2013-09-08T10:06:25Z</time>
      </trkpt>
      <trkpt lat="48.68512" lon="-0.59168">
        <ele>279.8</ele>
        <time>2013-09-08T10:06:33Z</time>
      </trkpt>
      <trkpt lat="48.68506" lon="-0.59136">
        <ele>276.6</ele>
        <time>2013-09-08T10:06:35Z</time>
      </trkpt>
      <trkpt lat="48.68497" lon="-0.59091">
        <ele>273</ele>
        <time>2013-09-08T10:06:38Z</time>
      </trkpt>
      <trkpt lat="48.68488" lon="-0.59045">
        <ele>269.8</ele>
        <time>2013-09-08T10:06:43Z</time>
      </trkpt>
      <trkpt lat="48.68488" lon="-0.5904">
        <ele>269.2</ele>
        <time>2013-09-08T10:06:46Z</time>
      </trkpt>
      <trkpt lat="48.68496" lon="-0.5904">
        <ele>268.8</ele>
        <time>2013-09-08T10:06:56Z</time>
      </trkpt>
      <trkpt lat="48.68497" lon="-0.59038">
        <ele>268.8</ele>
        <time>2013-09-08T10:07:17Z</time>
      </trkpt>
      <trkpt lat="48.68478" lon="-0.59041">
        <ele>268.8</ele>
        <time>2013-09-08T10:07:23Z</time>
      </trkpt>
      <trkpt lat="48.68474" lon="-0.59039">
        <ele>268.8</ele>
        <time>2013-09-08T10:07:24Z</time>
      </trkpt>
      <trkpt lat="48.68469" lon="-0.59038">
        <ele>268.6</ele>
        <time>2013-09-08T10:07:25Z</time>
      </trkpt>
      <trkpt lat="48.68464" lon="-0.59038">
        <ele>268.2</ele>
        <time>2013-09-08T10:07:26Z</time>
      </trkpt>
      <trkpt lat="48.68459" lon="-0.59038">
        <ele>268</ele>
        <time>2013-09-08T10:07:27Z</time>
      </trkpt>
      <trkpt lat="48.68455" lon="-0.59039">
        <ele>267.8</ele>
        <time>2013-09-08T10:07:28Z</time>
      </trkpt>
      <trkpt lat="48.68429" lon="-0.59041">
        <ele>265.2</ele>
        <time>2013-09-08T10:07:34Z</time>
      </trkpt>
      <trkpt lat="48.68423" lon="-0.59042">
        <ele>264.8</ele>
        <time>2013-09-08T10:07:35Z</time>
      </trkpt>
      <trkpt lat="48.68417" lon="-0.59041">
        <ele>264.4</ele>
        <time>2013-09-08T10:07:36Z</time>
      </trkpt>
      <trkpt lat="48.68398" lon="-0.59038">
        <ele>263</ele>
        <time>2013-09-08T10:07:39Z</time>
      </trkpt>
      <trkpt lat="48.68369" lon="-0.59023">
        <ele>260.4</ele>
        <time>2013-09-08T10:07:44Z</time>
      </trkpt>
      <trkpt lat="48.68332" lon="-0.59032">
        <ele>257.2</ele>
        <time>2013-09-08T10:07:53Z</time>
      </trkpt>
      <trkpt lat="48.68314" lon="-0.59031">
        <ele>255.6</ele>
        <time>2013-09-08T10:07:56Z</time>
      </trkpt>
      <trkpt lat="48.68267" lon="-0.59014">
        <ele>252</ele>
        <time>2013-09-08T10:08:06Z</time>
      </trkpt>
      <trkpt lat="48.68257" lon="-0.59008">
        <ele>251.6</ele>
        <time>2013-09-08T10:08:08Z</time>
      </trkpt>
      <trkpt lat="48.68219" lon="-0.58992">
        <ele>251</ele>
        <time>2013-09-08T10:08:18Z</time>
      </trkpt>
      <trkpt lat="48.68174" lon="-0.58975">
        <ele>250.2</ele>
        <time>2013-09-08T10:08:27Z</time>
      </trkpt>
      <trkpt lat="48.68148" lon="-0.58957">
        <ele>250.2</ele>
        <time>2013-09-08T10:08:32Z</time>
      </trkpt>
      <trkpt lat="48.68134" lon="-0.58943">
        <ele>249.8</ele>
        <time>2013-09-08T10:08:35Z</time>
      </trkpt>
      <trkpt lat="48.68104" lon="-0.58908">
        <ele>249.2</ele>
        <time>2013-09-08T10:08:41Z</time>
      </trkpt>
      <trkpt lat="48.68045" lon="-0.58811">
        <ele>247.4</ele>
        <time>2013-09-08T10:08:56Z</time>
      </trkpt>
      <trkpt lat="48.67984" lon="-0.58719">
        <ele>245</ele>
        <time>2013-09-08T10:09:10Z</time>
      </trkpt>
      <trkpt lat="48.67971" lon="-0.58705">
        <ele>244.8</ele>
        <time>2013-09-08T10:09:13Z</time>
      </trkpt>
      <trkpt lat="48.67903" lon="-0.58674">
        <ele>243.8</ele>
        <time>2013-09-08T10:09:23Z</time>
      </trkpt>
      <trkpt lat="48.67887" lon="-0.58674">
        <ele>243.4</ele>
        <time>2013-09-08T10:09:26Z</time>
      </trkpt>
      <trkpt lat="48.6786" lon="-0.58677">
        <ele>243.2</ele>
        <time>2013-09-08T10:09:30Z</time>
      </trkpt>
      <trkpt lat="48.67853" lon="-0.58677">
        <ele>243.2</ele>
        <time>2013-09-08T10:09:31Z</time>
      </trkpt>
      <trkpt lat="48.67791" lon="-0.58676">
        <ele>242.2</ele>
        <time>2013-09-08T10:09:40Z</time>
      </trkpt>
      <trkpt lat="48.67748" lon="-0.58658">
        <ele>241</ele>
        <time>2013-09-08T10:09:47Z</time>
      </trkpt>
      <trkpt lat="48.67731" lon="-0.58642">
        <ele>240.8</ele>
        <time>2013-09-08T10:09:50Z</time>
      </trkpt>
      <trkpt lat="48.67699" lon="-0.58607">
        <ele>240.6</ele>
        <time>2013-09-08T10:09:56Z</time>
      </trkpt>
      <trkpt lat="48.67668" lon="-0.5855">
        <ele>239.6</ele>
        <time>2013-09-08T10:10:04Z</time>
      </trkpt>
      <trkpt lat="48.67661" lon="-0.58533">
        <ele>239.2</ele>
        <time>2013-09-08T10:10:06Z</time>
      </trkpt>
      <trkpt lat="48.67639" lon="-0.58415">
        <ele>238.4</ele>
        <time>2013-09-08T10:10:18Z</time>
      </trkpt>
      <trkpt lat="48.67628" lon="-0.58367">
        <ele>238.2</ele>
        <time>2013-09-08T10:10:23Z</time>
      </trkpt>
      <trkpt lat="48.67622" lon="-0.58357">
        <ele>238</ele>
        <time>2013-09-08T10:10:24Z</time>
      </trkpt>
      <trkpt lat="48.67616" lon="-0.58339">
        <ele>237.8</ele>
        <time>2013-09-08T10:10:26Z</time>
      </trkpt>
      <trkpt lat="48.67595" lon="-0.58297">
        <ele>237.4</ele>
        <time>2013-09-08T10:10:31Z</time>
      </trkpt>
      <trkpt lat="48.67553" lon="-0.58237">
        <ele>236.6</ele>
        <time>2013-09-08T10:10:40Z</time>
      </trkpt>
      <trkpt lat="48.67532" lon="-0.58219">
        <ele>236.4</ele>
        <time>2013-09-08T10:10:44Z</time>
      </trkpt>
      <trkpt lat="48.675" lon="-0.58201">
        <ele>236.4</ele>
        <time>2013-09-08T10:10:50Z</time>
      </trkpt>
      <trkpt lat="48.67495" lon="-0.582">
        <ele>236.4</ele>
        <time>2013-09-08T10:10:51Z</time>
      </trkpt>
      <trkpt lat="48.67489" lon="-0.58198">
        <ele>236.2</ele>
        <time>2013-09-08T10:10:52Z</time>
      </trkpt>
      <trkpt lat="48.67483" lon="-0.58197">
        <ele>236.2</ele>
        <time>2013-09-08T10:10:53Z</time>
      </trkpt>
      <trkpt lat="48.67478" lon="-0.58196">
        <ele>235.8</ele>
        <time>2013-09-08T10:10:54Z</time>
      </trkpt>
      <trkpt lat="48.67406" lon="-0.58197">
        <ele>235.4</ele>
        <time>2013-09-08T10:11:06Z</time>
      </trkpt>
      <trkpt lat="48.67393" lon="-0.58191">
        <ele>235.6</ele>
        <time>2013-09-08T10:11:08Z</time>
      </trkpt>
      <trkpt lat="48.67323" lon="-0.58197">
        <ele>235.8</ele>
        <time>2013-09-08T10:11:19Z</time>
      </trkpt>
      <trkpt lat="48.67242" lon="-0.58205">
        <ele>235.6</ele>
        <time>2013-09-08T10:11:32Z</time>
      </trkpt>
      <trkpt lat="48.67213" lon="-0.58204">
        <ele>235.2</ele>
        <time>2013-09-08T10:11:39Z</time>
      </trkpt>
      <trkpt lat="48.67208" lon="-0.5821">
        <ele>235.4</ele>
        <time>2013-09-08T10:11:44Z</time>
      </trkpt>
      <trkpt lat="48.672" lon="-0.58208">
        <ele>235.6</ele>
        <time>2013-09-08T10:11:48Z</time>
      </trkpt>
      <trkpt lat="48.67197" lon="-0.58209">
        <ele>235.6</ele>
        <time>2013-09-08T10:11:49Z</time>
      </trkpt>
      <trkpt lat="48.67185" lon="-0.58212">
        <ele>235.8</ele>
        <time>2013-09-08T10:11:52Z</time>
      </trkpt>
      <trkpt lat="48.6718" lon="-0.58211">
        <ele>235.8</ele>
        <time>2013-09-08T10:11:53Z</time>
      </trkpt>
      <trkpt lat="48.67106" lon="-0.58231">
        <ele>235</ele>
        <time>2013-09-08T10:12:07Z</time>
      </trkpt>
      <trkpt lat="48.67034" lon="-0.5824">
        <ele>234.4</ele>
        <time>2013-09-08T10:12:20Z</time>
      </trkpt>
      <trkpt lat="48.67028" lon="-0.58241">
        <ele>234.4</ele>
        <time>2013-09-08T10:12:21Z</time>
      </trkpt>
      <trkpt lat="48.66936" lon="-0.58236">
        <ele>233.8</ele>
        <time>2013-09-08T10:12:35Z</time>
      </trkpt>
      <trkpt lat="48.66863" lon="-0.58216">
        <ele>233.8</ele>
        <time>2013-09-08T10:12:47Z</time>
      </trkpt>
      <trkpt lat="48.66857" lon="-0.58214">
        <ele>233.8</ele>
        <time>2013-09-08T10:12:48Z</time>
      </trkpt>
      <trkpt lat="48.66802" lon="-0.58179">
        <ele>233.6</ele>
        <time>2013-09-08T10:12:58Z</time>
      </trkpt>
      <trkpt lat="48.66782" lon="-0.58168">
        <ele>233.6</ele>
        <time>2013-09-08T10:13:01Z</time>
      </trkpt>
      <trkpt lat="48.66706" lon="-0.58111">
        <ele>233.8</ele>
        <time>2013-09-08T10:13:15Z</time>
      </trkpt>
      <trkpt lat="48.66658" lon="-0.58066">
        <ele>233.6</ele>
        <time>2013-09-08T10:13:26Z</time>
      </trkpt>
      <trkpt lat="48.66634" lon="-0.58048">
        <ele>233.4</ele>
        <time>2013-09-08T10:13:31Z</time>
      </trkpt>
      <trkpt lat="48.6656" lon="-0.58008">
        <ele>233.2</ele>
        <time>2013-09-08T10:13:42Z</time>
      </trkpt>
      <trkpt lat="48.66524" lon="-0.57992">
        <ele>233</ele>
        <time>2013-09-08T10:13:49Z</time>
      </trkpt>
      <trkpt lat="48.66505" lon="-0.57994">
        <ele>233.4</ele>
        <time>2013-09-08T10:13:54Z</time>
      </trkpt>
      <trkpt lat="48.665" lon="-0.57993">
        <ele>233.4</ele>
        <time>2013-09-08T10:13:55Z</time>
      </trkpt>
      <trkpt lat="48.66494" lon="-0.57992">
        <ele>233.4</ele>
        <time>2013-09-08T10:13:56Z</time>
      </trkpt>
      <trkpt lat="48.66482" lon="-0.57988">
        <ele>233.2</ele>
        <time>2013-09-08T10:13:58Z</time>
      </trkpt>
      <trkpt lat="48.66412" lon="-0.57986">
        <ele>232.6</ele>
        <time>2013-09-08T10:14:09Z</time>
      </trkpt>
      <trkpt lat="48.66327" lon="-0.57993">
        <ele>232.2</ele>
        <time>2013-09-08T10:14:23Z</time>
      </trkpt>
      <trkpt lat="48.66245" lon="-0.57996">
        <ele>231.4</ele>
        <time>2013-09-08T10:14:36Z</time>
      </trkpt>
      <trkpt lat="48.66153" lon="-0.58004">
        <ele>231.4</ele>
        <time>2013-09-08T10:14:49Z</time>
      </trkpt>
      <trkpt lat="48.66141" lon="-0.58004">
        <ele>231.4</ele>
        <time>2013-09-08T10:14:51Z</time>
      </trkpt>
      <trkpt lat="48.66077" lon="-0.58009">
        <ele>231.2</ele>
        <time>2013-09-08T10:15:02Z</time>
      </trkpt>
      <trkpt lat="48.66004" lon="-0.58015">
        <ele>230.4</ele>
        <time>2013-09-08T10:15:14Z</time>
      </trkpt>
      <trkpt lat="48.65952" lon="-0.58026">
        <ele>229.4</ele>
        <time>2013-09-08T10:15:23Z</time>
      </trkpt>
      <trkpt lat="48.65876" lon="-0.5803">
        <ele>229.6</ele>
        <time>2013-09-08T10:15:35Z</time>
      </trkpt>
      <trkpt lat="48.65803" lon="-0.58034">
        <ele>229.4</ele>
        <time>2013-09-08T10:15:47Z</time>
      </trkpt>
      <trkpt lat="48.65762" lon="-0.58039">
        <ele>229.2</ele>
        <time>2013-09-08T10:15:54Z</time>
      </trkpt>
      <trkpt lat="48.65685" lon="-0.58049">
        <ele>228.8</ele>
        <time>2013-09-08T10:16:07Z</time>
      </trkpt>
      <trkpt lat="48.65652" lon="-0.58048">
        <ele>229</ele>
        <time>2013-09-08T10:16:11Z</time>
      </trkpt>
      <trkpt lat="48.65568" lon="-0.58049">
        <ele>229.4</ele>
        <time>2013-09-08T10:16:24Z</time>
      </trkpt>
      <trkpt lat="48.6555" lon="-0.58053">
        <ele>229.2</ele>
        <time>2013-09-08T10:16:27Z</time>
      </trkpt>
      <trkpt lat="48.65454" lon="-0.58068">
        <ele>228.6</ele>
        <time>2013-09-08T10:16:41Z</time>
      </trkpt>
      <trkpt lat="48.65402" lon="-0.58086">
        <ele>228.4</ele>
        <time>2013-09-08T10:16:49Z</time>
      </trkpt>
      <trkpt lat="48.65299" lon="-0.5813">
        <ele>227.4</ele>
        <time>2013-09-08T10:17:06Z</time>
      </trkpt>
      <trkpt lat="48.65219" lon="-0.58157">
        <ele>227.4</ele>
        <time>2013-09-08T10:17:19Z</time>
      </trkpt>
      <trkpt lat="48.65174" lon="-0.58159">
        <ele>227.2</ele>
        <time>2013-09-08T10:17:25Z</time>
      </trkpt>
      <trkpt lat="48.65091" lon="-0.58151">
        <ele>226.8</ele>
        <time>2013-09-08T10:17:38Z</time>
      </trkpt>
      <trkpt lat="48.65077" lon="-0.58149">
        <ele>227</ele>
        <time>2013-09-08T10:17:41Z</time>
      </trkpt>
      <trkpt lat="48.65065" lon="-0.58147">
        <ele>227.2</ele>
        <time>2013-09-08T10:17:44Z</time>
      </trkpt>
      <trkpt lat="48.65027" lon="-0.58131">
        <ele>227.2</ele>
        <time>2013-09-08T10:17:54Z</time>
      </trkpt>
      <trkpt lat="48.64981" lon="-0.5811">
        <ele>227.2</ele>
        <time>2013-09-08T10:18:07Z</time>
      </trkpt>
      <trkpt lat="48.6498" lon="-0.58109">
        <ele>227.4</ele>
        <time>2013-09-08T10:18:12Z</time>
      </trkpt>
      <trkpt lat="48.64975" lon="-0.58114">
        <ele>228</ele>
        <time>2013-09-08T10:18:49Z</time>
      </trkpt>
      <trkpt lat="48.64947" lon="-0.58103">
        <ele>227.8</ele>
        <time>2013-09-08T10:19:01Z</time>
      </trkpt>
      <trkpt lat="48.64938" lon="-0.58096">
        <ele>227.8</ele>
        <time>2013-09-08T10:19:05Z</time>
      </trkpt>
      <trkpt lat="48.64937" lon="-0.58098">
        <ele>227.6</ele>
        <time>2013-09-08T10:19:06Z</time>
      </trkpt>
      <trkpt lat="48.64928" lon="-0.58096">
        <ele>227.6</ele>
        <time>2013-09-08T10:19:11Z</time>
      </trkpt>
      <trkpt lat="48.64925" lon="-0.58094">
        <ele>227.4</ele>
        <time>2013-09-08T10:19:12Z</time>
      </trkpt>
      <trkpt lat="48.64921" lon="-0.58093">
        <ele>227.4</ele>
        <time>2013-09-08T10:19:13Z</time>
      </trkpt>
      <trkpt lat="48.64917" lon="-0.58091">
        <ele>227.4</ele>
        <time>2013-09-08T10:19:14Z</time>
      </trkpt>
      <trkpt lat="48.64913" lon="-0.5809">
        <ele>227.4</ele>
        <time>2013-09-08T10:19:15Z</time>
      </trkpt>
      <trkpt lat="48.64909" lon="-0.58088">
        <ele>227.2</ele>
        <time>2013-09-08T10:19:16Z</time>
      </trkpt>
      <trkpt lat="48.64841" lon="-0.58067">
        <ele>227.4</ele>
        <time>2013-09-08T10:19:33Z</time>
      </trkpt>
      <trkpt lat="48.64815" lon="-0.58059">
        <ele>227.2</ele>
        <time>2013-09-08T10:19:39Z</time>
      </trkpt>
      <trkpt lat="48.64772" lon="-0.58048">
        <ele>227.6</ele>
        <time>2013-09-08T10:19:51Z</time>
      </trkpt>
      <trkpt lat="48.64763" lon="-0.58045">
        <ele>227.6</ele>
        <time>2013-09-08T10:19:53Z</time>
      </trkpt>
      <trkpt lat="48.64745" lon="-0.58039">
        <ele>227.6</ele>
        <time>2013-09-08T10:19:57Z</time>
      </trkpt>
      <trkpt lat="48.64701" lon="-0.58021">
        <ele>227.6</ele>
        <time>2013-09-08T10:20:06Z</time>
      </trkpt>
      <trkpt lat="48.64666" lon="-0.5801">
        <ele>227.2</ele>
        <time>2013-09-08T10:20:13Z</time>
      </trkpt>
      <trkpt lat="48.64595" lon="-0.58">
        <ele>226.4</ele>
        <time>2013-09-08T10:20:26Z</time>
      </trkpt>
      <trkpt lat="48.6459" lon="-0.58">
        <ele>226.4</ele>
        <time>2013-09-08T10:20:27Z</time>
      </trkpt>
      <trkpt lat="48.6451" lon="-0.58028">
        <ele>225.8</ele>
        <time>2013-09-08T10:20:41Z</time>
      </trkpt>
      <trkpt lat="48.64452" lon="-0.58065">
        <ele>225.8</ele>
        <time>2013-09-08T10:20:55Z</time>
      </trkpt>
      <trkpt lat="48.6445" lon="-0.58081">
        <ele>226.4</ele>
        <time>2013-09-08T10:21:05Z</time>
      </trkpt>
      <trkpt lat="48.64452" lon="-0.58091">
        <ele>226.2</ele>
        <time>2013-09-08T10:22:47Z</time>
      </trkpt>
      <trkpt lat="48.64435" lon="-0.58109">
        <ele>226</ele>
        <time>2013-09-08T10:22:55Z</time>
      </trkpt>
      <trkpt lat="48.64427" lon="-0.58118">
        <ele>226</ele>
        <time>2013-09-08T10:22:57Z</time>
      </trkpt>
      <trkpt lat="48.64371" lon="-0.58195">
        <ele>225</ele>
        <time>2013-09-08T10:23:10Z</time>
      </trkpt>
      <trkpt lat="48.64317" lon="-0.58283">
        <ele>224.6</ele>
        <time>2013-09-08T10:23:22Z</time>
      </trkpt>
      <trkpt lat="48.64267" lon="-0.58378">
        <ele>224.4</ele>
        <time>2013-09-08T10:23:35Z</time>
      </trkpt>
      <trkpt lat="48.64225" lon="-0.58448">
        <ele>224.2</ele>
        <time>2013-09-08T10:23:45Z</time>
      </trkpt>
      <trkpt lat="48.64177" lon="-0.58551">
        <ele>223.6</ele>
        <time>2013-09-08T10:23:58Z</time>
      </trkpt>
      <trkpt lat="48.6416" lon="-0.58586">
        <ele>223.2</ele>
        <time>2013-09-08T10:24:03Z</time>
      </trkpt>
      <trkpt lat="48.64142" lon="-0.58622">
        <ele>223</ele>
        <time>2013-09-08T10:24:09Z</time>
      </trkpt>
      <trkpt lat="48.64133" lon="-0.58637">
        <ele>223</ele>
        <time>2013-09-08T10:24:12Z</time>
      </trkpt>
      <trkpt lat="48.6413" lon="-0.58643">
        <ele>222.8</ele>
        <time>2013-09-08T10:24:13Z</time>
      </trkpt>
      <trkpt lat="48.64128" lon="-0.58649">
        <ele>222.8</ele>
        <time>2013-09-08T10:24:14Z</time>
      </trkpt>
      <trkpt lat="48.64127" lon="-0.58653">
        <ele>222.8</ele>
        <time>2013-09-08T10:24:15Z</time>
      </trkpt>
      <trkpt lat="48.64126" lon="-0.58657">
        <ele>223</ele>
        <time>2013-09-08T10:24:16Z</time>
      </trkpt>
      <trkpt lat="48.64125" lon="-0.5866">
        <ele>223</ele>
        <time>2013-09-08T10:24:17Z</time>
      </trkpt>
      <trkpt lat="48.64124" lon="-0.58662">
        <ele>223</ele>
        <time>2013-09-08T10:24:18Z</time>
      </trkpt>
      <trkpt lat="48.64123" lon="-0.58665">
        <ele>223</ele>
        <time>2013-09-08T10:24:19Z</time>
      </trkpt>
      <trkpt lat="48.64115" lon="-0.58671">
        <ele>223</ele>
        <time>2013-09-08T10:24:20Z</time>
      </trkpt>
      <trkpt lat="48.64107" lon="-0.58678">
        <ele>223.2</ele>
        <time>2013-09-08T10:24:21Z</time>
      </trkpt>
      <trkpt lat="48.64105" lon="-0.58682">
        <ele>223.2</ele>
        <time>2013-09-08T10:24:22Z</time>
      </trkpt>
      <trkpt lat="48.64102" lon="-0.58686">
        <ele>223.2</ele>
        <time>2013-09-08T10:24:23Z</time>
      </trkpt>
      <trkpt lat="48.64099" lon="-0.5869">
        <ele>223.2</ele>
        <time>2013-09-08T10:24:24Z</time>
      </trkpt>
      <trkpt lat="48.64094" lon="-0.58695">
        <ele>223.2</ele>
        <time>2013-09-08T10:24:25Z</time>
      </trkpt>
      <trkpt lat="48.64091" lon="-0.58701">
        <ele>223.2</ele>
        <time>2013-09-08T10:24:26Z</time>
      </trkpt>
      <trkpt lat="48.64089" lon="-0.58707">
        <ele>223.2</ele>
        <time>2013-09-08T10:24:27Z</time>
      </trkpt>
      <trkpt lat="48.64061" lon="-0.58766">
        <ele>223</ele>
        <time>2013-09-08T10:24:36Z</time>
      </trkpt>
      <trkpt lat="48.64015" lon="-0.58863">
        <ele>222.8</ele>
        <time>2013-09-08T10:24:50Z</time>
      </trkpt>
      <trkpt lat="48.6398" lon="-0.58947">
        <ele>222.6</ele>
        <time>2013-09-08T10:25:01Z</time>
      </trkpt>
      <trkpt lat="48.63977" lon="-0.58955">
        <ele>222.6</ele>
        <time>2013-09-08T10:25:02Z</time>
      </trkpt>
      <trkpt lat="48.63968" lon="-0.58969">
        <ele>222.8</ele>
        <time>2013-09-08T10:25:04Z</time>
      </trkpt>
      <trkpt lat="48.63964" lon="-0.58976">
        <ele>222.8</ele>
        <time>2013-09-08T10:25:05Z</time>
      </trkpt>
      <trkpt lat="48.6396" lon="-0.58983">
        <ele>222.8</ele>
        <time>2013-09-08T10:25:06Z</time>
      </trkpt>
      <trkpt lat="48.63947" lon="-0.59005">
        <ele>222.6</ele>
        <time>2013-09-08T10:25:09Z</time>
      </trkpt>
      <trkpt lat="48.6391" lon="-0.5909">
        <ele>223</ele>
        <time>2013-09-08T10:25:20Z</time>
      </trkpt>
      <trkpt lat="48.63886" lon="-0.5914">
        <ele>222.6</ele>
        <time>2013-09-08T10:25:27Z</time>
      </trkpt>
      <trkpt lat="48.63862" lon="-0.59187">
        <ele>222.4</ele>
        <time>2013-09-08T10:25:34Z</time>
      </trkpt>
      <trkpt lat="48.63831" lon="-0.59255">
        <ele>222</ele>
        <time>2013-09-08T10:25:45Z</time>
      </trkpt>
      <trkpt lat="48.63747" lon="-0.59315">
        <ele>222</ele>
        <time>2013-09-08T10:25:59Z</time>
      </trkpt>
      <trkpt lat="48.63674" lon="-0.59356">
        <ele>222.2</ele>
        <time>2013-09-08T10:26:10Z</time>
      </trkpt>
      <trkpt lat="48.63665" lon="-0.5936">
        <ele>222</ele>
        <time>2013-09-08T10:26:11Z</time>
      </trkpt>
      <trkpt lat="48.63637" lon="-0.59382">
        <ele>221.8</ele>
        <time>2013-09-08T10:26:15Z</time>
      </trkpt>
      <trkpt lat="48.63569" lon="-0.59428">
        <ele>221.2</ele>
        <time>2013-09-08T10:26:26Z</time>
      </trkpt>
      <trkpt lat="48.63546" lon="-0.59446">
        <ele>220.8</ele>
        <time>2013-09-08T10:26:30Z</time>
      </trkpt>
      <trkpt lat="48.63518" lon="-0.59469">
        <ele>220.2</ele>
        <time>2013-09-08T10:26:35Z</time>
      </trkpt>
      <trkpt lat="48.63506" lon="-0.59478">
        <ele>220</ele>
        <time>2013-09-08T10:26:37Z</time>
      </trkpt>
      <trkpt lat="48.63427" lon="-0.59538">
        <ele>219</ele>
        <time>2013-09-08T10:26:50Z</time>
      </trkpt>
      <trkpt lat="48.63362" lon="-0.59592">
        <ele>218.2</ele>
        <time>2013-09-08T10:27:01Z</time>
      </trkpt>
      <trkpt lat="48.63328" lon="-0.5962">
        <ele>217.6</ele>
        <time>2013-09-08T10:27:08Z</time>
      </trkpt>
      <trkpt lat="48.63319" lon="-0.59628">
        <ele>217.4</ele>
        <time>2013-09-08T10:27:10Z</time>
      </trkpt>
      <trkpt lat="48.63313" lon="-0.59628">
        <ele>217.2</ele>
        <time>2013-09-08T10:27:11Z</time>
      </trkpt>
      <trkpt lat="48.63307" lon="-0.59626">
        <ele>217.2</ele>
        <time>2013-09-08T10:27:12Z</time>
      </trkpt>
      <trkpt lat="48.63295" lon="-0.59625">
        <ele>217.2</ele>
        <time>2013-09-08T10:27:14Z</time>
      </trkpt>
      <trkpt lat="48.6329" lon="-0.59627">
        <ele>217</ele>
        <time>2013-09-08T10:27:15Z</time>
      </trkpt>
      <trkpt lat="48.63284" lon="-0.59631">
        <ele>217</ele>
        <time>2013-09-08T10:27:16Z</time>
      </trkpt>
      <trkpt lat="48.63243" lon="-0.59657">
        <ele>216</ele>
        <time>2013-09-08T10:27:23Z</time>
      </trkpt>
      <trkpt lat="48.63239" lon="-0.59661">
        <ele>216</ele>
        <time>2013-09-08T10:27:24Z</time>
      </trkpt>
      <trkpt lat="48.63237" lon="-0.59666">
        <ele>215.8</ele>
        <time>2013-09-08T10:27:25Z</time>
      </trkpt>
      <trkpt lat="48.63235" lon="-0.5967">
        <ele>215.8</ele>
        <time>2013-09-08T10:27:26Z</time>
      </trkpt>
      <trkpt lat="48.63232" lon="-0.59675">
        <ele>215.8</ele>
        <time>2013-09-08T10:27:27Z</time>
      </trkpt>
      <trkpt lat="48.63229" lon="-0.59677">
        <ele>215.8</ele>
        <time>2013-09-08T10:27:28Z</time>
      </trkpt>
      <trkpt lat="48.63226" lon="-0.59679">
        <ele>215.8</ele>
        <time>2013-09-08T10:27:29Z</time>
      </trkpt>
      <trkpt lat="48.63225" lon="-0.59682">
        <ele>215.8</ele>
        <time>2013-09-08T10:27:30Z</time>
      </trkpt>
      <trkpt lat="48.63223" lon="-0.59684">
        <ele>215.8</ele>
        <time>2013-09-08T10:27:31Z</time>
      </trkpt>
      <trkpt lat="48.63222" lon="-0.59687">
        <ele>215.6</ele>
        <time>2013-09-08T10:27:32Z</time>
      </trkpt>
      <trkpt lat="48.63221" lon="-0.59689">
        <ele>215.6</ele>
        <time>2013-09-08T10:27:33Z</time>
      </trkpt>
      <trkpt lat="48.6322" lon="-0.59692">
        <ele>215.8</ele>
        <time>2013-09-08T10:27:34Z</time>
      </trkpt>
      <trkpt lat="48.63191" lon="-0.59716">
        <ele>216</ele>
        <time>2013-09-08T10:27:42Z</time>
      </trkpt>
      <trkpt lat="48.63186" lon="-0.59718">
        <ele>215.8</ele>
        <time>2013-09-08T10:27:43Z</time>
      </trkpt>
      <trkpt lat="48.63178" lon="-0.59723">
        <ele>215.6</ele>
        <time>2013-09-08T10:27:44Z</time>
      </trkpt>
      <trkpt lat="48.63105" lon="-0.59766">
        <ele>213.8</ele>
        <time>2013-09-08T10:27:57Z</time>
      </trkpt>
      <trkpt lat="48.63073" lon="-0.59776">
        <ele>213.2</ele>
        <time>2013-09-08T10:28:02Z</time>
      </trkpt>
      <trkpt lat="48.62979" lon="-0.5979">
        <ele>212.2</ele>
        <time>2013-09-08T10:28:14Z</time>
      </trkpt>
      <trkpt lat="48.62847" lon="-0.59765">
        <ele>210.8</ele>
        <time>2013-09-08T10:28:30Z</time>
      </trkpt>
      <trkpt lat="48.62758" lon="-0.59722">
        <ele>208.6</ele>
        <time>2013-09-08T10:28:42Z</time>
      </trkpt>
      <trkpt lat="48.62691" lon="-0.59666">
        <ele>207.2</ele>
        <time>2013-09-08T10:28:52Z</time>
      </trkpt>
      <trkpt lat="48.62666" lon="-0.59644">
        <ele>206.8</ele>
        <time>2013-09-08T10:28:56Z</time>
      </trkpt>
      <trkpt lat="48.62615" lon="-0.59602">
        <ele>206</ele>
        <time>2013-09-08T10:29:05Z</time>
      </trkpt>
      <trkpt lat="48.6261" lon="-0.59596">
        <ele>206</ele>
        <time>2013-09-08T10:29:06Z</time>
      </trkpt>
      <trkpt lat="48.62606" lon="-0.59588">
        <ele>206</ele>
        <time>2013-09-08T10:29:07Z</time>
      </trkpt>
      <trkpt lat="48.62601" lon="-0.59584">
        <ele>206</ele>
        <time>2013-09-08T10:29:08Z</time>
      </trkpt>
      <trkpt lat="48.62597" lon="-0.59581">
        <ele>206</ele>
        <time>2013-09-08T10:29:09Z</time>
      </trkpt>
      <trkpt lat="48.62594" lon="-0.59579">
        <ele>206</ele>
        <time>2013-09-08T10:29:10Z</time>
      </trkpt>
      <trkpt lat="48.6259" lon="-0.59577">
        <ele>205.8</ele>
        <time>2013-09-08T10:29:11Z</time>
      </trkpt>
      <trkpt lat="48.62588" lon="-0.59578">
        <ele>205.8</ele>
        <time>2013-09-08T10:29:12Z</time>
      </trkpt>
      <trkpt lat="48.62586" lon="-0.59577">
        <ele>205.8</ele>
        <time>2013-09-08T10:29:13Z</time>
      </trkpt>
      <trkpt lat="48.62584" lon="-0.59577">
        <ele>205.8</ele>
        <time>2013-09-08T10:29:14Z</time>
      </trkpt>
      <trkpt lat="48.62584" lon="-0.59574">
        <ele>205.8</ele>
        <time>2013-09-08T10:29:15Z</time>
      </trkpt>
      <trkpt lat="48.6258" lon="-0.5957">
        <ele>205.8</ele>
        <time>2013-09-08T10:29:20Z</time>
      </trkpt>
      <trkpt lat="48.62579" lon="-0.59568">
        <ele>206</ele>
        <time>2013-09-08T10:29:21Z</time>
      </trkpt>
      <trkpt lat="48.62577" lon="-0.59567">
        <ele>206</ele>
        <time>2013-09-08T10:29:22Z</time>
      </trkpt>
      <trkpt lat="48.62574" lon="-0.59564">
        <ele>206</ele>
        <time>2013-09-08T10:29:23Z</time>
      </trkpt>
      <trkpt lat="48.6257" lon="-0.59561">
        <ele>206</ele>
        <time>2013-09-08T10:29:24Z</time>
      </trkpt>
      <trkpt lat="48.62556" lon="-0.59552">
        <ele>205.8</ele>
        <time>2013-09-08T10:29:28Z</time>
      </trkpt>
      <trkpt lat="48.62545" lon="-0.59544">
        <ele>205.6</ele>
        <time>2013-09-08T10:29:30Z</time>
      </trkpt>
      <trkpt lat="48.6254" lon="-0.59541">
        <ele>205.6</ele>
        <time>2013-09-08T10:29:31Z</time>
      </trkpt>
      <trkpt lat="48.62535" lon="-0.59538">
        <ele>205.4</ele>
        <time>2013-09-08T10:29:32Z</time>
      </trkpt>
      <trkpt lat="48.6253" lon="-0.59533">
        <ele>205.4</ele>
        <time>2013-09-08T10:29:33Z</time>
      </trkpt>
      <trkpt lat="48.62525" lon="-0.59528">
        <ele>205.4</ele>
        <time>2013-09-08T10:29:34Z</time>
      </trkpt>
      <trkpt lat="48.62513" lon="-0.5952">
        <ele>205</ele>
        <time>2013-09-08T10:29:36Z</time>
      </trkpt>
      <trkpt lat="48.62507" lon="-0.59517">
        <ele>205</ele>
        <time>2013-09-08T10:29:37Z</time>
      </trkpt>
      <trkpt lat="48.625" lon="-0.59512">
        <ele>204.8</ele>
        <time>2013-09-08T10:29:38Z</time>
      </trkpt>
      <trkpt lat="48.62419" lon="-0.5945">
        <ele>203.4</ele>
        <time>2013-09-08T10:29:52Z</time>
      </trkpt>
      <trkpt lat="48.62354" lon="-0.59416">
        <ele>203</ele>
        <time>2013-09-08T10:30:03Z</time>
      </trkpt>
      <trkpt lat="48.62327" lon="-0.594">
        <ele>202.6</ele>
        <time>2013-09-08T10:30:07Z</time>
      </trkpt>
      <trkpt lat="48.62301" lon="-0.59388">
        <ele>202.4</ele>
        <time>2013-09-08T10:30:11Z</time>
      </trkpt>
      <trkpt lat="48.62262" lon="-0.59378">
        <ele>202.4</ele>
        <time>2013-09-08T10:30:17Z</time>
      </trkpt>
      <trkpt lat="48.62221" lon="-0.59373">
        <ele>203</ele>
        <time>2013-09-08T10:30:23Z</time>
      </trkpt>
      <trkpt lat="48.62215" lon="-0.59371">
        <ele>203</ele>
        <time>2013-09-08T10:30:24Z</time>
      </trkpt>
      <trkpt lat="48.62208" lon="-0.59371">
        <ele>203</ele>
        <time>2013-09-08T10:30:25Z</time>
      </trkpt>
      <trkpt lat="48.62202" lon="-0.59373">
        <ele>203</ele>
        <time>2013-09-08T10:30:26Z</time>
      </trkpt>
      <trkpt lat="48.62195" lon="-0.59372">
        <ele>203</ele>
        <time>2013-09-08T10:30:27Z</time>
      </trkpt>
      <trkpt lat="48.62189" lon="-0.59373">
        <ele>203</ele>
        <time>2013-09-08T10:30:28Z</time>
      </trkpt>
      <trkpt lat="48.62106" lon="-0.59392">
        <ele>203.8</ele>
        <time>2013-09-08T10:30:43Z</time>
      </trkpt>
      <trkpt lat="48.62048" lon="-0.59428">
        <ele>204</ele>
        <time>2013-09-08T10:30:54Z</time>
      </trkpt>
      <trkpt lat="48.62033" lon="-0.59439">
        <ele>204</ele>
        <time>2013-09-08T10:30:57Z</time>
      </trkpt>
      <trkpt lat="48.62026" lon="-0.59448">
        <ele>204.2</ele>
        <time>2013-09-08T10:30:59Z</time>
      </trkpt>
      <trkpt lat="48.62023" lon="-0.59453">
        <ele>204.2</ele>
        <time>2013-09-08T10:31:00Z</time>
      </trkpt>
      <trkpt lat="48.62019" lon="-0.59458">
        <ele>204.2</ele>
        <time>2013-09-08T10:31:01Z</time>
      </trkpt>
      <trkpt lat="48.62003" lon="-0.5948">
        <ele>204.2</ele>
        <time>2013-09-08T10:31:05Z</time>
      </trkpt>
      <trkpt lat="48.6196" lon="-0.59527">
        <ele>204.2</ele>
        <time>2013-09-08T10:31:14Z</time>
      </trkpt>
      <trkpt lat="48.61894" lon="-0.5959">
        <ele>203.6</ele>
        <time>2013-09-08T10:31:26Z</time>
      </trkpt>
      <trkpt lat="48.61848" lon="-0.59645">
        <ele>203.6</ele>
        <time>2013-09-08T10:31:37Z</time>
      </trkpt>
      <trkpt lat="48.61843" lon="-0.59648">
        <ele>203.6</ele>
        <time>2013-09-08T10:31:38Z</time>
      </trkpt>
      <trkpt lat="48.61839" lon="-0.5965">
        <ele>203.6</ele>
        <time>2013-09-08T10:31:39Z</time>
      </trkpt>
      <trkpt lat="48.61837" lon="-0.59653">
        <ele>203.4</ele>
        <time>2013-09-08T10:31:40Z</time>
      </trkpt>
      <trkpt lat="48.61834" lon="-0.59654">
        <ele>203.4</ele>
        <time>2013-09-08T10:31:41Z</time>
      </trkpt>
      <trkpt lat="48.61831" lon="-0.59654">
        <ele>203.4</ele>
        <time>2013-09-08T10:31:42Z</time>
      </trkpt>
      <trkpt lat="48.61828" lon="-0.59652">
        <ele>203.4</ele>
        <time>2013-09-08T10:31:43Z</time>
      </trkpt>
      <trkpt lat="48.61817" lon="-0.59656">
        <ele>203.8</ele>
        <time>2013-09-08T10:31:47Z</time>
      </trkpt>
      <trkpt lat="48.61815" lon="-0.5966">
        <ele>203.8</ele>
        <time>2013-09-08T10:31:48Z</time>
      </trkpt>
      <trkpt lat="48.61814" lon="-0.59664">
        <ele>204</ele>
        <time>2013-09-08T10:31:49Z</time>
      </trkpt>
      <trkpt lat="48.61812" lon="-0.59669">
        <ele>204.4</ele>
        <time>2013-09-08T10:31:50Z</time>
      </trkpt>
      <trkpt lat="48.61811" lon="-0.59673">
        <ele>204.6</ele>
        <time>2013-09-08T10:31:51Z</time>
      </trkpt>
      <trkpt lat="48.61809" lon="-0.59677">
        <ele>205</ele>
        <time>2013-09-08T10:31:52Z</time>
      </trkpt>
      <trkpt lat="48.61806" lon="-0.59679">
        <ele>205.4</ele>
        <time>2013-09-08T10:31:53Z</time>
      </trkpt>
      <trkpt lat="48.61796" lon="-0.59687">
        <ele>207.4</ele>
        <time>2013-09-08T10:31:57Z</time>
      </trkpt>
      <trkpt lat="48.61775" lon="-0.59693">
        <ele>210.8</ele>
        <time>2013-09-08T10:32:02Z</time>
      </trkpt>
      <trkpt lat="48.61744" lon="-0.59709">
        <ele>213.8</ele>
        <time>2013-09-08T10:32:09Z</time>
      </trkpt>
      <trkpt lat="48.61704" lon="-0.59729">
        <ele>215</ele>
        <time>2013-09-08T10:32:18Z</time>
      </trkpt>
      <trkpt lat="48.61699" lon="-0.5973">
        <ele>214.8</ele>
        <time>2013-09-08T10:32:19Z</time>
      </trkpt>
      <trkpt lat="48.61695" lon="-0.59729">
        <ele>214.8</ele>
        <time>2013-09-08T10:32:20Z</time>
      </trkpt>
      <trkpt lat="48.6169" lon="-0.59726">
        <ele>214.6</ele>
        <time>2013-09-08T10:32:21Z</time>
      </trkpt>
      <trkpt lat="48.61687" lon="-0.59722">
        <ele>214.4</ele>
        <time>2013-09-08T10:32:22Z</time>
      </trkpt>
      <trkpt lat="48.61685" lon="-0.59717">
        <ele>214.4</ele>
        <time>2013-09-08T10:32:23Z</time>
      </trkpt>
      <trkpt lat="48.61683" lon="-0.59713">
        <ele>214.2</ele>
        <time>2013-09-08T10:32:24Z</time>
      </trkpt>
      <trkpt lat="48.61666" lon="-0.59643">
        <ele>216.2</ele>
        <time>2013-09-08T10:32:37Z</time>
      </trkpt>
      <trkpt lat="48.61658" lon="-0.59585">
        <ele>219.4</ele>
        <time>2013-09-08T10:32:47Z</time>
      </trkpt>
      <trkpt lat="48.6165" lon="-0.59553">
        <ele>222</ele>
        <time>2013-09-08T10:32:53Z</time>
      </trkpt>
      <trkpt lat="48.61639" lon="-0.59502">
        <ele>225.2</ele>
        <time>2013-09-08T10:33:03Z</time>
      </trkpt>
      <trkpt lat="48.61632" lon="-0.59444">
        <ele>228.4</ele>
        <time>2013-09-08T10:33:14Z</time>
      </trkpt>
      <trkpt lat="48.61619" lon="-0.59392">
        <ele>231.6</ele>
        <time>2013-09-08T10:33:26Z</time>
      </trkpt>
      <trkpt lat="48.61603" lon="-0.5935">
        <ele>234.8</ele>
        <time>2013-09-08T10:33:38Z</time>
      </trkpt>
      <trkpt lat="48.61576" lon="-0.59334">
        <ele>237.8</ele>
        <time>2013-09-08T10:33:49Z</time>
      </trkpt>
      <trkpt lat="48.6155" lon="-0.59344">
        <ele>239.4</ele>
        <time>2013-09-08T10:33:57Z</time>
      </trkpt>
      <trkpt lat="48.61527" lon="-0.59359">
        <ele>240</ele>
        <time>2013-09-08T10:34:04Z</time>
      </trkpt>
      <trkpt lat="48.61466" lon="-0.59379">
        <ele>241.4</ele>
        <time>2013-09-08T10:34:21Z</time>
      </trkpt>
      <trkpt lat="48.61411" lon="-0.59374">
        <ele>241</ele>
        <time>2013-09-08T10:34:35Z</time>
      </trkpt>
      <trkpt lat="48.61403" lon="-0.59374">
        <ele>241</ele>
        <time>2013-09-08T10:34:37Z</time>
      </trkpt>
      <trkpt lat="48.61386" lon="-0.59371">
        <ele>240.6</ele>
        <time>2013-09-08T10:34:41Z</time>
      </trkpt>
      <trkpt lat="48.61381" lon="-0.59372">
        <ele>240.6</ele>
        <time>2013-09-08T10:34:42Z</time>
      </trkpt>
      <trkpt lat="48.61364" lon="-0.59376">
        <ele>239.6</ele>
        <time>2013-09-08T10:34:45Z</time>
      </trkpt>
      <trkpt lat="48.61358" lon="-0.59375">
        <ele>239.4</ele>
        <time>2013-09-08T10:34:46Z</time>
      </trkpt>
      <trkpt lat="48.61353" lon="-0.59371">
        <ele>239</ele>
        <time>2013-09-08T10:34:47Z</time>
      </trkpt>
      <trkpt lat="48.61348" lon="-0.59365">
        <ele>238.6</ele>
        <time>2013-09-08T10:34:48Z</time>
      </trkpt>
      <trkpt lat="48.61344" lon="-0.59359">
        <ele>238.2</ele>
        <time>2013-09-08T10:34:49Z</time>
      </trkpt>
      <trkpt lat="48.61341" lon="-0.59352">
        <ele>238</ele>
        <time>2013-09-08T10:34:50Z</time>
      </trkpt>
      <trkpt lat="48.61338" lon="-0.59346">
        <ele>237.6</ele>
        <time>2013-09-08T10:34:51Z</time>
      </trkpt>
      <trkpt lat="48.61334" lon="-0.59341">
        <ele>237.4</ele>
        <time>2013-09-08T10:34:52Z</time>
      </trkpt>
      <trkpt lat="48.61327" lon="-0.59331">
        <ele>237</ele>
        <time>2013-09-08T10:34:54Z</time>
      </trkpt>
      <trkpt lat="48.61324" lon="-0.59325">
        <ele>236.8</ele>
        <time>2013-09-08T10:34:55Z</time>
      </trkpt>
      <trkpt lat="48.61322" lon="-0.59319">
        <ele>236.6</ele>
        <time>2013-09-08T10:34:56Z</time>
      </trkpt>
      <trkpt lat="48.61321" lon="-0.59312">
        <ele>236.4</ele>
        <time>2013-09-08T10:34:57Z</time>
      </trkpt>
      <trkpt lat="48.6132" lon="-0.59305">
        <ele>236.4</ele>
        <time>2013-09-08T10:34:58Z</time>
      </trkpt>
      <trkpt lat="48.6132" lon="-0.59299">
        <ele>236.2</ele>
        <time>2013-09-08T10:34:59Z</time>
      </trkpt>
      <trkpt lat="48.61313" lon="-0.59213">
        <ele>238.4</ele>
        <time>2013-09-08T10:35:14Z</time>
      </trkpt>
      <trkpt lat="48.61298" lon="-0.59149">
        <ele>241.6</ele>
        <time>2013-09-08T10:35:26Z</time>
      </trkpt>
      <trkpt lat="48.61296" lon="-0.59082">
        <ele>244.8</ele>
        <time>2013-09-08T10:35:37Z</time>
      </trkpt>
      <trkpt lat="48.61281" lon="-0.58996">
        <ele>247.8</ele>
        <time>2013-09-08T10:35:51Z</time>
      </trkpt>
      <trkpt lat="48.61269" lon="-0.58922">
        <ele>249.8</ele>
        <time>2013-09-08T10:36:03Z</time>
      </trkpt>
      <trkpt lat="48.61257" lon="-0.58842">
        <ele>251</ele>
        <time>2013-09-08T10:36:17Z</time>
      </trkpt>
      <trkpt lat="48.61249" lon="-0.58786">
        <ele>248.8</ele>
        <time>2013-09-08T10:36:30Z</time>
      </trkpt>
      <trkpt lat="48.61244" lon="-0.58762">
        <ele>248.2</ele>
        <time>2013-09-08T10:36:40Z</time>
      </trkpt>
      <trkpt lat="48.61244" lon="-0.58761">
        <ele>248.2</ele>
        <time>2013-09-08T10:36:41Z</time>
      </trkpt>
      <trkpt lat="48.6124" lon="-0.58741">
        <ele>248.2</ele>
        <time>2013-09-08T10:39:11Z</time>
      </trkpt>
      <trkpt lat="48.61223" lon="-0.58669">
        <ele>248</ele>
        <time>2013-09-08T10:39:26Z</time>
      </trkpt>
      <trkpt lat="48.61222" lon="-0.58606">
        <ele>249</ele>
        <time>2013-09-08T10:39:36Z</time>
      </trkpt>
      <trkpt lat="48.61222" lon="-0.58499">
        <ele>252</ele>
        <time>2013-09-08T10:39:53Z</time>
      </trkpt>
      <trkpt lat="48.61221" lon="-0.58406">
        <ele>252.4</ele>
        <time>2013-09-08T10:40:08Z</time>
      </trkpt>
      <trkpt lat="48.61204" lon="-0.58305">
        <ele>253.8</ele>
        <time>2013-09-08T10:40:23Z</time>
      </trkpt>
      <trkpt lat="48.61182" lon="-0.58198">
        <ele>256.6</ele>
        <time>2013-09-08T10:40:37Z</time>
      </trkpt>
      <trkpt lat="48.6118" lon="-0.58191">
        <ele>256.8</ele>
        <time>2013-09-08T10:40:38Z</time>
      </trkpt>
      <trkpt lat="48.61179" lon="-0.58184">
        <ele>257</ele>
        <time>2013-09-08T10:40:39Z</time>
      </trkpt>
      <trkpt lat="48.61178" lon="-0.58177">
        <ele>257.2</ele>
        <time>2013-09-08T10:40:40Z</time>
      </trkpt>
      <trkpt lat="48.61177" lon="-0.5817">
        <ele>257.6</ele>
        <time>2013-09-08T10:40:41Z</time>
      </trkpt>
      <trkpt lat="48.61175" lon="-0.58163">
        <ele>257.8</ele>
        <time>2013-09-08T10:40:42Z</time>
      </trkpt>
      <trkpt lat="48.61161" lon="-0.581">
        <ele>259.4</ele>
        <time>2013-09-08T10:40:51Z</time>
      </trkpt>
      <trkpt lat="48.61157" lon="-0.58056">
        <ele>260.2</ele>
        <time>2013-09-08T10:40:57Z</time>
      </trkpt>
      <trkpt lat="48.61156" lon="-0.57995">
        <ele>261.4</ele>
        <time>2013-09-08T10:41:05Z</time>
      </trkpt>
      <trkpt lat="48.61133" lon="-0.57896">
        <ele>264</ele>
        <time>2013-09-08T10:41:20Z</time>
      </trkpt>
      <trkpt lat="48.61125" lon="-0.57854">
        <ele>265.8</ele>
        <time>2013-09-08T10:41:26Z</time>
      </trkpt>
      <trkpt lat="48.61123" lon="-0.57847">
        <ele>266.2</ele>
        <time>2013-09-08T10:41:27Z</time>
      </trkpt>
      <trkpt lat="48.61101" lon="-0.57763">
        <ele>268.6</ele>
        <time>2013-09-08T10:41:40Z</time>
      </trkpt>
      <trkpt lat="48.61069" lon="-0.57645">
        <ele>270</ele>
        <time>2013-09-08T10:41:58Z</time>
      </trkpt>
      <trkpt lat="48.61064" lon="-0.57625">
        <ele>270.4</ele>
        <time>2013-09-08T10:42:01Z</time>
      </trkpt>
      <trkpt lat="48.61058" lon="-0.57598">
        <ele>270.8</ele>
        <time>2013-09-08T10:42:05Z</time>
      </trkpt>
      <trkpt lat="48.61052" lon="-0.57555">
        <ele>271.2</ele>
        <time>2013-09-08T10:42:11Z</time>
      </trkpt>
      <trkpt lat="48.61049" lon="-0.57486">
        <ele>272</ele>
        <time>2013-09-08T10:42:20Z</time>
      </trkpt>
      <trkpt lat="48.61046" lon="-0.57391">
        <ele>272.8</ele>
        <time>2013-09-08T10:42:32Z</time>
      </trkpt>
      <trkpt lat="48.61053" lon="-0.5733">
        <ele>273.6</ele>
        <time>2013-09-08T10:42:40Z</time>
      </trkpt>
      <trkpt lat="48.61058" lon="-0.57244">
        <ele>275</ele>
        <time>2013-09-08T10:42:52Z</time>
      </trkpt>
      <trkpt lat="48.61059" lon="-0.5723">
        <ele>275.2</ele>
        <time>2013-09-08T10:42:54Z</time>
      </trkpt>
      <trkpt lat="48.6106" lon="-0.57223">
        <ele>275.6</ele>
        <time>2013-09-08T10:42:55Z</time>
      </trkpt>
      <trkpt lat="48.61063" lon="-0.57203">
        <ele>276.2</ele>
        <time>2013-09-08T10:42:58Z</time>
      </trkpt>
      <trkpt lat="48.61081" lon="-0.57105">
        <ele>279.2</ele>
        <time>2013-09-08T10:43:12Z</time>
      </trkpt>
      <trkpt lat="48.61104" lon="-0.57013">
        <ele>280.6</ele>
        <time>2013-09-08T10:43:25Z</time>
      </trkpt>
      <trkpt lat="48.61122" lon="-0.56944">
        <ele>279.8</ele>
        <time>2013-09-08T10:43:34Z</time>
      </trkpt>
      <trkpt lat="48.61152" lon="-0.56828">
        <ele>278.6</ele>
        <time>2013-09-08T10:43:49Z</time>
      </trkpt>
      <trkpt lat="48.61166" lon="-0.56686">
        <ele>279.4</ele>
        <time>2013-09-08T10:44:04Z</time>
      </trkpt>
      <trkpt lat="48.61166" lon="-0.56678">
        <ele>279.4</ele>
        <time>2013-09-08T10:44:05Z</time>
      </trkpt>
      <trkpt lat="48.61166" lon="-0.56669">
        <ele>279.6</ele>
        <time>2013-09-08T10:44:06Z</time>
      </trkpt>
      <trkpt lat="48.61167" lon="-0.56643">
        <ele>280</ele>
        <time>2013-09-08T10:44:09Z</time>
      </trkpt>
      <trkpt lat="48.61166" lon="-0.56634">
        <ele>280</ele>
        <time>2013-09-08T10:44:10Z</time>
      </trkpt>
      <trkpt lat="48.61158" lon="-0.56503">
        <ele>280.6</ele>
        <time>2013-09-08T10:44:24Z</time>
      </trkpt>
      <trkpt lat="48.61161" lon="-0.56424">
        <ele>280.4</ele>
        <time>2013-09-08T10:44:32Z</time>
      </trkpt>
      <trkpt lat="48.61174" lon="-0.56257">
        <ele>280.2</ele>
        <time>2013-09-08T10:44:49Z</time>
      </trkpt>
      <trkpt lat="48.61189" lon="-0.56113">
        <ele>278.8</ele>
        <time>2013-09-08T10:45:04Z</time>
      </trkpt>
      <trkpt lat="48.61189" lon="-0.56104">
        <ele>278.8</ele>
        <time>2013-09-08T10:45:05Z</time>
      </trkpt>
      <trkpt lat="48.61188" lon="-0.56095">
        <ele>278.6</ele>
        <time>2013-09-08T10:45:06Z</time>
      </trkpt>
      <trkpt lat="48.61186" lon="-0.56086">
        <ele>278.4</ele>
        <time>2013-09-08T10:45:07Z</time>
      </trkpt>
      <trkpt lat="48.61183" lon="-0.56077">
        <ele>278.4</ele>
        <time>2013-09-08T10:45:08Z</time>
      </trkpt>
      <trkpt lat="48.6118" lon="-0.56069">
        <ele>278.2</ele>
        <time>2013-09-08T10:45:09Z</time>
      </trkpt>
      <trkpt lat="48.61176" lon="-0.56061">
        <ele>278</ele>
        <time>2013-09-08T10:45:10Z</time>
      </trkpt>
      <trkpt lat="48.6114" lon="-0.55983">
        <ele>274.8</ele>
        <time>2013-09-08T10:45:19Z</time>
      </trkpt>
      <trkpt lat="48.61105" lon="-0.55918">
        <ele>271.8</ele>
        <time>2013-09-08T10:45:25Z</time>
      </trkpt>
      <trkpt lat="48.61061" lon="-0.55867">
        <ele>268</ele>
        <time>2013-09-08T10:45:30Z</time>
      </trkpt>
      <trkpt lat="48.61032" lon="-0.55834">
        <ele>264.6</ele>
        <time>2013-09-08T10:45:33Z</time>
      </trkpt>
      <trkpt lat="48.60999" lon="-0.55799">
        <ele>261</ele>
        <time>2013-09-08T10:45:36Z</time>
      </trkpt>
      <trkpt lat="48.60974" lon="-0.55779">
        <ele>258</ele>
        <time>2013-09-08T10:45:38Z</time>
      </trkpt>
      <trkpt lat="48.60959" lon="-0.55773">
        <ele>254.8</ele>
        <time>2013-09-08T10:45:39Z</time>
      </trkpt>
      <trkpt lat="48.60932" lon="-0.55762">
        <ele>251.2</ele>
        <time>2013-09-08T10:45:41Z</time>
      </trkpt>
      <trkpt lat="48.60912" lon="-0.55756">
        <ele>247.2</ele>
        <time>2013-09-08T10:45:43Z</time>
      </trkpt>
      <trkpt lat="48.60899" lon="-0.55754">
        <ele>243.8</ele>
        <time>2013-09-08T10:45:45Z</time>
      </trkpt>
      <trkpt lat="48.60895" lon="-0.55753">
        <ele>242.4</ele>
        <time>2013-09-08T10:45:46Z</time>
      </trkpt>
      <trkpt lat="48.60891" lon="-0.5575">
        <ele>241</ele>
        <time>2013-09-08T10:45:47Z</time>
      </trkpt>
      <trkpt lat="48.60889" lon="-0.55744">
        <ele>240</ele>
        <time>2013-09-08T10:45:48Z</time>
      </trkpt>
      <trkpt lat="48.60887" lon="-0.55737">
        <ele>239</ele>
        <time>2013-09-08T10:45:49Z</time>
      </trkpt>
      <trkpt lat="48.60887" lon="-0.5573">
        <ele>238.2</ele>
        <time>2013-09-08T10:45:50Z</time>
      </trkpt>
      <trkpt lat="48.60888" lon="-0.55722">
        <ele>237.6</ele>
        <time>2013-09-08T10:45:51Z</time>
      </trkpt>
      <trkpt lat="48.60889" lon="-0.55714">
        <ele>237</ele>
        <time>2013-09-08T10:45:52Z</time>
      </trkpt>
      <trkpt lat="48.6089" lon="-0.55641">
        <ele>233.8</ele>
        <time>2013-09-08T10:46:00Z</time>
      </trkpt>
      <trkpt lat="48.60891" lon="-0.55631">
        <ele>233.8</ele>
        <time>2013-09-08T10:46:01Z</time>
      </trkpt>
      <trkpt lat="48.60894" lon="-0.5561">
        <ele>232.8</ele>
        <time>2013-09-08T10:46:03Z</time>
      </trkpt>
      <trkpt lat="48.60897" lon="-0.556">
        <ele>232.6</ele>
        <time>2013-09-08T10:46:04Z</time>
      </trkpt>
      <trkpt lat="48.60902" lon="-0.55591">
        <ele>232.4</ele>
        <time>2013-09-08T10:46:05Z</time>
      </trkpt>
      <trkpt lat="48.60906" lon="-0.55582">
        <ele>232</ele>
        <time>2013-09-08T10:46:06Z</time>
      </trkpt>
      <trkpt lat="48.60911" lon="-0.55576">
        <ele>231.8</ele>
        <time>2013-09-08T10:46:07Z</time>
      </trkpt>
      <trkpt lat="48.60917" lon="-0.55571">
        <ele>231.4</ele>
        <time>2013-09-08T10:46:08Z</time>
      </trkpt>
      <trkpt lat="48.60923" lon="-0.55568">
        <ele>231.2</ele>
        <time>2013-09-08T10:46:09Z</time>
      </trkpt>
      <trkpt lat="48.60929" lon="-0.55568">
        <ele>231</ele>
        <time>2013-09-08T10:46:10Z</time>
      </trkpt>
      <trkpt lat="48.60935" lon="-0.55568">
        <ele>230.8</ele>
        <time>2013-09-08T10:46:11Z</time>
      </trkpt>
      <trkpt lat="48.60941" lon="-0.5557">
        <ele>230.6</ele>
        <time>2013-09-08T10:46:12Z</time>
      </trkpt>
      <trkpt lat="48.60945" lon="-0.55572">
        <ele>230.4</ele>
        <time>2013-09-08T10:46:13Z</time>
      </trkpt>
      <trkpt lat="48.60949" lon="-0.55574">
        <ele>230.4</ele>
        <time>2013-09-08T10:46:14Z</time>
      </trkpt>
      <trkpt lat="48.60991" lon="-0.55605">
        <ele>230.6</ele>
        <time>2013-09-08T10:46:24Z</time>
      </trkpt>
      <trkpt lat="48.6102" lon="-0.55623">
        <ele>232</ele>
        <time>2013-09-08T10:46:31Z</time>
      </trkpt>
      <trkpt lat="48.61024" lon="-0.55622">
        <ele>232.2</ele>
        <time>2013-09-08T10:46:32Z</time>
      </trkpt>
      <trkpt lat="48.61051" lon="-0.55621">
        <ele>233.4</ele>
        <time>2013-09-08T10:46:37Z</time>
      </trkpt>
      <trkpt lat="48.61057" lon="-0.55619">
        <ele>233.6</ele>
        <time>2013-09-08T10:46:38Z</time>
      </trkpt>
      <trkpt lat="48.61062" lon="-0.55616">
        <ele>234</ele>
        <time>2013-09-08T10:46:39Z</time>
      </trkpt>
      <trkpt lat="48.61067" lon="-0.55612">
        <ele>234.2</ele>
        <time>2013-09-08T10:46:40Z</time>
      </trkpt>
      <trkpt lat="48.61071" lon="-0.55607">
        <ele>234.4</ele>
        <time>2013-09-08T10:46:41Z</time>
      </trkpt>
      <trkpt lat="48.61074" lon="-0.55601">
        <ele>234.6</ele>
        <time>2013-09-08T10:46:42Z</time>
      </trkpt>
      <trkpt lat="48.61077" lon="-0.55595">
        <ele>234.8</ele>
        <time>2013-09-08T10:46:43Z</time>
      </trkpt>
      <trkpt lat="48.6108" lon="-0.55587">
        <ele>235</ele>
        <time>2013-09-08T10:46:44Z</time>
      </trkpt>
      <trkpt lat="48.61082" lon="-0.55579">
        <ele>235.2</ele>
        <time>2013-09-08T10:46:45Z</time>
      </trkpt>
      <trkpt lat="48.61084" lon="-0.55571">
        <ele>235.4</ele>
        <time>2013-09-08T10:46:46Z</time>
      </trkpt>
      <trkpt lat="48.61087" lon="-0.55562">
        <ele>235.6</ele>
        <time>2013-09-08T10:46:47Z</time>
      </trkpt>
      <trkpt lat="48.61088" lon="-0.55554">
        <ele>235.8</ele>
        <time>2013-09-08T10:46:48Z</time>
      </trkpt>
      <trkpt lat="48.61087" lon="-0.55547">
        <ele>235.8</ele>
        <time>2013-09-08T10:46:49Z</time>
      </trkpt>
      <trkpt lat="48.61086" lon="-0.55539">
        <ele>236</ele>
        <time>2013-09-08T10:46:50Z</time>
      </trkpt>
      <trkpt lat="48.61084" lon="-0.55533">
        <ele>236.2</ele>
        <time>2013-09-08T10:46:51Z</time>
      </trkpt>
      <trkpt lat="48.61082" lon="-0.55525">
        <ele>236.4</ele>
        <time>2013-09-08T10:46:52Z</time>
      </trkpt>
      <trkpt lat="48.61079" lon="-0.55518">
        <ele>236.8</ele>
        <time>2013-09-08T10:46:53Z</time>
      </trkpt>
      <trkpt lat="48.61076" lon="-0.55513">
        <ele>237</ele>
        <time>2013-09-08T10:46:54Z</time>
      </trkpt>
      <trkpt lat="48.61071" lon="-0.55508">
        <ele>237.2</ele>
        <time>2013-09-08T10:46:55Z</time>
      </trkpt>
      <trkpt lat="48.61065" lon="-0.55504">
        <ele>237.4</ele>
        <time>2013-09-08T10:46:56Z</time>
      </trkpt>
      <trkpt lat="48.6106" lon="-0.555">
        <ele>238.2</ele>
        <time>2013-09-08T10:46:57Z</time>
      </trkpt>
      <trkpt lat="48.61054" lon="-0.55496">
        <ele>238.6</ele>
        <time>2013-09-08T10:46:58Z</time>
      </trkpt>
      <trkpt lat="48.61036" lon="-0.55486">
        <ele>239.4</ele>
        <time>2013-09-08T10:47:01Z</time>
      </trkpt>
      <trkpt lat="48.6103" lon="-0.55479">
        <ele>239.6</ele>
        <time>2013-09-08T10:47:02Z</time>
      </trkpt>
      <trkpt lat="48.60976" lon="-0.55433">
        <ele>242.6</ele>
        <time>2013-09-08T10:47:12Z</time>
      </trkpt>
      <trkpt lat="48.60939" lon="-0.55384">
        <ele>245.6</ele>
        <time>2013-09-08T10:47:20Z</time>
      </trkpt>
      <trkpt lat="48.60931" lon="-0.5536">
        <ele>247.2</ele>
        <time>2013-09-08T10:47:23Z</time>
      </trkpt>
      <trkpt lat="48.60929" lon="-0.55351">
        <ele>247.6</ele>
        <time>2013-09-08T10:47:24Z</time>
      </trkpt>
      <trkpt lat="48.60919" lon="-0.55296">
        <ele>250.6</ele>
        <time>2013-09-08T10:47:31Z</time>
      </trkpt>
      <trkpt lat="48.60917" lon="-0.5529">
        <ele>250.8</ele>
        <time>2013-09-08T10:47:32Z</time>
      </trkpt>
      <trkpt lat="48.60913" lon="-0.55284">
        <ele>251.2</ele>
        <time>2013-09-08T10:47:33Z</time>
      </trkpt>
      <trkpt lat="48.6091" lon="-0.55279">
        <ele>251.6</ele>
        <time>2013-09-08T10:47:34Z</time>
      </trkpt>
      <trkpt lat="48.60908" lon="-0.55273">
        <ele>252</ele>
        <time>2013-09-08T10:47:35Z</time>
      </trkpt>
      <trkpt lat="48.60906" lon="-0.55267">
        <ele>252.2</ele>
        <time>2013-09-08T10:47:36Z</time>
      </trkpt>
      <trkpt lat="48.60904" lon="-0.55261">
        <ele>252.8</ele>
        <time>2013-09-08T10:47:37Z</time>
      </trkpt>
      <trkpt lat="48.60896" lon="-0.5522">
        <ele>256</ele>
        <time>2013-09-08T10:47:45Z</time>
      </trkpt>
      <trkpt lat="48.60881" lon="-0.55182">
        <ele>258.4</ele>
        <time>2013-09-08T10:47:54Z</time>
      </trkpt>
      <trkpt lat="48.60879" lon="-0.55169">
        <ele>258.6</ele>
        <time>2013-09-08T10:48:03Z</time>
      </trkpt>
      <trkpt lat="48.60872" lon="-0.55172">
        <ele>158.4</ele>
        <time>2013-09-08T13:50:09Z</time>
      </trkpt>
      <trkpt lat="48.6087" lon="-0.55167">
        <ele>158.4</ele>
        <time>2013-09-08T13:50:10Z</time>
      </trkpt>
      <trkpt lat="48.60874" lon="-0.55152">
        <ele>158.4</ele>
        <time>2013-09-08T13:50:37Z</time>
      </trkpt>
      <trkpt lat="48.60876" lon="-0.55142">
        <ele>158.6</ele>
        <time>2013-09-08T13:50:43Z</time>
      </trkpt>
      <trkpt lat="48.60885" lon="-0.55133">
        <ele>158.8</ele>
        <time>2013-09-08T13:50:48Z</time>
      </trkpt>
      <trkpt lat="48.60887" lon="-0.55132">
        <ele>158.8</ele>
        <time>2013-09-08T13:50:49Z</time>
      </trkpt>
      <trkpt lat="48.6089" lon="-0.55131">
        <ele>158.8</ele>
        <time>2013-09-08T13:50:50Z</time>
      </trkpt>
      <trkpt lat="48.60892" lon="-0.55129">
        <ele>159</ele>
        <time>2013-09-08T13:50:51Z</time>
      </trkpt>
      <trkpt lat="48.60894" lon="-0.55127">
        <ele>159.2</ele>
        <time>2013-09-08T13:50:52Z</time>
      </trkpt>
      <trkpt lat="48.60896" lon="-0.55125">
        <ele>159.2</ele>
        <time>2013-09-08T13:50:53Z</time>
      </trkpt>
      <trkpt lat="48.60899" lon="-0.5512">
        <ele>159.4</ele>
        <time>2013-09-08T13:50:56Z</time>
      </trkpt>
      <trkpt lat="48.60919" lon="-0.55111">
        <ele>159.8</ele>
        <time>2013-09-08T13:51:04Z</time>
      </trkpt>
      <trkpt lat="48.6092" lon="-0.5511">
        <ele>159.8</ele>
        <time>2013-09-08T13:51:05Z</time>
      </trkpt>
      <trkpt lat="48.60921" lon="-0.55108">
        <ele>159.8</ele>
        <time>2013-09-08T13:51:06Z</time>
      </trkpt>
      <trkpt lat="48.60921" lon="-0.55105">
        <ele>159.8</ele>
        <time>2013-09-08T13:51:07Z</time>
      </trkpt>
      <trkpt lat="48.60921" lon="-0.55103">
        <ele>159.8</ele>
        <time>2013-09-08T13:51:08Z</time>
      </trkpt>
      <trkpt lat="48.6092" lon="-0.55099">
        <ele>160</ele>
        <time>2013-09-08T13:51:09Z</time>
      </trkpt>
      <trkpt lat="48.6092" lon="-0.55095">
        <ele>160</ele>
        <time>2013-09-08T13:51:10Z</time>
      </trkpt>
      <trkpt lat="48.60917" lon="-0.5502">
        <ele>162.4</ele>
        <time>2013-09-08T13:51:28Z</time>
      </trkpt>
      <trkpt lat="48.609" lon="-0.54944">
        <ele>164</ele>
        <time>2013-09-08T13:51:44Z</time>
      </trkpt>
      <trkpt lat="48.60873" lon="-0.5485">
        <ele>165.8</ele>
        <time>2013-09-08T13:52:02Z</time>
      </trkpt>
      <trkpt lat="48.60841" lon="-0.54734">
        <ele>167.6</ele>
        <time>2013-09-08T13:52:23Z</time>
      </trkpt>
      <trkpt lat="48.60813" lon="-0.54635">
        <ele>170.8</ele>
        <time>2013-09-08T13:52:42Z</time>
      </trkpt>
      <trkpt lat="48.60794" lon="-0.54569">
        <ele>174</ele>
        <time>2013-09-08T13:52:56Z</time>
      </trkpt>
      <trkpt lat="48.60777" lon="-0.54508">
        <ele>177.2</ele>
        <time>2013-09-08T13:53:10Z</time>
      </trkpt>
      <trkpt lat="48.60761" lon="-0.54448">
        <ele>180.2</ele>
        <time>2013-09-08T13:53:24Z</time>
      </trkpt>
      <trkpt lat="48.60748" lon="-0.54385">
        <ele>182.2</ele>
        <time>2013-09-08T13:53:36Z</time>
      </trkpt>
      <trkpt lat="48.60718" lon="-0.54306">
        <ele>181.4</ele>
        <time>2013-09-08T13:53:50Z</time>
      </trkpt>
      <trkpt lat="48.60672" lon="-0.54224">
        <ele>178</ele>
        <time>2013-09-08T13:54:00Z</time>
      </trkpt>
      <trkpt lat="48.60633" lon="-0.54154">
        <ele>174.6</ele>
        <time>2013-09-08T13:54:07Z</time>
      </trkpt>
      <trkpt lat="48.60597" lon="-0.54091">
        <ele>171.2</ele>
        <time>2013-09-08T13:54:13Z</time>
      </trkpt>
      <trkpt lat="48.60591" lon="-0.5408">
        <ele>170.6</ele>
        <time>2013-09-08T13:54:14Z</time>
      </trkpt>
      <trkpt lat="48.60562" lon="-0.54018">
        <ele>167.6</ele>
        <time>2013-09-08T13:54:19Z</time>
      </trkpt>
      <trkpt lat="48.60558" lon="-0.54004">
        <ele>167.2</ele>
        <time>2013-09-08T13:54:20Z</time>
      </trkpt>
      <trkpt lat="48.60549" lon="-0.53926">
        <ele>164.2</ele>
        <time>2013-09-08T13:54:25Z</time>
      </trkpt>
      <trkpt lat="48.6055" lon="-0.5391">
        <ele>163.6</ele>
        <time>2013-09-08T13:54:26Z</time>
      </trkpt>
      <trkpt lat="48.60551" lon="-0.53894">
        <ele>163</ele>
        <time>2013-09-08T13:54:27Z</time>
      </trkpt>
      <trkpt lat="48.60565" lon="-0.5382">
        <ele>159.6</ele>
        <time>2013-09-08T13:54:32Z</time>
      </trkpt>
      <trkpt lat="48.60578" lon="-0.53785">
        <ele>158</ele>
        <time>2013-09-08T13:54:35Z</time>
      </trkpt>
      <trkpt lat="48.60591" lon="-0.53759">
        <ele>157.4</ele>
        <time>2013-09-08T13:54:38Z</time>
      </trkpt>
      <trkpt lat="48.60596" lon="-0.53753">
        <ele>157.2</ele>
        <time>2013-09-08T13:54:39Z</time>
      </trkpt>
      <trkpt lat="48.60607" lon="-0.5374">
        <ele>157.6</ele>
        <time>2013-09-08T13:54:42Z</time>
      </trkpt>
      <trkpt lat="48.60636" lon="-0.53717">
        <ele>160.8</ele>
        <time>2013-09-08T13:54:52Z</time>
      </trkpt>
      <trkpt lat="48.60665" lon="-0.53692">
        <ele>163.8</ele>
        <time>2013-09-08T13:55:02Z</time>
      </trkpt>
      <trkpt lat="48.60694" lon="-0.53647">
        <ele>167</ele>
        <time>2013-09-08T13:55:13Z</time>
      </trkpt>
      <trkpt lat="48.60709" lon="-0.53605">
        <ele>170.2</ele>
        <time>2013-09-08T13:55:23Z</time>
      </trkpt>
      <trkpt lat="48.60721" lon="-0.53548">
        <ele>173.4</ele>
        <time>2013-09-08T13:55:35Z</time>
      </trkpt>
      <trkpt lat="48.60731" lon="-0.53477">
        <ele>176.6</ele>
        <time>2013-09-08T13:55:47Z</time>
      </trkpt>
      <trkpt lat="48.60735" lon="-0.53453">
        <ele>178.2</ele>
        <time>2013-09-08T13:55:51Z</time>
      </trkpt>
      <trkpt lat="48.60736" lon="-0.53391">
        <ele>181.6</ele>
        <time>2013-09-08T13:56:01Z</time>
      </trkpt>
      <trkpt lat="48.6073" lon="-0.53317">
        <ele>184.8</ele>
        <time>2013-09-08T13:56:13Z</time>
      </trkpt>
      <trkpt lat="48.60724" lon="-0.53253">
        <ele>188</ele>
        <time>2013-09-08T13:56:24Z</time>
      </trkpt>
      <trkpt lat="48.60717" lon="-0.53169">
        <ele>191</ele>
        <time>2013-09-08T13:56:38Z</time>
      </trkpt>
      <trkpt lat="48.6071" lon="-0.531">
        <ele>194.2</ele>
        <time>2013-09-08T13:56:50Z</time>
      </trkpt>
      <trkpt lat="48.60701" lon="-0.53001">
        <ele>197.4</ele>
        <time>2013-09-08T13:57:07Z</time>
      </trkpt>
      <trkpt lat="48.60705" lon="-0.52966">
        <ele>198.2</ele>
        <time>2013-09-08T13:57:13Z</time>
      </trkpt>
      <trkpt lat="48.6072" lon="-0.5294">
        <ele>199</ele>
        <time>2013-09-08T13:57:19Z</time>
      </trkpt>
      <trkpt lat="48.60724" lon="-0.52936">
        <ele>199.2</ele>
        <time>2013-09-08T13:57:20Z</time>
      </trkpt>
      <trkpt lat="48.60726" lon="-0.5293">
        <ele>199.4</ele>
        <time>2013-09-08T13:57:21Z</time>
      </trkpt>
      <trkpt lat="48.60765" lon="-0.52849">
        <ele>201</ele>
        <time>2013-09-08T13:57:35Z</time>
      </trkpt>
      <trkpt lat="48.60818" lon="-0.52747">
        <ele>201.4</ele>
        <time>2013-09-08T13:57:50Z</time>
      </trkpt>
      <trkpt lat="48.60877" lon="-0.52633">
        <ele>199.8</ele>
        <time>2013-09-08T13:58:05Z</time>
      </trkpt>
      <trkpt lat="48.60967" lon="-0.52457">
        <ele>198.2</ele>
        <time>2013-09-08T13:58:27Z</time>
      </trkpt>
      <trkpt lat="48.6101" lon="-0.52374">
        <ele>195.2</ele>
        <time>2013-09-08T13:58:36Z</time>
      </trkpt>
      <trkpt lat="48.61061" lon="-0.52274">
        <ele>193.2</ele>
        <time>2013-09-08T13:58:49Z</time>
      </trkpt>
      <trkpt lat="48.61088" lon="-0.52222">
        <ele>193.6</ele>
        <time>2013-09-08T13:58:56Z</time>
      </trkpt>
      <trkpt lat="48.61132" lon="-0.52134">
        <ele>195.2</ele>
        <time>2013-09-08T13:59:09Z</time>
      </trkpt>
      <trkpt lat="48.61161" lon="-0.52077">
        <ele>198.6</ele>
        <time>2013-09-08T13:59:19Z</time>
      </trkpt>
      <trkpt lat="48.61178" lon="-0.52045">
        <ele>200.4</ele>
        <time>2013-09-08T13:59:25Z</time>
      </trkpt>
      <trkpt lat="48.61242" lon="-0.51914">
        <ele>202</ele>
        <time>2013-09-08T13:59:47Z</time>
      </trkpt>
      <trkpt lat="48.61294" lon="-0.51812">
        <ele>201</ele>
        <time>2013-09-08T14:00:04Z</time>
      </trkpt>
      <trkpt lat="48.61302" lon="-0.51788">
        <ele>200.4</ele>
        <time>2013-09-08T14:00:07Z</time>
      </trkpt>
      <trkpt lat="48.61308" lon="-0.5176">
        <ele>199.6</ele>
        <time>2013-09-08T14:00:10Z</time>
      </trkpt>
      <trkpt lat="48.61309" lon="-0.5175">
        <ele>199.2</ele>
        <time>2013-09-08T14:00:11Z</time>
      </trkpt>
      <trkpt lat="48.61309" lon="-0.5173">
        <ele>198.4</ele>
        <time>2013-09-08T14:00:13Z</time>
      </trkpt>
      <trkpt lat="48.61308" lon="-0.5171">
        <ele>197.2</ele>
        <time>2013-09-08T14:00:15Z</time>
      </trkpt>
      <trkpt lat="48.61306" lon="-0.51688">
        <ele>196.2</ele>
        <time>2013-09-08T14:00:17Z</time>
      </trkpt>
      <trkpt lat="48.61301" lon="-0.51668">
        <ele>194.8</ele>
        <time>2013-09-08T14:00:19Z</time>
      </trkpt>
      <trkpt lat="48.61297" lon="-0.51659">
        <ele>194</ele>
        <time>2013-09-08T14:00:20Z</time>
      </trkpt>
      <trkpt lat="48.61291" lon="-0.5165">
        <ele>193.4</ele>
        <time>2013-09-08T14:00:21Z</time>
      </trkpt>
      <trkpt lat="48.61284" lon="-0.51641">
        <ele>192.8</ele>
        <time>2013-09-08T14:00:22Z</time>
      </trkpt>
      <trkpt lat="48.61275" lon="-0.51634">
        <ele>192.2</ele>
        <time>2013-09-08T14:00:23Z</time>
      </trkpt>
      <trkpt lat="48.61266" lon="-0.51627">
        <ele>191.4</ele>
        <time>2013-09-08T14:00:24Z</time>
      </trkpt>
      <trkpt lat="48.61257" lon="-0.5162">
        <ele>190.8</ele>
        <time>2013-09-08T14:00:25Z</time>
      </trkpt>
      <trkpt lat="48.61239" lon="-0.51604">
        <ele>189.2</ele>
        <time>2013-09-08T14:00:27Z</time>
      </trkpt>
      <trkpt lat="48.61231" lon="-0.51594">
        <ele>188.4</ele>
        <time>2013-09-08T14:00:28Z</time>
      </trkpt>
      <trkpt lat="48.61225" lon="-0.51583">
        <ele>187.6</ele>
        <time>2013-09-08T14:00:29Z</time>
      </trkpt>
      <trkpt lat="48.61209" lon="-0.51556">
        <ele>184.2</ele>
        <time>2013-09-08T14:00:32Z</time>
      </trkpt>
      <trkpt lat="48.61198" lon="-0.51535">
        <ele>181.2</ele>
        <time>2013-09-08T14:00:37Z</time>
      </trkpt>
      <trkpt lat="48.61182" lon="-0.51514">
        <ele>179.6</ele>
        <time>2013-09-08T14:00:41Z</time>
      </trkpt>
      <trkpt lat="48.61176" lon="-0.51509">
        <ele>179.4</ele>
        <time>2013-09-08T14:00:42Z</time>
      </trkpt>
      <trkpt lat="48.6116" lon="-0.51489">
        <ele>178</ele>
        <time>2013-09-08T14:00:45Z</time>
      </trkpt>
      <trkpt lat="48.61156" lon="-0.51482">
        <ele>177.4</ele>
        <time>2013-09-08T14:00:46Z</time>
      </trkpt>
      <trkpt lat="48.61153" lon="-0.51474">
        <ele>177</ele>
        <time>2013-09-08T14:00:47Z</time>
      </trkpt>
      <trkpt lat="48.61151" lon="-0.51466">
        <ele>176.6</ele>
        <time>2013-09-08T14:00:48Z</time>
      </trkpt>
      <trkpt lat="48.61151" lon="-0.51459">
        <ele>176.2</ele>
        <time>2013-09-08T14:00:49Z</time>
      </trkpt>
      <trkpt lat="48.61152" lon="-0.51451">
        <ele>175.8</ele>
        <time>2013-09-08T14:00:50Z</time>
      </trkpt>
      <trkpt lat="48.61154" lon="-0.51445">
        <ele>175.6</ele>
        <time>2013-09-08T14:00:51Z</time>
      </trkpt>
      <trkpt lat="48.61158" lon="-0.5144">
        <ele>175.4</ele>
        <time>2013-09-08T14:00:52Z</time>
      </trkpt>
      <trkpt lat="48.61161" lon="-0.51436">
        <ele>175.2</ele>
        <time>2013-09-08T14:00:53Z</time>
      </trkpt>
      <trkpt lat="48.61164" lon="-0.51433">
        <ele>175</ele>
        <time>2013-09-08T14:00:54Z</time>
      </trkpt>
      <trkpt lat="48.61168" lon="-0.5143">
        <ele>175</ele>
        <time>2013-09-08T14:00:55Z</time>
      </trkpt>
      <trkpt lat="48.61173" lon="-0.5143">
        <ele>174.8</ele>
        <time>2013-09-08T14:00:56Z</time>
      </trkpt>
      <trkpt lat="48.61177" lon="-0.51429">
        <ele>174.8</ele>
        <time>2013-09-08T14:00:57Z</time>
      </trkpt>
      <trkpt lat="48.61181" lon="-0.5143">
        <ele>174.8</ele>
        <time>2013-09-08T14:00:58Z</time>
      </trkpt>
      <trkpt lat="48.61193" lon="-0.5143">
        <ele>174.8</ele>
        <time>2013-09-08T14:01:01Z</time>
      </trkpt>
      <trkpt lat="48.61237" lon="-0.51444">
        <ele>177.4</ele>
        <time>2013-09-08T14:01:13Z</time>
      </trkpt>
      <trkpt lat="48.61276" lon="-0.5146">
        <ele>180.8</ele>
        <time>2013-09-08T14:01:23Z</time>
      </trkpt>
      <trkpt lat="48.61315" lon="-0.51446">
        <ele>184.2</ele>
        <time>2013-09-08T14:01:35Z</time>
      </trkpt>
      <trkpt lat="48.61363" lon="-0.5143">
        <ele>187</ele>
        <time>2013-09-08T14:01:48Z</time>
      </trkpt>
      <trkpt lat="48.61369" lon="-0.51422">
        <ele>187.4</ele>
        <time>2013-09-08T14:01:50Z</time>
      </trkpt>
      <trkpt lat="48.61369" lon="-0.51417">
        <ele>187.4</ele>
        <time>2013-09-08T14:01:51Z</time>
      </trkpt>
      <trkpt lat="48.61368" lon="-0.51412">
        <ele>187.6</ele>
        <time>2013-09-08T14:01:52Z</time>
      </trkpt>
      <trkpt lat="48.61366" lon="-0.51408">
        <ele>187.8</ele>
        <time>2013-09-08T14:01:53Z</time>
      </trkpt>
      <trkpt lat="48.61362" lon="-0.51405">
        <ele>187.8</ele>
        <time>2013-09-08T14:01:54Z</time>
      </trkpt>
      <trkpt lat="48.61359" lon="-0.51403">
        <ele>188</ele>
        <time>2013-09-08T14:01:55Z</time>
      </trkpt>
      <trkpt lat="48.61355" lon="-0.51403">
        <ele>188.2</ele>
        <time>2013-09-08T14:01:56Z</time>
      </trkpt>
      <trkpt lat="48.61351" lon="-0.51402">
        <ele>188.6</ele>
        <time>2013-09-08T14:01:57Z</time>
      </trkpt>
      <trkpt lat="48.61305" lon="-0.51368">
        <ele>191.6</ele>
        <time>2013-09-08T14:02:11Z</time>
      </trkpt>
      <trkpt lat="48.61289" lon="-0.51327">
        <ele>194.6</ele>
        <time>2013-09-08T14:02:19Z</time>
      </trkpt>
      <trkpt lat="48.61288" lon="-0.51321">
        <ele>195</ele>
        <time>2013-09-08T14:02:20Z</time>
      </trkpt>
      <trkpt lat="48.61289" lon="-0.51315">
        <ele>195.4</ele>
        <time>2013-09-08T14:02:21Z</time>
      </trkpt>
      <trkpt lat="48.61289" lon="-0.51309">
        <ele>195.8</ele>
        <time>2013-09-08T14:02:22Z</time>
      </trkpt>
      <trkpt lat="48.6129" lon="-0.51302">
        <ele>196.2</ele>
        <time>2013-09-08T14:02:23Z</time>
      </trkpt>
      <trkpt lat="48.61292" lon="-0.51296">
        <ele>196.6</ele>
        <time>2013-09-08T14:02:24Z</time>
      </trkpt>
      <trkpt lat="48.61294" lon="-0.5129">
        <ele>197</ele>
        <time>2013-09-08T14:02:25Z</time>
      </trkpt>
      <trkpt lat="48.61315" lon="-0.51247">
        <ele>200.2</ele>
        <time>2013-09-08T14:02:33Z</time>
      </trkpt>
      <trkpt lat="48.61344" lon="-0.51194">
        <ele>203.4</ele>
        <time>2013-09-08T14:02:42Z</time>
      </trkpt>
      <trkpt lat="48.61384" lon="-0.51123">
        <ele>206.4</ele>
        <time>2013-09-08T14:02:53Z</time>
      </trkpt>
      <trkpt lat="48.61408" lon="-0.51077">
        <ele>208.4</ele>
        <time>2013-09-08T14:03:00Z</time>
      </trkpt>
      <trkpt lat="48.61452" lon="-0.50993">
        <ele>211.4</ele>
        <time>2013-09-08T14:03:13Z</time>
      </trkpt>
      <trkpt lat="48.61509" lon="-0.50885">
        <ele>211.8</ele>
        <time>2013-09-08T14:03:29Z</time>
      </trkpt>
      <trkpt lat="48.61558" lon="-0.50786">
        <ele>209.4</ele>
        <time>2013-09-08T14:03:44Z</time>
      </trkpt>
      <trkpt lat="48.61559" lon="-0.50782">
        <ele>209.2</ele>
        <time>2013-09-08T14:03:45Z</time>
      </trkpt>
      <trkpt lat="48.61572" lon="-0.50763">
        <ele>208.6</ele>
        <time>2013-09-08T14:03:50Z</time>
      </trkpt>
      <trkpt lat="48.61575" lon="-0.50757">
        <ele>208.6</ele>
        <time>2013-09-08T14:03:51Z</time>
      </trkpt>
      <trkpt lat="48.61578" lon="-0.50752">
        <ele>208.6</ele>
        <time>2013-09-08T14:03:52Z</time>
      </trkpt>
      <trkpt lat="48.6158" lon="-0.50747">
        <ele>208.8</ele>
        <time>2013-09-08T14:03:53Z</time>
      </trkpt>
      <trkpt lat="48.61583" lon="-0.50743">
        <ele>209</ele>
        <time>2013-09-08T14:03:54Z</time>
      </trkpt>
      <trkpt lat="48.61592" lon="-0.50729">
        <ele>210.6</ele>
        <time>2013-09-08T14:04:02Z</time>
      </trkpt>
      <trkpt lat="48.61593" lon="-0.50726">
        <ele>210.6</ele>
        <time>2013-09-08T14:04:03Z</time>
      </trkpt>
      <trkpt lat="48.61594" lon="-0.50721">
        <ele>210.8</ele>
        <time>2013-09-08T14:04:04Z</time>
      </trkpt>
      <trkpt lat="48.6163" lon="-0.50653">
        <ele>212.8</ele>
        <time>2013-09-08T14:04:14Z</time>
      </trkpt>
      <trkpt lat="48.6166" lon="-0.50596">
        <ele>215.8</ele>
        <time>2013-09-08T14:04:22Z</time>
      </trkpt>
      <trkpt lat="48.6171" lon="-0.50502">
        <ele>219</ele>
        <time>2013-09-08T14:04:35Z</time>
      </trkpt>
      <trkpt lat="48.61737" lon="-0.50451">
        <ele>219.8</ele>
        <time>2013-09-08T14:04:42Z</time>
      </trkpt>
      <trkpt lat="48.61799" lon="-0.50327">
        <ele>218.6</ele>
        <time>2013-09-08T14:04:56Z</time>
      </trkpt>
      <trkpt lat="48.61829" lon="-0.50268">
        <ele>215.2</ele>
        <time>2013-09-08T14:05:01Z</time>
      </trkpt>
      <trkpt lat="48.61853" lon="-0.50222">
        <ele>211.8</ele>
        <time>2013-09-08T14:05:05Z</time>
      </trkpt>
      <trkpt lat="48.61874" lon="-0.50184">
        <ele>209.4</ele>
        <time>2013-09-08T14:05:09Z</time>
      </trkpt>
      <trkpt lat="48.61916" lon="-0.50106">
        <ele>212.4</ele>
        <time>2013-09-08T14:05:21Z</time>
      </trkpt>
      <trkpt lat="48.61947" lon="-0.50047">
        <ele>215.4</ele>
        <time>2013-09-08T14:05:31Z</time>
      </trkpt>
      <trkpt lat="48.61997" lon="-0.49951">
        <ele>217.2</ele>
        <time>2013-09-08T14:05:46Z</time>
      </trkpt>
      <trkpt lat="48.62059" lon="-0.49832">
        <ele>214</ele>
        <time>2013-09-08T14:06:00Z</time>
      </trkpt>
      <trkpt lat="48.62114" lon="-0.49728">
        <ele>211.8</ele>
        <time>2013-09-08T14:06:13Z</time>
      </trkpt>
      <trkpt lat="48.62154" lon="-0.4965">
        <ele>215</ele>
        <time>2013-09-08T14:06:25Z</time>
      </trkpt>
      <trkpt lat="48.62157" lon="-0.49644">
        <ele>215.2</ele>
        <time>2013-09-08T14:06:26Z</time>
      </trkpt>
      <trkpt lat="48.62166" lon="-0.49626">
        <ele>216.2</ele>
        <time>2013-09-08T14:06:29Z</time>
      </trkpt>
      <trkpt lat="48.62168" lon="-0.4962">
        <ele>216.4</ele>
        <time>2013-09-08T14:06:30Z</time>
      </trkpt>
      <trkpt lat="48.62171" lon="-0.49614">
        <ele>216.6</ele>
        <time>2013-09-08T14:06:31Z</time>
      </trkpt>
      <trkpt lat="48.62207" lon="-0.49547">
        <ele>219.8</ele>
        <time>2013-09-08T14:06:43Z</time>
      </trkpt>
      <trkpt lat="48.62246" lon="-0.49472">
        <ele>223</ele>
        <time>2013-09-08T14:06:55Z</time>
      </trkpt>
      <trkpt lat="48.62271" lon="-0.49424">
        <ele>226.2</ele>
        <time>2013-09-08T14:07:04Z</time>
      </trkpt>
      <trkpt lat="48.62291" lon="-0.49389">
        <ele>228.2</ele>
        <time>2013-09-08T14:07:11Z</time>
      </trkpt>
      <trkpt lat="48.62294" lon="-0.49384">
        <ele>228.6</ele>
        <time>2013-09-08T14:07:12Z</time>
      </trkpt>
      <trkpt lat="48.62297" lon="-0.49379">
        <ele>228.8</ele>
        <time>2013-09-08T14:07:13Z</time>
      </trkpt>
      <trkpt lat="48.62312" lon="-0.49335">
        <ele>232.2</ele>
        <time>2013-09-08T14:07:21Z</time>
      </trkpt>
      <trkpt lat="48.62315" lon="-0.49326">
        <ele>234.4</ele>
        <time>2013-09-08T14:07:28Z</time>
      </trkpt>
      <trkpt lat="48.62321" lon="-0.49331">
        <ele>234.8</ele>
        <time>2013-09-08T14:07:35Z</time>
      </trkpt>
      <trkpt lat="48.6233" lon="-0.49338">
        <ele>234.6</ele>
        <time>2013-09-08T14:07:38Z</time>
      </trkpt>
      <trkpt lat="48.62343" lon="-0.49356">
        <ele>234.4</ele>
        <time>2013-09-08T14:07:42Z</time>
      </trkpt>
      <trkpt lat="48.6235" lon="-0.49366">
        <ele>234.4</ele>
        <time>2013-09-08T14:07:44Z</time>
      </trkpt>
      <trkpt lat="48.62366" lon="-0.49387">
        <ele>235</ele>
        <time>2013-09-08T14:07:49Z</time>
      </trkpt>
      <trkpt lat="48.62371" lon="-0.49397">
        <ele>235.2</ele>
        <time>2013-09-08T14:07:51Z</time>
      </trkpt>
      <trkpt lat="48.62379" lon="-0.49413">
        <ele>235.4</ele>
        <time>2013-09-08T14:07:54Z</time>
      </trkpt>
      <trkpt lat="48.62391" lon="-0.49433">
        <ele>235.4</ele>
        <time>2013-09-08T14:07:58Z</time>
      </trkpt>
      <trkpt lat="48.624" lon="-0.49442">
        <ele>235.6</ele>
        <time>2013-09-08T14:08:00Z</time>
      </trkpt>
      <trkpt lat="48.62427" lon="-0.49504">
        <ele>235.4</ele>
        <time>2013-09-08T14:08:09Z</time>
      </trkpt>
      <trkpt lat="48.6243" lon="-0.49512">
        <ele>235.4</ele>
        <time>2013-09-08T14:08:10Z</time>
      </trkpt>
      <trkpt lat="48.62437" lon="-0.49527">
        <ele>235.2</ele>
        <time>2013-09-08T14:08:12Z</time>
      </trkpt>
      <trkpt lat="48.62449" lon="-0.49557">
        <ele>234.8</ele>
        <time>2013-09-08T14:08:17Z</time>
      </trkpt>
      <trkpt lat="48.62455" lon="-0.49571">
        <ele>234.6</ele>
        <time>2013-09-08T14:08:20Z</time>
      </trkpt>
      <trkpt lat="48.62457" lon="-0.49578">
        <ele>234.6</ele>
        <time>2013-09-08T14:08:21Z</time>
      </trkpt>
      <trkpt lat="48.62464" lon="-0.49606">
        <ele>234.4</ele>
        <time>2013-09-08T14:08:25Z</time>
      </trkpt>
      <trkpt lat="48.62481" lon="-0.49669">
        <ele>234.4</ele>
        <time>2013-09-08T14:08:34Z</time>
      </trkpt>
      <trkpt lat="48.62492" lon="-0.49701">
        <ele>235</ele>
        <time>2013-09-08T14:08:39Z</time>
      </trkpt>
      <trkpt lat="48.62496" lon="-0.49722">
        <ele>235.2</ele>
        <time>2013-09-08T14:08:43Z</time>
      </trkpt>
      <trkpt lat="48.625" lon="-0.49735">
        <ele>235.4</ele>
        <time>2013-09-08T14:08:45Z</time>
      </trkpt>
      <trkpt lat="48.62512" lon="-0.49755">
        <ele>235.2</ele>
        <time>2013-09-08T14:08:49Z</time>
      </trkpt>
      <trkpt lat="48.62547" lon="-0.49813">
        <ele>235.8</ele>
        <time>2013-09-08T14:09:00Z</time>
      </trkpt>
      <trkpt lat="48.62576" lon="-0.49875">
        <ele>237.4</ele>
        <time>2013-09-08T14:09:12Z</time>
      </trkpt>
      <trkpt lat="48.62581" lon="-0.49885">
        <ele>237.6</ele>
        <time>2013-09-08T14:09:14Z</time>
      </trkpt>
      <trkpt lat="48.62589" lon="-0.49912">
        <ele>238</ele>
        <time>2013-09-08T14:09:19Z</time>
      </trkpt>
      <trkpt lat="48.62598" lon="-0.49932">
        <ele>238.2</ele>
        <time>2013-09-08T14:09:23Z</time>
      </trkpt>
      <trkpt lat="48.62601" lon="-0.49944">
        <ele>238.2</ele>
        <time>2013-09-08T14:09:25Z</time>
      </trkpt>
      <trkpt lat="48.62608" lon="-0.49963">
        <ele>238</ele>
        <time>2013-09-08T14:09:28Z</time>
      </trkpt>
      <trkpt lat="48.62611" lon="-0.49976">
        <ele>238</ele>
        <time>2013-09-08T14:09:30Z</time>
      </trkpt>
      <trkpt lat="48.62628" lon="-0.5001">
        <ele>238.2</ele>
        <time>2013-09-08T14:09:36Z</time>
      </trkpt>
      <trkpt lat="48.62634" lon="-0.5003">
        <ele>238.2</ele>
        <time>2013-09-08T14:09:39Z</time>
      </trkpt>
      <trkpt lat="48.62638" lon="-0.50049">
        <ele>238</ele>
        <time>2013-09-08T14:09:42Z</time>
      </trkpt>
      <trkpt lat="48.62642" lon="-0.5007">
        <ele>237.8</ele>
        <time>2013-09-08T14:09:45Z</time>
      </trkpt>
      <trkpt lat="48.62649" lon="-0.50113">
        <ele>237.2</ele>
        <time>2013-09-08T14:09:50Z</time>
      </trkpt>
      <trkpt lat="48.62661" lon="-0.50153">
        <ele>236.2</ele>
        <time>2013-09-08T14:09:55Z</time>
      </trkpt>
      <trkpt lat="48.62665" lon="-0.50167">
        <ele>236</ele>
        <time>2013-09-08T14:09:57Z</time>
      </trkpt>
      <trkpt lat="48.62671" lon="-0.50193">
        <ele>235.4</ele>
        <time>2013-09-08T14:10:01Z</time>
      </trkpt>
      <trkpt lat="48.6268" lon="-0.50216">
        <ele>235.2</ele>
        <time>2013-09-08T14:10:05Z</time>
      </trkpt>
      <trkpt lat="48.62694" lon="-0.50246">
        <ele>234.8</ele>
        <time>2013-09-08T14:10:11Z</time>
      </trkpt>
      <trkpt lat="48.62716" lon="-0.50306">
        <ele>234</ele>
        <time>2013-09-08T14:10:23Z</time>
      </trkpt>
      <trkpt lat="48.62736" lon="-0.50361">
        <ele>233</ele>
        <time>2013-09-08T14:10:35Z</time>
      </trkpt>
      <trkpt lat="48.62741" lon="-0.50365">
        <ele>232.8</ele>
        <time>2013-09-08T14:10:37Z</time>
      </trkpt>
      <trkpt lat="48.6275" lon="-0.50378">
        <ele>232.8</ele>
        <time>2013-09-08T14:10:41Z</time>
      </trkpt>
      <trkpt lat="48.62777" lon="-0.50426">
        <ele>232.2</ele>
        <time>2013-09-08T14:10:53Z</time>
      </trkpt>
      <trkpt lat="48.62778" lon="-0.5043">
        <ele>232.4</ele>
        <time>2013-09-08T14:10:59Z</time>
      </trkpt>
      <trkpt lat="48.62785" lon="-0.50436">
        <ele>232.4</ele>
        <time>2013-09-08T14:11:33Z</time>
      </trkpt>
      <trkpt lat="48.62809" lon="-0.50481">
        <ele>231.4</ele>
        <time>2013-09-08T14:11:46Z</time>
      </trkpt>
      <trkpt lat="48.62818" lon="-0.50497">
        <ele>231.6</ele>
        <time>2013-09-08T14:11:51Z</time>
      </trkpt>
      <trkpt lat="48.62847" lon="-0.50541">
        <ele>231.2</ele>
        <time>2013-09-08T14:12:02Z</time>
      </trkpt>
      <trkpt lat="48.62865" lon="-0.50594">
        <ele>230.8</ele>
        <time>2013-09-08T14:12:13Z</time>
      </trkpt>
      <trkpt lat="48.62875" lon="-0.50621">
        <ele>230.2</ele>
        <time>2013-09-08T14:12:18Z</time>
      </trkpt>
      <trkpt lat="48.62898" lon="-0.50685">
        <ele>229.4</ele>
        <time>2013-09-08T14:12:30Z</time>
      </trkpt>
      <trkpt lat="48.62902" lon="-0.50697">
        <ele>229</ele>
        <time>2013-09-08T14:12:32Z</time>
      </trkpt>
      <trkpt lat="48.62919" lon="-0.5072">
        <ele>228.4</ele>
        <time>2013-09-08T14:12:36Z</time>
      </trkpt>
      <trkpt lat="48.62926" lon="-0.50732">
        <ele>228.2</ele>
        <time>2013-09-08T14:12:38Z</time>
      </trkpt>
      <trkpt lat="48.62952" lon="-0.50764">
        <ele>228.4</ele>
        <time>2013-09-08T14:12:45Z</time>
      </trkpt>
      <trkpt lat="48.62968" lon="-0.50777">
        <ele>228.6</ele>
        <time>2013-09-08T14:12:49Z</time>
      </trkpt>
      <trkpt lat="48.62993" lon="-0.50784">
        <ele>229</ele>
        <time>2013-09-08T14:12:53Z</time>
      </trkpt>
      <trkpt lat="48.63012" lon="-0.50793">
        <ele>229.2</ele>
        <time>2013-09-08T14:12:57Z</time>
      </trkpt>
      <trkpt lat="48.63034" lon="-0.50815">
        <ele>229.2</ele>
        <time>2013-09-08T14:13:02Z</time>
      </trkpt>
      <trkpt lat="48.63054" lon="-0.50826">
        <ele>229.2</ele>
        <time>2013-09-08T14:13:06Z</time>
      </trkpt>
      <trkpt lat="48.63086" lon="-0.50838">
        <ele>229.8</ele>
        <time>2013-09-08T14:13:12Z</time>
      </trkpt>
      <trkpt lat="48.63112" lon="-0.5084">
        <ele>230.6</ele>
        <time>2013-09-08T14:13:17Z</time>
      </trkpt>
      <trkpt lat="48.63129" lon="-0.50842">
        <ele>231.2</ele>
        <time>2013-09-08T14:13:20Z</time>
      </trkpt>
      <trkpt lat="48.63145" lon="-0.50851">
        <ele>231.8</ele>
        <time>2013-09-08T14:13:23Z</time>
      </trkpt>
      <trkpt lat="48.63192" lon="-0.50876">
        <ele>234.2</ele>
        <time>2013-09-08T14:13:34Z</time>
      </trkpt>
      <trkpt lat="48.63204" lon="-0.50885">
        <ele>234.6</ele>
        <time>2013-09-08T14:13:37Z</time>
      </trkpt>
      <trkpt lat="48.63243" lon="-0.5093">
        <ele>236.2</ele>
        <time>2013-09-08T14:13:48Z</time>
      </trkpt>
      <trkpt lat="48.6328" lon="-0.50973">
        <ele>237</ele>
        <time>2013-09-08T14:14:00Z</time>
      </trkpt>
      <trkpt lat="48.63302" lon="-0.51012">
        <ele>237.2</ele>
        <time>2013-09-08T14:14:09Z</time>
      </trkpt>
      <trkpt lat="48.63312" lon="-0.51047">
        <ele>236.8</ele>
        <time>2013-09-08T14:14:16Z</time>
      </trkpt>
      <trkpt lat="48.63313" lon="-0.5105">
        <ele>236.6</ele>
        <time>2013-09-08T14:14:17Z</time>
      </trkpt>
      <trkpt lat="48.63332" lon="-0.51082">
        <ele>235.4</ele>
        <time>2013-09-08T14:14:31Z</time>
      </trkpt>
      <trkpt lat="48.6335" lon="-0.5111">
        <ele>234.6</ele>
        <time>2013-09-08T14:14:42Z</time>
      </trkpt>
      <trkpt lat="48.63353" lon="-0.51113">
        <ele>234</ele>
        <time>2013-09-08T14:14:48Z</time>
      </trkpt>
      <trkpt lat="48.63349" lon="-0.51117">
        <ele>233.6</ele>
        <time>2013-09-08T14:15:13Z</time>
      </trkpt>
      <trkpt lat="48.63347" lon="-0.51116">
        <ele>233.6</ele>
        <time>2013-09-08T14:15:14Z</time>
      </trkpt>
      <trkpt lat="48.63347" lon="-0.51113">
        <ele>233.4</ele>
        <time>2013-09-08T14:15:15Z</time>
      </trkpt>
      <trkpt lat="48.63345" lon="-0.5111">
        <ele>233.2</ele>
        <time>2013-09-08T14:15:16Z</time>
      </trkpt>
      <trkpt lat="48.63344" lon="-0.51107">
        <ele>233.2</ele>
        <time>2013-09-08T14:15:17Z</time>
      </trkpt>
      <trkpt lat="48.63326" lon="-0.51066">
        <ele>234.8</ele>
        <time>2013-09-08T14:15:30Z</time>
      </trkpt>
      <trkpt lat="48.63327" lon="-0.51061">
        <ele>235</ele>
        <time>2013-09-08T14:15:31Z</time>
      </trkpt>
      <trkpt lat="48.63328" lon="-0.51056">
        <ele>235</ele>
        <time>2013-09-08T14:15:32Z</time>
      </trkpt>
      <trkpt lat="48.6333" lon="-0.51051">
        <ele>235.2</ele>
        <time>2013-09-08T14:15:33Z</time>
      </trkpt>
      <trkpt lat="48.63331" lon="-0.51046">
        <ele>235.2</ele>
        <time>2013-09-08T14:15:34Z</time>
      </trkpt>
      <trkpt lat="48.63333" lon="-0.51041">
        <ele>235.4</ele>
        <time>2013-09-08T14:15:35Z</time>
      </trkpt>
      <trkpt lat="48.63346" lon="-0.5096">
        <ele>238.4</ele>
        <time>2013-09-08T14:15:49Z</time>
      </trkpt>
      <trkpt lat="48.63343" lon="-0.50896">
        <ele>241.6</ele>
        <time>2013-09-08T14:16:00Z</time>
      </trkpt>
      <trkpt lat="48.6333" lon="-0.50842">
        <ele>244.6</ele>
        <time>2013-09-08T14:16:12Z</time>
      </trkpt>
      <trkpt lat="48.63314" lon="-0.50804">
        <ele>247</ele>
        <time>2013-09-08T14:16:22Z</time>
      </trkpt>
      <trkpt lat="48.63315" lon="-0.50779">
        <ele>248.2</ele>
        <time>2013-09-08T14:16:27Z</time>
      </trkpt>
      <trkpt lat="48.63314" lon="-0.50774">
        <ele>248.4</ele>
        <time>2013-09-08T14:16:28Z</time>
      </trkpt>
      <trkpt lat="48.63314" lon="-0.5077">
        <ele>248.8</ele>
        <time>2013-09-08T14:16:29Z</time>
      </trkpt>
      <trkpt lat="48.63314" lon="-0.50766">
        <ele>249.2</ele>
        <time>2013-09-08T14:16:30Z</time>
      </trkpt>
      <trkpt lat="48.63314" lon="-0.50762">
        <ele>249.4</ele>
        <time>2013-09-08T14:16:31Z</time>
      </trkpt>
      <trkpt lat="48.63315" lon="-0.50757">
        <ele>249.8</ele>
        <time>2013-09-08T14:16:32Z</time>
      </trkpt>
      <trkpt lat="48.63315" lon="-0.50752">
        <ele>250.2</ele>
        <time>2013-09-08T14:16:33Z</time>
      </trkpt>
      <trkpt lat="48.63316" lon="-0.50713">
        <ele>253.6</ele>
        <time>2013-09-08T14:16:41Z</time>
      </trkpt>
      <trkpt lat="48.63316" lon="-0.50671">
        <ele>256.2</ele>
        <time>2013-09-08T14:16:51Z</time>
      </trkpt>
      <trkpt lat="48.6332" lon="-0.50628">
        <ele>257.8</ele>
        <time>2013-09-08T14:17:01Z</time>
      </trkpt>
      <trkpt lat="48.63337" lon="-0.50609">
        <ele>257.8</ele>
        <time>2013-09-08T14:17:11Z</time>
      </trkpt>
      <trkpt lat="48.63375" lon="-0.50651">
        <ele>257.4</ele>
        <time>2013-09-08T14:17:22Z</time>
      </trkpt>
      <trkpt lat="48.63387" lon="-0.50669">
        <ele>257.4</ele>
        <time>2013-09-08T14:17:26Z</time>
      </trkpt>
      <trkpt lat="48.63398" lon="-0.50682">
        <ele>257.4</ele>
        <time>2013-09-08T14:17:29Z</time>
      </trkpt>
      <trkpt lat="48.63409" lon="-0.50696">
        <ele>257.6</ele>
        <time>2013-09-08T14:17:32Z</time>
      </trkpt>
      <trkpt lat="48.63412" lon="-0.50702">
        <ele>257.6</ele>
        <time>2013-09-08T14:17:33Z</time>
      </trkpt>
      <trkpt lat="48.6346" lon="-0.5077">
        <ele>257.2</ele>
        <time>2013-09-08T14:17:47Z</time>
      </trkpt>
      <trkpt lat="48.63486" lon="-0.50802">
        <ele>257.4</ele>
        <time>2013-09-08T14:17:54Z</time>
      </trkpt>
      <trkpt lat="48.6349" lon="-0.50807">
        <ele>257.4</ele>
        <time>2013-09-08T14:17:55Z</time>
      </trkpt>
      <trkpt lat="48.63507" lon="-0.50832">
        <ele>257.6</ele>
        <time>2013-09-08T14:18:00Z</time>
      </trkpt>
      <trkpt lat="48.63533" lon="-0.50871">
        <ele>257.8</ele>
        <time>2013-09-08T14:18:07Z</time>
      </trkpt>
      <trkpt lat="48.63553" lon="-0.50904">
        <ele>257.8</ele>
        <time>2013-09-08T14:18:12Z</time>
      </trkpt>
      <trkpt lat="48.63563" lon="-0.50925">
        <ele>258.2</ele>
        <time>2013-09-08T14:18:15Z</time>
      </trkpt>
      <trkpt lat="48.63574" lon="-0.50943">
        <ele>258.4</ele>
        <time>2013-09-08T14:18:18Z</time>
      </trkpt>
      <trkpt lat="48.63594" lon="-0.50976">
        <ele>258.6</ele>
        <time>2013-09-08T14:18:23Z</time>
      </trkpt>
      <trkpt lat="48.63635" lon="-0.51033">
        <ele>259</ele>
        <time>2013-09-08T14:18:33Z</time>
      </trkpt>
      <trkpt lat="48.63648" lon="-0.51052">
        <ele>259.2</ele>
        <time>2013-09-08T14:18:37Z</time>
      </trkpt>
      <trkpt lat="48.63676" lon="-0.51097">
        <ele>258.6</ele>
        <time>2013-09-08T14:18:46Z</time>
      </trkpt>
      <trkpt lat="48.63683" lon="-0.51107">
        <ele>258.4</ele>
        <time>2013-09-08T14:18:48Z</time>
      </trkpt>
      <trkpt lat="48.63719" lon="-0.5115">
        <ele>258.4</ele>
        <time>2013-09-08T14:18:58Z</time>
      </trkpt>
      <trkpt lat="48.63728" lon="-0.51158">
        <ele>258.4</ele>
        <time>2013-09-08T14:19:02Z</time>
      </trkpt>
      <trkpt lat="48.6374" lon="-0.5118">
        <ele>258</ele>
        <time>2013-09-08T14:19:06Z</time>
      </trkpt>
      <trkpt lat="48.63753" lon="-0.51198">
        <ele>257.8</ele>
        <time>2013-09-08T14:19:10Z</time>
      </trkpt>
      <trkpt lat="48.63788" lon="-0.51249">
        <ele>256.6</ele>
        <time>2013-09-08T14:19:21Z</time>
      </trkpt>
      <trkpt lat="48.63816" lon="-0.51285">
        <ele>255.4</ele>
        <time>2013-09-08T14:19:29Z</time>
      </trkpt>
      <trkpt lat="48.63823" lon="-0.51297">
        <ele>255.4</ele>
        <time>2013-09-08T14:19:31Z</time>
      </trkpt>
      <trkpt lat="48.63839" lon="-0.51317">
        <ele>255</ele>
        <time>2013-09-08T14:19:35Z</time>
      </trkpt>
      <trkpt lat="48.63855" lon="-0.51341">
        <ele>254.2</ele>
        <time>2013-09-08T14:19:39Z</time>
      </trkpt>
      <trkpt lat="48.63868" lon="-0.51362">
        <ele>252.6</ele>
        <time>2013-09-08T14:19:43Z</time>
      </trkpt>
      <trkpt lat="48.63884" lon="-0.51385">
        <ele>252.2</ele>
        <time>2013-09-08T14:19:47Z</time>
      </trkpt>
      <trkpt lat="48.63893" lon="-0.51395">
        <ele>251.8</ele>
        <time>2013-09-08T14:19:49Z</time>
      </trkpt>
      <trkpt lat="48.6392" lon="-0.51431">
        <ele>250.4</ele>
        <time>2013-09-08T14:19:57Z</time>
      </trkpt>
      <trkpt lat="48.6395" lon="-0.51481">
        <ele>250.2</ele>
        <time>2013-09-08T14:20:10Z</time>
      </trkpt>
      <trkpt lat="48.63968" lon="-0.51512">
        <ele>250</ele>
        <time>2013-09-08T14:20:19Z</time>
      </trkpt>
      <trkpt lat="48.63997" lon="-0.51565">
        <ele>249.4</ele>
        <time>2013-09-08T14:20:30Z</time>
      </trkpt>
      <trkpt lat="48.64007" lon="-0.51596">
        <ele>248.2</ele>
        <time>2013-09-08T14:20:35Z</time>
      </trkpt>
      <trkpt lat="48.6402" lon="-0.51612">
        <ele>247.4</ele>
        <time>2013-09-08T14:20:40Z</time>
      </trkpt>
      <trkpt lat="48.64023" lon="-0.51613">
        <ele>247.6</ele>
        <time>2013-09-08T14:20:51Z</time>
      </trkpt>
      <trkpt lat="48.64027" lon="-0.51613">
        <ele>247.8</ele>
        <time>2013-09-08T14:20:57Z</time>
      </trkpt>
      <trkpt lat="48.64042" lon="-0.51606">
        <ele>250.8</ele>
        <time>2013-09-08T14:21:30Z</time>
      </trkpt>
      <trkpt lat="48.64067" lon="-0.51644">
        <ele>250.4</ele>
        <time>2013-09-08T14:21:41Z</time>
      </trkpt>
      <trkpt lat="48.64085" lon="-0.51687">
        <ele>249.4</ele>
        <time>2013-09-08T14:21:49Z</time>
      </trkpt>
      <trkpt lat="48.64101" lon="-0.51747">
        <ele>245.4</ele>
        <time>2013-09-08T14:21:55Z</time>
      </trkpt>
      <trkpt lat="48.64103" lon="-0.51754">
        <ele>244.8</ele>
        <time>2013-09-08T14:21:56Z</time>
      </trkpt>
      <trkpt lat="48.64111" lon="-0.51773">
        <ele>242.2</ele>
        <time>2013-09-08T14:22:01Z</time>
      </trkpt>
      <trkpt lat="48.64129" lon="-0.51774">
        <ele>240.6</ele>
        <time>2013-09-08T14:22:08Z</time>
      </trkpt>
      <trkpt lat="48.64169" lon="-0.51797">
        <ele>241.4</ele>
        <time>2013-09-08T14:22:20Z</time>
      </trkpt>
      <trkpt lat="48.64206" lon="-0.51821">
        <ele>242.2</ele>
        <time>2013-09-08T14:22:31Z</time>
      </trkpt>
      <trkpt lat="48.64229" lon="-0.51822">
        <ele>242.6</ele>
        <time>2013-09-08T14:22:37Z</time>
      </trkpt>
      <trkpt lat="48.64278" lon="-0.51819">
        <ele>244.2</ele>
        <time>2013-09-08T14:22:49Z</time>
      </trkpt>
      <trkpt lat="48.64287" lon="-0.51819">
        <ele>244.4</ele>
        <time>2013-09-08T14:22:51Z</time>
      </trkpt>
      <trkpt lat="48.64335" lon="-0.51809">
        <ele>244.6</ele>
        <time>2013-09-08T14:23:01Z</time>
      </trkpt>
      <trkpt lat="48.64358" lon="-0.51813">
        <ele>244</ele>
        <time>2013-09-08T14:23:06Z</time>
      </trkpt>
      <trkpt lat="48.64379" lon="-0.51812">
        <ele>242.8</ele>
        <time>2013-09-08T14:23:10Z</time>
      </trkpt>
      <trkpt lat="48.64396" lon="-0.51805">
        <ele>241.4</ele>
        <time>2013-09-08T14:23:13Z</time>
      </trkpt>
      <trkpt lat="48.64433" lon="-0.51774">
        <ele>238</ele>
        <time>2013-09-08T14:23:20Z</time>
      </trkpt>
      <trkpt lat="48.64455" lon="-0.5173">
        <ele>235.2</ele>
        <time>2013-09-08T14:23:26Z</time>
      </trkpt>
      <trkpt lat="48.64468" lon="-0.51704">
        <ele>233</ele>
        <time>2013-09-08T14:23:35Z</time>
      </trkpt>
      <trkpt lat="48.64488" lon="-0.51725">
        <ele>232.4</ele>
        <time>2013-09-08T14:23:47Z</time>
      </trkpt>
      <trkpt lat="48.64507" lon="-0.51737">
        <ele>229.2</ele>
        <time>2013-09-08T14:23:57Z</time>
      </trkpt>
      <trkpt lat="48.64525" lon="-0.51726">
        <ele>226</ele>
        <time>2013-09-08T14:24:05Z</time>
      </trkpt>
      <trkpt lat="48.64541" lon="-0.51721">
        <ele>223.6</ele>
        <time>2013-09-08T14:24:16Z</time>
      </trkpt>
      <trkpt lat="48.64542" lon="-0.5172">
        <ele>223.4</ele>
        <time>2013-09-08T14:24:17Z</time>
      </trkpt>
      <trkpt lat="48.6456" lon="-0.51744">
        <ele>220</ele>
        <time>2013-09-08T14:24:29Z</time>
      </trkpt>
      <trkpt lat="48.64574" lon="-0.51723">
        <ele>219</ele>
        <time>2013-09-08T14:24:39Z</time>
      </trkpt>
      <trkpt lat="48.64582" lon="-0.51708">
        <ele>218.4</ele>
        <time>2013-09-08T14:24:44Z</time>
      </trkpt>
      <trkpt lat="48.64606" lon="-0.51709">
        <ele>215</ele>
        <time>2013-09-08T14:24:56Z</time>
      </trkpt>
      <trkpt lat="48.64623" lon="-0.51717">
        <ele>211.6</ele>
        <time>2013-09-08T14:25:07Z</time>
      </trkpt>
      <trkpt lat="48.64628" lon="-0.51716">
        <ele>210.6</ele>
        <time>2013-09-08T14:25:17Z</time>
      </trkpt>
      <trkpt lat="48.64621" lon="-0.51705">
        <ele>210.6</ele>
        <time>2013-09-08T14:25:53Z</time>
      </trkpt>
      <trkpt lat="48.64622" lon="-0.51699">
        <ele>210.6</ele>
        <time>2013-09-08T14:25:55Z</time>
      </trkpt>
      <trkpt lat="48.64644" lon="-0.51664">
        <ele>207.4</ele>
        <time>2013-09-08T14:26:07Z</time>
      </trkpt>
      <trkpt lat="48.64655" lon="-0.51643">
        <ele>204.4</ele>
        <time>2013-09-08T14:26:13Z</time>
      </trkpt>
      <trkpt lat="48.64662" lon="-0.51628">
        <ele>202.4</ele>
        <time>2013-09-08T14:26:17Z</time>
      </trkpt>
      <trkpt lat="48.64663" lon="-0.51623">
        <ele>202</ele>
        <time>2013-09-08T14:26:18Z</time>
      </trkpt>
      <trkpt lat="48.64665" lon="-0.5162">
        <ele>201.6</ele>
        <time>2013-09-08T14:26:19Z</time>
      </trkpt>
      <trkpt lat="48.64669" lon="-0.51613">
        <ele>200.2</ele>
        <time>2013-09-08T14:26:22Z</time>
      </trkpt>
      <trkpt lat="48.64676" lon="-0.5161">
        <ele>198.4</ele>
        <time>2013-09-08T14:26:31Z</time>
      </trkpt>
      <trkpt lat="48.64679" lon="-0.51602">
        <ele>198.2</ele>
        <time>2013-09-08T14:26:57Z</time>
      </trkpt>
      <trkpt lat="48.64679" lon="-0.51597">
        <ele>198.2</ele>
        <time>2013-09-08T14:26:58Z</time>
      </trkpt>
      <trkpt lat="48.64679" lon="-0.51593">
        <ele>198</ele>
        <time>2013-09-08T14:26:59Z</time>
      </trkpt>
      <trkpt lat="48.64679" lon="-0.51589">
        <ele>198</ele>
        <time>2013-09-08T14:27:00Z</time>
      </trkpt>
      <trkpt lat="48.64679" lon="-0.51585">
        <ele>198.2</ele>
        <time>2013-09-08T14:27:01Z</time>
      </trkpt>
      <trkpt lat="48.6468" lon="-0.51581">
        <ele>198.2</ele>
        <time>2013-09-08T14:27:02Z</time>
      </trkpt>
      <trkpt lat="48.64681" lon="-0.51576">
        <ele>198.2</ele>
        <time>2013-09-08T14:27:03Z</time>
      </trkpt>
      <trkpt lat="48.64695" lon="-0.51545">
        <ele>199</ele>
        <time>2013-09-08T14:27:14Z</time>
      </trkpt>
      <trkpt lat="48.647" lon="-0.51542">
        <ele>198.8</ele>
        <time>2013-09-08T14:27:17Z</time>
      </trkpt>
      <trkpt lat="48.64701" lon="-0.51539">
        <ele>198.8</ele>
        <time>2013-09-08T14:27:18Z</time>
      </trkpt>
      <trkpt lat="48.64702" lon="-0.51536">
        <ele>198.8</ele>
        <time>2013-09-08T14:27:19Z</time>
      </trkpt>
      <trkpt lat="48.64704" lon="-0.51532">
        <ele>198.6</ele>
        <time>2013-09-08T14:27:20Z</time>
      </trkpt>
      <trkpt lat="48.64704" lon="-0.51528">
        <ele>198.6</ele>
        <time>2013-09-08T14:27:21Z</time>
      </trkpt>
      <trkpt lat="48.64705" lon="-0.51523">
        <ele>198.6</ele>
        <time>2013-09-08T14:27:22Z</time>
      </trkpt>
      <trkpt lat="48.64706" lon="-0.51518">
        <ele>198.6</ele>
        <time>2013-09-08T14:27:23Z</time>
      </trkpt>
      <trkpt lat="48.64706" lon="-0.51514">
        <ele>198.6</ele>
        <time>2013-09-08T14:27:24Z</time>
      </trkpt>
      <trkpt lat="48.64705" lon="-0.51509">
        <ele>198.6</ele>
        <time>2013-09-08T14:27:25Z</time>
      </trkpt>
      <trkpt lat="48.64706" lon="-0.51504">
        <ele>198.8</ele>
        <time>2013-09-08T14:27:26Z</time>
      </trkpt>
      <trkpt lat="48.64713" lon="-0.5147">
        <ele>199.8</ele>
        <time>2013-09-08T14:27:33Z</time>
      </trkpt>
      <trkpt lat="48.64716" lon="-0.51468">
        <ele>200</ele>
        <time>2013-09-08T14:27:34Z</time>
      </trkpt>
      <trkpt lat="48.6472" lon="-0.51467">
        <ele>200.2</ele>
        <time>2013-09-08T14:27:35Z</time>
      </trkpt>
      <trkpt lat="48.64756" lon="-0.51469">
        <ele>203.4</ele>
        <time>2013-09-08T14:27:45Z</time>
      </trkpt>
      <trkpt lat="48.64784" lon="-0.51474">
        <ele>206.8</ele>
        <time>2013-09-08T14:27:53Z</time>
      </trkpt>
      <trkpt lat="48.64801" lon="-0.51478">
        <ele>210</ele>
        <time>2013-09-08T14:27:59Z</time>
      </trkpt>
      <trkpt lat="48.64822" lon="-0.51483">
        <ele>213.2</ele>
        <time>2013-09-08T14:28:06Z</time>
      </trkpt>
      <trkpt lat="48.64849" lon="-0.51485">
        <ele>216.2</ele>
        <time>2013-09-08T14:28:14Z</time>
      </trkpt>
      <trkpt lat="48.64884" lon="-0.51489">
        <ele>219.6</ele>
        <time>2013-09-08T14:28:24Z</time>
      </trkpt>
      <trkpt lat="48.64919" lon="-0.51496">
        <ele>222.6</ele>
        <time>2013-09-08T14:28:34Z</time>
      </trkpt>
      <trkpt lat="48.64959" lon="-0.515">
        <ele>225.8</ele>
        <time>2013-09-08T14:28:47Z</time>
      </trkpt>
      <trkpt lat="48.65004" lon="-0.515">
        <ele>229</ele>
        <time>2013-09-08T14:29:01Z</time>
      </trkpt>
      <trkpt lat="48.65051" lon="-0.51505">
        <ele>232</ele>
        <time>2013-09-08T14:29:15Z</time>
      </trkpt>
      <trkpt lat="48.65103" lon="-0.51517">
        <ele>234</ele>
        <time>2013-09-08T14:29:29Z</time>
      </trkpt>
      <trkpt lat="48.65108" lon="-0.51518">
        <ele>234</ele>
        <time>2013-09-08T14:29:30Z</time>
      </trkpt>
      <trkpt lat="48.65112" lon="-0.51519">
        <ele>234</ele>
        <time>2013-09-08T14:29:31Z</time>
      </trkpt>
      <trkpt lat="48.65185" lon="-0.51534">
        <ele>231.6</ele>
        <time>2013-09-08T14:29:46Z</time>
      </trkpt>
      <trkpt lat="48.65252" lon="-0.51538">
        <ele>232.4</ele>
        <time>2013-09-08T14:30:01Z</time>
      </trkpt>
      <trkpt lat="48.6529" lon="-0.51525">
        <ele>235.6</ele>
        <time>2013-09-08T14:30:11Z</time>
      </trkpt>
      <trkpt lat="48.65336" lon="-0.51509">
        <ele>236.2</ele>
        <time>2013-09-08T14:30:24Z</time>
      </trkpt>
      <trkpt lat="48.6536" lon="-0.51515">
        <ele>233.8</ele>
        <time>2013-09-08T14:30:29Z</time>
      </trkpt>
      <trkpt lat="48.65376" lon="-0.51522">
        <ele>232.6</ele>
        <time>2013-09-08T14:30:32Z</time>
      </trkpt>
      <trkpt lat="48.6538" lon="-0.51525">
        <ele>232</ele>
        <time>2013-09-08T14:30:33Z</time>
      </trkpt>
      <trkpt lat="48.65385" lon="-0.5153">
        <ele>231.4</ele>
        <time>2013-09-08T14:30:34Z</time>
      </trkpt>
      <trkpt lat="48.65456" lon="-0.5158">
        <ele>228.6</ele>
        <time>2013-09-08T14:30:49Z</time>
      </trkpt>
      <trkpt lat="48.6547" lon="-0.51587">
        <ele>228.6</ele>
        <time>2013-09-08T14:30:52Z</time>
      </trkpt>
      <trkpt lat="48.65496" lon="-0.51608">
        <ele>228.2</ele>
        <time>2013-09-08T14:30:58Z</time>
      </trkpt>
      <trkpt lat="48.65499" lon="-0.51611">
        <ele>228.2</ele>
        <time>2013-09-08T14:30:59Z</time>
      </trkpt>
      <trkpt lat="48.65502" lon="-0.51616">
        <ele>228.2</ele>
        <time>2013-09-08T14:31:00Z</time>
      </trkpt>
      <trkpt lat="48.65505" lon="-0.51621">
        <ele>228.2</ele>
        <time>2013-09-08T14:31:01Z</time>
      </trkpt>
      <trkpt lat="48.65508" lon="-0.51626">
        <ele>228.2</ele>
        <time>2013-09-08T14:31:02Z</time>
      </trkpt>
      <trkpt lat="48.6551" lon="-0.51631">
        <ele>228.2</ele>
        <time>2013-09-08T14:31:03Z</time>
      </trkpt>
      <trkpt lat="48.65513" lon="-0.51637">
        <ele>228.2</ele>
        <time>2013-09-08T14:31:04Z</time>
      </trkpt>
      <trkpt lat="48.65515" lon="-0.51641">
        <ele>228.4</ele>
        <time>2013-09-08T14:31:05Z</time>
      </trkpt>
      <trkpt lat="48.65517" lon="-0.51646">
        <ele>228.4</ele>
        <time>2013-09-08T14:31:06Z</time>
      </trkpt>
      <trkpt lat="48.65539" lon="-0.51697">
        <ele>229.2</ele>
        <time>2013-09-08T14:31:15Z</time>
      </trkpt>
      <trkpt lat="48.65542" lon="-0.51703">
        <ele>229.4</ele>
        <time>2013-09-08T14:31:16Z</time>
      </trkpt>
      <trkpt lat="48.65546" lon="-0.51708">
        <ele>229.6</ele>
        <time>2013-09-08T14:31:17Z</time>
      </trkpt>
      <trkpt lat="48.65581" lon="-0.51742">
        <ele>229.4</ele>
        <time>2013-09-08T14:31:25Z</time>
      </trkpt>
      <trkpt lat="48.65614" lon="-0.5177">
        <ele>228.6</ele>
        <time>2013-09-08T14:31:34Z</time>
      </trkpt>
      <trkpt lat="48.65618" lon="-0.51773">
        <ele>228.6</ele>
        <time>2013-09-08T14:31:35Z</time>
      </trkpt>
      <trkpt lat="48.65622" lon="-0.51777">
        <ele>228.6</ele>
        <time>2013-09-08T14:31:36Z</time>
      </trkpt>
      <trkpt lat="48.65702" lon="-0.51827">
        <ele>226.6</ele>
        <time>2013-09-08T14:31:53Z</time>
      </trkpt>
      <trkpt lat="48.65747" lon="-0.51844">
        <ele>225.2</ele>
        <time>2013-09-08T14:32:03Z</time>
      </trkpt>
      <trkpt lat="48.6575" lon="-0.51846">
        <ele>225.2</ele>
        <time>2013-09-08T14:32:04Z</time>
      </trkpt>
      <trkpt lat="48.65796" lon="-0.51865">
        <ele>223.8</ele>
        <time>2013-09-08T14:32:16Z</time>
      </trkpt>
      <trkpt lat="48.65813" lon="-0.51872">
        <ele>222.8</ele>
        <time>2013-09-08T14:32:20Z</time>
      </trkpt>
      <trkpt lat="48.65817" lon="-0.51873">
        <ele>222.6</ele>
        <time>2013-09-08T14:32:21Z</time>
      </trkpt>
      <trkpt lat="48.65822" lon="-0.51873">
        <ele>222.4</ele>
        <time>2013-09-08T14:32:22Z</time>
      </trkpt>
      <trkpt lat="48.65865" lon="-0.51874">
        <ele>219.4</ele>
        <time>2013-09-08T14:32:32Z</time>
      </trkpt>
      <trkpt lat="48.65907" lon="-0.51883">
        <ele>216.2</ele>
        <time>2013-09-08T14:32:40Z</time>
      </trkpt>
      <trkpt lat="48.65927" lon="-0.51885">
        <ele>212.6</ele>
        <time>2013-09-08T14:32:45Z</time>
      </trkpt>
      <trkpt lat="48.65942" lon="-0.51886">
        <ele>209.4</ele>
        <time>2013-09-08T14:32:50Z</time>
      </trkpt>
      <trkpt lat="48.65953" lon="-0.5189">
        <ele>208.2</ele>
        <time>2013-09-08T14:32:53Z</time>
      </trkpt>
      <trkpt lat="48.65975" lon="-0.51899">
        <ele>204.8</ele>
        <time>2013-09-08T14:33:02Z</time>
      </trkpt>
      <trkpt lat="48.66008" lon="-0.51941">
        <ele>202.6</ele>
        <time>2013-09-08T14:33:15Z</time>
      </trkpt>
      <trkpt lat="48.66046" lon="-0.5194">
        <ele>202.8</ele>
        <time>2013-09-08T14:33:26Z</time>
      </trkpt>
      <trkpt lat="48.66051" lon="-0.5194">
        <ele>204.2</ele>
        <time>2013-09-08T14:33:34Z</time>
      </trkpt>
      <trkpt lat="48.66056" lon="-0.51948">
        <ele>204.8</ele>
        <time>2013-09-08T14:33:46Z</time>
      </trkpt>
      <trkpt lat="48.66057" lon="-0.51952">
        <ele>204.8</ele>
        <time>2013-09-08T14:33:47Z</time>
      </trkpt>
      <trkpt lat="48.66057" lon="-0.51958">
        <ele>204.8</ele>
        <time>2013-09-08T14:33:48Z</time>
      </trkpt>
      <trkpt lat="48.66057" lon="-0.51963">
        <ele>205</ele>
        <time>2013-09-08T14:33:49Z</time>
      </trkpt>
      <trkpt lat="48.66049" lon="-0.52047">
        <ele>201.8</ele>
        <time>2013-09-08T14:34:02Z</time>
      </trkpt>
      <trkpt lat="48.66048" lon="-0.52054">
        <ele>199.2</ele>
        <time>2013-09-08T14:34:08Z</time>
      </trkpt>
      <trkpt lat="48.66061" lon="-0.52058">
        <ele>197.8</ele>
        <time>2013-09-08T14:34:17Z</time>
      </trkpt>
      <trkpt lat="48.66064" lon="-0.52059">
        <ele>197.8</ele>
        <time>2013-09-08T14:34:18Z</time>
      </trkpt>
      <trkpt lat="48.66066" lon="-0.52061">
        <ele>197.6</ele>
        <time>2013-09-08T14:34:19Z</time>
      </trkpt>
      <trkpt lat="48.66067" lon="-0.52063">
        <ele>197.6</ele>
        <time>2013-09-08T14:34:20Z</time>
      </trkpt>
      <trkpt lat="48.66069" lon="-0.52065">
        <ele>197.6</ele>
        <time>2013-09-08T14:34:21Z</time>
      </trkpt>
      <trkpt lat="48.66086" lon="-0.52087">
        <ele>200.6</ele>
        <time>2013-09-08T14:34:32Z</time>
      </trkpt>
      <trkpt lat="48.66091" lon="-0.52089">
        <ele>202</ele>
        <time>2013-09-08T14:34:35Z</time>
      </trkpt>
      <trkpt lat="48.66119" lon="-0.52132">
        <ele>211.2</ele>
        <time>2013-09-08T14:35:50Z</time>
      </trkpt>
      <trkpt lat="48.66124" lon="-0.52137">
        <ele>211.2</ele>
        <time>2013-09-08T14:35:53Z</time>
      </trkpt>
      <trkpt lat="48.66125" lon="-0.52138">
        <ele>211.2</ele>
        <time>2013-09-08T14:35:54Z</time>
      </trkpt>
      <trkpt lat="48.66127" lon="-0.52139">
        <ele>211.4</ele>
        <time>2013-09-08T14:35:55Z</time>
      </trkpt>
      <trkpt lat="48.66128" lon="-0.5214">
        <ele>211.4</ele>
        <time>2013-09-08T14:35:56Z</time>
      </trkpt>
      <trkpt lat="48.66129" lon="-0.5214">
        <ele>211.6</ele>
        <time>2013-09-08T14:35:57Z</time>
      </trkpt>
      <trkpt lat="48.6613" lon="-0.52138">
        <ele>211.6</ele>
        <time>2013-09-08T14:35:58Z</time>
      </trkpt>
      <trkpt lat="48.6613" lon="-0.52135">
        <ele>212</ele>
        <time>2013-09-08T14:35:59Z</time>
      </trkpt>
      <trkpt lat="48.66131" lon="-0.52133">
        <ele>212.2</ele>
        <time>2013-09-08T14:36:00Z</time>
      </trkpt>
      <trkpt lat="48.66131" lon="-0.5213">
        <ele>212.4</ele>
        <time>2013-09-08T14:36:01Z</time>
      </trkpt>
      <trkpt lat="48.66137" lon="-0.52127">
        <ele>213.6</ele>
        <time>2013-09-08T14:36:05Z</time>
      </trkpt>
      <trkpt lat="48.66138" lon="-0.52128">
        <ele>213.8</ele>
        <time>2013-09-08T14:36:06Z</time>
      </trkpt>
      <trkpt lat="48.66165" lon="-0.52125">
        <ele>215.6</ele>
        <time>2013-09-08T14:36:20Z</time>
      </trkpt>
      <trkpt lat="48.66168" lon="-0.52126">
        <ele>216</ele>
        <time>2013-09-08T14:36:22Z</time>
      </trkpt>
      <trkpt lat="48.6617" lon="-0.52128">
        <ele>216</ele>
        <time>2013-09-08T14:36:23Z</time>
      </trkpt>
      <trkpt lat="48.66171" lon="-0.52131">
        <ele>216.2</ele>
        <time>2013-09-08T14:36:24Z</time>
      </trkpt>
      <trkpt lat="48.66172" lon="-0.52134">
        <ele>216.2</ele>
        <time>2013-09-08T14:36:25Z</time>
      </trkpt>
      <trkpt lat="48.66173" lon="-0.52137">
        <ele>216.4</ele>
        <time>2013-09-08T14:36:26Z</time>
      </trkpt>
      <trkpt lat="48.66174" lon="-0.5214">
        <ele>216.4</ele>
        <time>2013-09-08T14:36:27Z</time>
      </trkpt>
      <trkpt lat="48.66179" lon="-0.52172">
        <ele>215.8</ele>
        <time>2013-09-08T14:36:33Z</time>
      </trkpt>
      <trkpt lat="48.66181" lon="-0.52178">
        <ele>215.4</ele>
        <time>2013-09-08T14:36:34Z</time>
      </trkpt>
      <trkpt lat="48.66196" lon="-0.52212">
        <ele>212.2</ele>
        <time>2013-09-08T14:36:40Z</time>
      </trkpt>
      <trkpt lat="48.66206" lon="-0.52226">
        <ele>209</ele>
        <time>2013-09-08T14:36:45Z</time>
      </trkpt>
      <trkpt lat="48.66234" lon="-0.52237">
        <ele>207.4</ele>
        <time>2013-09-08T14:36:58Z</time>
      </trkpt>
      <trkpt lat="48.66261" lon="-0.5224">
        <ele>209.2</ele>
        <time>2013-09-08T14:37:09Z</time>
      </trkpt>
      <trkpt lat="48.66277" lon="-0.52214">
        <ele>212.4</ele>
        <time>2013-09-08T14:37:19Z</time>
      </trkpt>
      <trkpt lat="48.66284" lon="-0.522">
        <ele>215.8</ele>
        <time>2013-09-08T14:37:26Z</time>
      </trkpt>
      <trkpt lat="48.66283" lon="-0.522">
        <ele>217.4</ele>
        <time>2013-09-08T14:37:28Z</time>
      </trkpt>
      <trkpt lat="48.66282" lon="-0.52194">
        <ele>219.8</ele>
        <time>2013-09-08T14:37:45Z</time>
      </trkpt>
      <trkpt lat="48.66283" lon="-0.52193">
        <ele>219.8</ele>
        <time>2013-09-08T14:37:46Z</time>
      </trkpt>
      <trkpt lat="48.66285" lon="-0.52192">
        <ele>219.8</ele>
        <time>2013-09-08T14:37:47Z</time>
      </trkpt>
      <trkpt lat="48.66288" lon="-0.52193">
        <ele>219.8</ele>
        <time>2013-09-08T14:37:48Z</time>
      </trkpt>
      <trkpt lat="48.6629" lon="-0.52195">
        <ele>220</ele>
        <time>2013-09-08T14:37:49Z</time>
      </trkpt>
      <trkpt lat="48.66293" lon="-0.52198">
        <ele>220</ele>
        <time>2013-09-08T14:37:50Z</time>
      </trkpt>
      <trkpt lat="48.66296" lon="-0.522">
        <ele>220</ele>
        <time>2013-09-08T14:37:51Z</time>
      </trkpt>
      <trkpt lat="48.66299" lon="-0.52202">
        <ele>220</ele>
        <time>2013-09-08T14:37:52Z</time>
      </trkpt>
      <trkpt lat="48.66302" lon="-0.52204">
        <ele>220</ele>
        <time>2013-09-08T14:37:53Z</time>
      </trkpt>
      <trkpt lat="48.66304" lon="-0.52206">
        <ele>220</ele>
        <time>2013-09-08T14:37:54Z</time>
      </trkpt>
      <trkpt lat="48.66352" lon="-0.52241">
        <ele>219.6</ele>
        <time>2013-09-08T14:38:09Z</time>
      </trkpt>
      <trkpt lat="48.66414" lon="-0.52299">
        <ele>217.2</ele>
        <time>2013-09-08T14:38:26Z</time>
      </trkpt>
      <trkpt lat="48.66482" lon="-0.52359">
        <ele>215.8</ele>
        <time>2013-09-08T14:38:42Z</time>
      </trkpt>
      <trkpt lat="48.66546" lon="-0.52415">
        <ele>217</ele>
        <time>2013-09-08T14:38:57Z</time>
      </trkpt>
      <trkpt lat="48.66562" lon="-0.5243">
        <ele>218.2</ele>
        <time>2013-09-08T14:39:01Z</time>
      </trkpt>
      <trkpt lat="48.66575" lon="-0.52442">
        <ele>218.8</ele>
        <time>2013-09-08T14:39:04Z</time>
      </trkpt>
      <trkpt lat="48.66638" lon="-0.52523">
        <ele>221</ele>
        <time>2013-09-08T14:39:20Z</time>
      </trkpt>
      <trkpt lat="48.66714" lon="-0.52621">
        <ele>221.8</ele>
        <time>2013-09-08T14:39:40Z</time>
      </trkpt>
      <trkpt lat="48.66717" lon="-0.52628">
        <ele>221.8</ele>
        <time>2013-09-08T14:39:42Z</time>
      </trkpt>
      <trkpt lat="48.6672" lon="-0.52653">
        <ele>221.8</ele>
        <time>2013-09-08T14:39:46Z</time>
      </trkpt>
      <trkpt lat="48.66723" lon="-0.52663">
        <ele>221.8</ele>
        <time>2013-09-08T14:39:47Z</time>
      </trkpt>
      <trkpt lat="48.66727" lon="-0.52672">
        <ele>221.4</ele>
        <time>2013-09-08T14:39:48Z</time>
      </trkpt>
      <trkpt lat="48.6675" lon="-0.52727">
        <ele>218</ele>
        <time>2013-09-08T14:39:53Z</time>
      </trkpt>
      <trkpt lat="48.66773" lon="-0.52775">
        <ele>215</ele>
        <time>2013-09-08T14:39:57Z</time>
      </trkpt>
      <trkpt lat="48.6679" lon="-0.52813">
        <ele>211.8</ele>
        <time>2013-09-08T14:40:00Z</time>
      </trkpt>
      <trkpt lat="48.66814" lon="-0.52865">
        <ele>208.4</ele>
        <time>2013-09-08T14:40:04Z</time>
      </trkpt>
      <trkpt lat="48.66848" lon="-0.52918">
        <ele>205</ele>
        <time>2013-09-08T14:40:09Z</time>
      </trkpt>
      <trkpt lat="48.66895" lon="-0.52983">
        <ele>201.8</ele>
        <time>2013-09-08T14:40:17Z</time>
      </trkpt>
      <trkpt lat="48.6695" lon="-0.53045">
        <ele>201.6</ele>
        <time>2013-09-08T14:40:28Z</time>
      </trkpt>
      <trkpt lat="48.67016" lon="-0.53085">
        <ele>201.2</ele>
        <time>2013-09-08T14:40:40Z</time>
      </trkpt>
      <trkpt lat="48.67022" lon="-0.53087">
        <ele>201.2</ele>
        <time>2013-09-08T14:40:41Z</time>
      </trkpt>
      <trkpt lat="48.67027" lon="-0.53091">
        <ele>201.2</ele>
        <time>2013-09-08T14:40:42Z</time>
      </trkpt>
      <trkpt lat="48.67043" lon="-0.53107">
        <ele>201.2</ele>
        <time>2013-09-08T14:40:45Z</time>
      </trkpt>
      <trkpt lat="48.671" lon="-0.53201">
        <ele>199</ele>
        <time>2013-09-08T14:40:57Z</time>
      </trkpt>
      <trkpt lat="48.67143" lon="-0.53295">
        <ele>196.8</ele>
        <time>2013-09-08T14:41:08Z</time>
      </trkpt>
      <trkpt lat="48.67147" lon="-0.53302">
        <ele>196.4</ele>
        <time>2013-09-08T14:41:09Z</time>
      </trkpt>
      <trkpt lat="48.67181" lon="-0.53369">
        <ele>195</ele>
        <time>2013-09-08T14:41:18Z</time>
      </trkpt>
      <trkpt lat="48.67193" lon="-0.534">
        <ele>194.4</ele>
        <time>2013-09-08T14:41:22Z</time>
      </trkpt>
      <trkpt lat="48.67198" lon="-0.53416">
        <ele>194.2</ele>
        <time>2013-09-08T14:41:24Z</time>
      </trkpt>
      <trkpt lat="48.67202" lon="-0.53424">
        <ele>194</ele>
        <time>2013-09-08T14:41:25Z</time>
      </trkpt>
      <trkpt lat="48.67206" lon="-0.5343">
        <ele>193.8</ele>
        <time>2013-09-08T14:41:26Z</time>
      </trkpt>
      <trkpt lat="48.67211" lon="-0.53436">
        <ele>193.6</ele>
        <time>2013-09-08T14:41:27Z</time>
      </trkpt>
      <trkpt lat="48.67215" lon="-0.53441">
        <ele>193.4</ele>
        <time>2013-09-08T14:41:28Z</time>
      </trkpt>
      <trkpt lat="48.6722" lon="-0.53445">
        <ele>193</ele>
        <time>2013-09-08T14:41:29Z</time>
      </trkpt>
      <trkpt lat="48.67253" lon="-0.53479">
        <ele>191.2</ele>
        <time>2013-09-08T14:41:39Z</time>
      </trkpt>
      <trkpt lat="48.67255" lon="-0.5348">
        <ele>191</ele>
        <time>2013-09-08T14:41:40Z</time>
      </trkpt>
      <trkpt lat="48.67256" lon="-0.53482">
        <ele>190.8</ele>
        <time>2013-09-08T14:41:41Z</time>
      </trkpt>
      <trkpt lat="48.67273" lon="-0.53508">
        <ele>190.6</ele>
        <time>2013-09-08T14:41:49Z</time>
      </trkpt>
      <trkpt lat="48.67324" lon="-0.53594">
        <ele>190.4</ele>
        <time>2013-09-08T14:42:04Z</time>
      </trkpt>
      <trkpt lat="48.67329" lon="-0.53606">
        <ele>190.2</ele>
        <time>2013-09-08T14:42:06Z</time>
      </trkpt>
      <trkpt lat="48.67351" lon="-0.53656">
        <ele>190</ele>
        <time>2013-09-08T14:42:14Z</time>
      </trkpt>
      <trkpt lat="48.67362" lon="-0.53685">
        <ele>190</ele>
        <time>2013-09-08T14:42:18Z</time>
      </trkpt>
      <trkpt lat="48.6739" lon="-0.53743">
        <ele>190.2</ele>
        <time>2013-09-08T14:42:27Z</time>
      </trkpt>
      <trkpt lat="48.67396" lon="-0.53755">
        <ele>190.4</ele>
        <time>2013-09-08T14:42:29Z</time>
      </trkpt>
      <trkpt lat="48.67415" lon="-0.53781">
        <ele>190.8</ele>
        <time>2013-09-08T14:42:33Z</time>
      </trkpt>
      <trkpt lat="48.67436" lon="-0.53823">
        <ele>191.8</ele>
        <time>2013-09-08T14:42:39Z</time>
      </trkpt>
      <trkpt lat="48.67495" lon="-0.53916">
        <ele>193.8</ele>
        <time>2013-09-08T14:42:53Z</time>
      </trkpt>
      <trkpt lat="48.67537" lon="-0.53998">
        <ele>195</ele>
        <time>2013-09-08T14:43:04Z</time>
      </trkpt>
      <trkpt lat="48.67542" lon="-0.54009">
        <ele>195.2</ele>
        <time>2013-09-08T14:43:06Z</time>
      </trkpt>
      <trkpt lat="48.67545" lon="-0.54015">
        <ele>195.2</ele>
        <time>2013-09-08T14:43:07Z</time>
      </trkpt>
      <trkpt lat="48.67568" lon="-0.54043">
        <ele>195.4</ele>
        <time>2013-09-08T14:43:12Z</time>
      </trkpt>
      <trkpt lat="48.6759" lon="-0.54082">
        <ele>195.8</ele>
        <time>2013-09-08T14:43:18Z</time>
      </trkpt>
      <trkpt lat="48.67602" lon="-0.54101">
        <ele>196</ele>
        <time>2013-09-08T14:43:21Z</time>
      </trkpt>
      <trkpt lat="48.67617" lon="-0.54131">
        <ele>196.2</ele>
        <time>2013-09-08T14:43:25Z</time>
      </trkpt>
      <trkpt lat="48.67624" lon="-0.54145">
        <ele>196.2</ele>
        <time>2013-09-08T14:43:27Z</time>
      </trkpt>
      <trkpt lat="48.67673" lon="-0.54237">
        <ele>197.6</ele>
        <time>2013-09-08T14:43:40Z</time>
      </trkpt>
      <trkpt lat="48.67684" lon="-0.54256">
        <ele>197.8</ele>
        <time>2013-09-08T14:43:43Z</time>
      </trkpt>
      <trkpt lat="48.67706" lon="-0.54301">
        <ele>198</ele>
        <time>2013-09-08T14:43:49Z</time>
      </trkpt>
      <trkpt lat="48.67712" lon="-0.54322">
        <ele>198</ele>
        <time>2013-09-08T14:43:52Z</time>
      </trkpt>
      <trkpt lat="48.67738" lon="-0.54393">
        <ele>198</ele>
        <time>2013-09-08T14:44:00Z</time>
      </trkpt>
      <trkpt lat="48.67766" lon="-0.54443">
        <ele>198.2</ele>
        <time>2013-09-08T14:44:11Z</time>
      </trkpt>
      <trkpt lat="48.67773" lon="-0.54453">
        <ele>198.2</ele>
        <time>2013-09-08T14:44:13Z</time>
      </trkpt>
      <trkpt lat="48.67786" lon="-0.54471">
        <ele>198.2</ele>
        <time>2013-09-08T14:44:17Z</time>
      </trkpt>
      <trkpt lat="48.67819" lon="-0.54521">
        <ele>198.2</ele>
        <time>2013-09-08T14:44:29Z</time>
      </trkpt>
      <trkpt lat="48.67852" lon="-0.54556">
        <ele>197.2</ele>
        <time>2013-09-08T14:44:40Z</time>
      </trkpt>
      <trkpt lat="48.67865" lon="-0.54584">
        <ele>196.2</ele>
        <time>2013-09-08T14:44:45Z</time>
      </trkpt>
      <trkpt lat="48.67873" lon="-0.54595">
        <ele>195.8</ele>
        <time>2013-09-08T14:44:47Z</time>
      </trkpt>
      <trkpt lat="48.67887" lon="-0.54617">
        <ele>194.4</ele>
        <time>2013-09-08T14:44:51Z</time>
      </trkpt>
      <trkpt lat="48.67912" lon="-0.54648">
        <ele>192.8</ele>
        <time>2013-09-08T14:44:56Z</time>
      </trkpt>
      <trkpt lat="48.67954" lon="-0.54717">
        <ele>190.4</ele>
        <time>2013-09-08T14:45:06Z</time>
      </trkpt>
      <trkpt lat="48.67987" lon="-0.54758">
        <ele>189</ele>
        <time>2013-09-08T14:45:15Z</time>
      </trkpt>
      <trkpt lat="48.68042" lon="-0.54833">
        <ele>187.2</ele>
        <time>2013-09-08T14:45:28Z</time>
      </trkpt>
      <trkpt lat="48.6807" lon="-0.54879">
        <ele>186.6</ele>
        <time>2013-09-08T14:45:34Z</time>
      </trkpt>
      <trkpt lat="48.68077" lon="-0.54893">
        <ele>186.4</ele>
        <time>2013-09-08T14:45:36Z</time>
      </trkpt>
      <trkpt lat="48.68105" lon="-0.54934">
        <ele>186.6</ele>
        <time>2013-09-08T14:45:43Z</time>
      </trkpt>
      <trkpt lat="48.68147" lon="-0.54993">
        <ele>188.8</ele>
        <time>2013-09-08T14:45:57Z</time>
      </trkpt>
      <trkpt lat="48.68181" lon="-0.55056">
        <ele>190.4</ele>
        <time>2013-09-08T14:46:10Z</time>
      </trkpt>
      <trkpt lat="48.68188" lon="-0.55071">
        <ele>191</ele>
        <time>2013-09-08T14:46:13Z</time>
      </trkpt>
      <trkpt lat="48.68191" lon="-0.55075">
        <ele>191.2</ele>
        <time>2013-09-08T14:46:14Z</time>
      </trkpt>
      <trkpt lat="48.68217" lon="-0.55092">
        <ele>193</ele>
        <time>2013-09-08T14:46:24Z</time>
      </trkpt>
      <trkpt lat="48.68277" lon="-0.55135">
        <ele>193.8</ele>
        <time>2013-09-08T14:46:38Z</time>
      </trkpt>
      <trkpt lat="48.68284" lon="-0.55145">
        <ele>193.8</ele>
        <time>2013-09-08T14:46:40Z</time>
      </trkpt>
      <trkpt lat="48.68287" lon="-0.5515">
        <ele>193.8</ele>
        <time>2013-09-08T14:46:41Z</time>
      </trkpt>
      <trkpt lat="48.68293" lon="-0.55163">
        <ele>193.8</ele>
        <time>2013-09-08T14:46:43Z</time>
      </trkpt>
      <trkpt lat="48.68343" lon="-0.55277">
        <ele>192.6</ele>
        <time>2013-09-08T14:46:58Z</time>
      </trkpt>
      <trkpt lat="48.68408" lon="-0.55347">
        <ele>189.2</ele>
        <time>2013-09-08T14:47:08Z</time>
      </trkpt>
      <trkpt lat="48.68468" lon="-0.55407">
        <ele>185.8</ele>
        <time>2013-09-08T14:47:16Z</time>
      </trkpt>
      <trkpt lat="48.68515" lon="-0.55461">
        <ele>182.4</ele>
        <time>2013-09-08T14:47:22Z</time>
      </trkpt>
      <trkpt lat="48.68549" lon="-0.55498">
        <ele>179</ele>
        <time>2013-09-08T14:47:26Z</time>
      </trkpt>
      <trkpt lat="48.68557" lon="-0.55508">
        <ele>177.6</ele>
        <time>2013-09-08T14:47:27Z</time>
      </trkpt>
      <trkpt lat="48.68589" lon="-0.55548">
        <ele>175.6</ele>
        <time>2013-09-08T14:47:31Z</time>
      </trkpt>
      <trkpt lat="48.6862" lon="-0.55613">
        <ele>172.6</ele>
        <time>2013-09-08T14:47:36Z</time>
      </trkpt>
      <trkpt lat="48.68653" lon="-0.55694">
        <ele>169.4</ele>
        <time>2013-09-08T14:47:42Z</time>
      </trkpt>
      <trkpt lat="48.6869" lon="-0.55769">
        <ele>165.6</ele>
        <time>2013-09-08T14:47:48Z</time>
      </trkpt>
      <trkpt lat="48.68717" lon="-0.55819">
        <ele>162</ele>
        <time>2013-09-08T14:47:52Z</time>
      </trkpt>
      <trkpt lat="48.68741" lon="-0.55874">
        <ele>158.8</ele>
        <time>2013-09-08T14:47:56Z</time>
      </trkpt>
      <trkpt lat="48.68761" lon="-0.55952">
        <ele>155.2</ele>
        <time>2013-09-08T14:48:01Z</time>
      </trkpt>
      <trkpt lat="48.68777" lon="-0.5601">
        <ele>152</ele>
        <time>2013-09-08T14:48:05Z</time>
      </trkpt>
      <trkpt lat="48.68792" lon="-0.56041">
        <ele>150</ele>
        <time>2013-09-08T14:48:09Z</time>
      </trkpt>
      <trkpt lat="48.68795" lon="-0.56045">
        <ele>149.8</ele>
        <time>2013-09-08T14:48:10Z</time>
      </trkpt>
      <trkpt lat="48.68798" lon="-0.56045">
        <ele>149.6</ele>
        <time>2013-09-08T14:48:11Z</time>
      </trkpt>
      <trkpt lat="48.68801" lon="-0.56044">
        <ele>149.6</ele>
        <time>2013-09-08T14:48:12Z</time>
      </trkpt>
      <trkpt lat="48.68804" lon="-0.56041">
        <ele>149.6</ele>
        <time>2013-09-08T14:48:13Z</time>
      </trkpt>
      <trkpt lat="48.68806" lon="-0.56037">
        <ele>149.6</ele>
        <time>2013-09-08T14:48:14Z</time>
      </trkpt>
      <trkpt lat="48.68823" lon="-0.56026">
        <ele>149.8</ele>
        <time>2013-09-08T14:48:19Z</time>
      </trkpt>
      <trkpt lat="48.68875" lon="-0.55993">
        <ele>150</ele>
        <time>2013-09-08T14:48:29Z</time>
      </trkpt>
      <trkpt lat="48.68885" lon="-0.55987">
        <ele>150</ele>
        <time>2013-09-08T14:48:31Z</time>
      </trkpt>
      <trkpt lat="48.68939" lon="-0.55952">
        <ele>150.2</ele>
        <time>2013-09-08T14:48:41Z</time>
      </trkpt>
      <trkpt lat="48.69014" lon="-0.55904">
        <ele>150.4</ele>
        <time>2013-09-08T14:48:53Z</time>
      </trkpt>
      <trkpt lat="48.69087" lon="-0.55857">
        <ele>150.2</ele>
        <time>2013-09-08T14:49:06Z</time>
      </trkpt>
      <trkpt lat="48.69113" lon="-0.55841">
        <ele>150</ele>
        <time>2013-09-08T14:49:10Z</time>
      </trkpt>
      <trkpt lat="48.69183" lon="-0.55796">
        <ele>149.8</ele>
        <time>2013-09-08T14:49:21Z</time>
      </trkpt>
      <trkpt lat="48.6925" lon="-0.55754">
        <ele>149.2</ele>
        <time>2013-09-08T14:49:32Z</time>
      </trkpt>
      <trkpt lat="48.69316" lon="-0.5571">
        <ele>149</ele>
        <time>2013-09-08T14:49:44Z</time>
      </trkpt>
      <trkpt lat="48.69342" lon="-0.55697">
        <ele>149</ele>
        <time>2013-09-08T14:49:48Z</time>
      </trkpt>
      <trkpt lat="48.69413" lon="-0.55651">
        <ele>148.6</ele>
        <time>2013-09-08T14:50:00Z</time>
      </trkpt>
      <trkpt lat="48.69444" lon="-0.55634">
        <ele>148.4</ele>
        <time>2013-09-08T14:50:05Z</time>
      </trkpt>
      <trkpt lat="48.69521" lon="-0.55586">
        <ele>148.8</ele>
        <time>2013-09-08T14:50:18Z</time>
      </trkpt>
      <trkpt lat="48.69593" lon="-0.55544">
        <ele>148.8</ele>
        <time>2013-09-08T14:50:30Z</time>
      </trkpt>
      <trkpt lat="48.6963" lon="-0.55524">
        <ele>148.4</ele>
        <time>2013-09-08T14:50:39Z</time>
      </trkpt>
      <trkpt lat="48.69697" lon="-0.5548">
        <ele>148.2</ele>
        <time>2013-09-08T14:50:50Z</time>
      </trkpt>
      <trkpt lat="48.69715" lon="-0.5547">
        <ele>148.2</ele>
        <time>2013-09-08T14:50:53Z</time>
      </trkpt>
      <trkpt lat="48.69732" lon="-0.55458">
        <ele>148.2</ele>
        <time>2013-09-08T14:50:56Z</time>
      </trkpt>
      <trkpt lat="48.69804" lon="-0.55412">
        <ele>148.6</ele>
        <time>2013-09-08T14:51:08Z</time>
      </trkpt>
      <trkpt lat="48.69871" lon="-0.55374">
        <ele>148.8</ele>
        <time>2013-09-08T14:51:19Z</time>
      </trkpt>
      <trkpt lat="48.69913" lon="-0.5535">
        <ele>148.8</ele>
        <time>2013-09-08T14:51:26Z</time>
      </trkpt>
      <trkpt lat="48.69961" lon="-0.55318">
        <ele>149</ele>
        <time>2013-09-08T14:51:34Z</time>
      </trkpt>
      <trkpt lat="48.70025" lon="-0.55278">
        <ele>149.6</ele>
        <time>2013-09-08T14:51:45Z</time>
      </trkpt>
      <trkpt lat="48.70094" lon="-0.55235">
        <ele>149.8</ele>
        <time>2013-09-08T14:51:57Z</time>
      </trkpt>
      <trkpt lat="48.70118" lon="-0.55221">
        <ele>150</ele>
        <time>2013-09-08T14:52:01Z</time>
      </trkpt>
      <trkpt lat="48.70169" lon="-0.55191">
        <ele>150.8</ele>
        <time>2013-09-08T14:52:12Z</time>
      </trkpt>
      <trkpt lat="48.70191" lon="-0.5517">
        <ele>150.8</ele>
        <time>2013-09-08T14:52:19Z</time>
      </trkpt>
      <trkpt lat="48.7026" lon="-0.55129">
        <ele>150.6</ele>
        <time>2013-09-08T14:52:33Z</time>
      </trkpt>
      <trkpt lat="48.70284" lon="-0.55112">
        <ele>150.6</ele>
        <time>2013-09-08T14:52:39Z</time>
      </trkpt>
      <trkpt lat="48.70355" lon="-0.55068">
        <ele>150.6</ele>
        <time>2013-09-08T14:52:51Z</time>
      </trkpt>
      <trkpt lat="48.70426" lon="-0.55024">
        <ele>151</ele>
        <time>2013-09-08T14:53:03Z</time>
      </trkpt>
      <trkpt lat="48.705" lon="-0.54976">
        <ele>151.4</ele>
        <time>2013-09-08T14:53:16Z</time>
      </trkpt>
      <trkpt lat="48.70583" lon="-0.54925">
        <ele>152.2</ele>
        <time>2013-09-08T14:53:30Z</time>
      </trkpt>
      <trkpt lat="48.70664" lon="-0.54881">
        <ele>153.4</ele>
        <time>2013-09-08T14:53:44Z</time>
      </trkpt>
      <trkpt lat="48.70714" lon="-0.54854">
        <ele>154.4</ele>
        <time>2013-09-08T14:53:55Z</time>
      </trkpt>
      <trkpt lat="48.70716" lon="-0.54851">
        <ele>154.4</ele>
        <time>2013-09-08T14:53:56Z</time>
      </trkpt>
      <trkpt lat="48.7074" lon="-0.54858">
        <ele>154.6</ele>
        <time>2013-09-08T14:54:05Z</time>
      </trkpt>
      <trkpt lat="48.70747" lon="-0.54851">
        <ele>154.6</ele>
        <time>2013-09-08T14:54:08Z</time>
      </trkpt>
      <trkpt lat="48.7082" lon="-0.54835">
        <ele>154.4</ele>
        <time>2013-09-08T14:54:20Z</time>
      </trkpt>
      <trkpt lat="48.70883" lon="-0.5483">
        <ele>154.6</ele>
        <time>2013-09-08T14:54:30Z</time>
      </trkpt>
      <trkpt lat="48.7089" lon="-0.5483">
        <ele>154.6</ele>
        <time>2013-09-08T14:54:31Z</time>
      </trkpt>
      <trkpt lat="48.70932" lon="-0.54834">
        <ele>154.8</ele>
        <time>2013-09-08T14:54:38Z</time>
      </trkpt>
      <trkpt lat="48.71014" lon="-0.54855">
        <ele>155</ele>
        <time>2013-09-08T14:54:51Z</time>
      </trkpt>
      <trkpt lat="48.7105" lon="-0.54869">
        <ele>155.2</ele>
        <time>2013-09-08T14:54:57Z</time>
      </trkpt>
      <trkpt lat="48.7109" lon="-0.54886">
        <ele>155.4</ele>
        <time>2013-09-08T14:55:04Z</time>
      </trkpt>
      <trkpt lat="48.71131" lon="-0.54906">
        <ele>155.6</ele>
        <time>2013-09-08T14:55:11Z</time>
      </trkpt>
      <trkpt lat="48.71192" lon="-0.54941">
        <ele>156.4</ele>
        <time>2013-09-08T14:55:21Z</time>
      </trkpt>
      <trkpt lat="48.71265" lon="-0.54998">
        <ele>157.2</ele>
        <time>2013-09-08T14:55:34Z</time>
      </trkpt>
      <trkpt lat="48.71284" lon="-0.55016">
        <ele>157.6</ele>
        <time>2013-09-08T14:55:38Z</time>
      </trkpt>
      <trkpt lat="48.71304" lon="-0.55036">
        <ele>158.2</ele>
        <time>2013-09-08T14:55:42Z</time>
      </trkpt>
      <trkpt lat="48.71373" lon="-0.55095">
        <ele>159.2</ele>
        <time>2013-09-08T14:55:55Z</time>
      </trkpt>
      <trkpt lat="48.71406" lon="-0.55123">
        <ele>159.4</ele>
        <time>2013-09-08T14:56:01Z</time>
      </trkpt>
      <trkpt lat="48.71456" lon="-0.55164">
        <ele>160.6</ele>
        <time>2013-09-08T14:56:13Z</time>
      </trkpt>
      <trkpt lat="48.71479" lon="-0.55184">
        <ele>161.2</ele>
        <time>2013-09-08T14:56:23Z</time>
      </trkpt>
      <trkpt lat="48.71495" lon="-0.55199">
        <ele>161.2</ele>
        <time>2013-09-08T14:56:30Z</time>
      </trkpt>
      <trkpt lat="48.71533" lon="-0.55233">
        <ele>161.2</ele>
        <time>2013-09-08T14:56:38Z</time>
      </trkpt>
      <trkpt lat="48.71548" lon="-0.55246">
        <ele>161.2</ele>
        <time>2013-09-08T14:56:41Z</time>
      </trkpt>
      <trkpt lat="48.7157" lon="-0.55272">
        <ele>161.4</ele>
        <time>2013-09-08T14:56:46Z</time>
      </trkpt>
      <trkpt lat="48.71594" lon="-0.55289">
        <ele>161.6</ele>
        <time>2013-09-08T14:56:50Z</time>
      </trkpt>
      <trkpt lat="48.71627" lon="-0.55317">
        <ele>161.6</ele>
        <time>2013-09-08T14:56:56Z</time>
      </trkpt>
      <trkpt lat="48.7168" lon="-0.55362">
        <ele>161.6</ele>
        <time>2013-09-08T14:57:11Z</time>
      </trkpt>
      <trkpt lat="48.71713" lon="-0.55387">
        <ele>161.2</ele>
        <time>2013-09-08T14:57:22Z</time>
      </trkpt>
      <trkpt lat="48.71733" lon="-0.55405">
        <ele>161.2</ele>
        <time>2013-09-08T14:57:34Z</time>
      </trkpt>
      <trkpt lat="48.71788" lon="-0.55456">
        <ele>160.2</ele>
        <time>2013-09-08T14:57:44Z</time>
      </trkpt>
      <trkpt lat="48.71875" lon="-0.55522">
        <ele>159.2</ele>
        <time>2013-09-08T14:57:58Z</time>
      </trkpt>
      <trkpt lat="48.71936" lon="-0.55572">
        <ele>158.2</ele>
        <time>2013-09-08T14:58:10Z</time>
      </trkpt>
      <trkpt lat="48.72013" lon="-0.55604">
        <ele>157.4</ele>
        <time>2013-09-08T14:58:23Z</time>
      </trkpt>
      <trkpt lat="48.72082" lon="-0.5561">
        <ele>156.2</ele>
        <time>2013-09-08T14:58:35Z</time>
      </trkpt>
      <trkpt lat="48.72162" lon="-0.55595">
        <ele>155.6</ele>
        <time>2013-09-08T14:58:48Z</time>
      </trkpt>
      <trkpt lat="48.72167" lon="-0.55594">
        <ele>155.6</ele>
        <time>2013-09-08T14:58:49Z</time>
      </trkpt>
      <trkpt lat="48.72238" lon="-0.55564">
        <ele>154.8</ele>
        <time>2013-09-08T14:59:03Z</time>
      </trkpt>
      <trkpt lat="48.72286" lon="-0.55543">
        <ele>154.4</ele>
        <time>2013-09-08T14:59:13Z</time>
      </trkpt>
      <trkpt lat="48.72291" lon="-0.55541">
        <ele>154.2</ele>
        <time>2013-09-08T14:59:14Z</time>
      </trkpt>
      <trkpt lat="48.72297" lon="-0.55537">
        <ele>154.2</ele>
        <time>2013-09-08T14:59:15Z</time>
      </trkpt>
      <trkpt lat="48.72328" lon="-0.55514">
        <ele>154</ele>
        <time>2013-09-08T14:59:20Z</time>
      </trkpt>
      <trkpt lat="48.72335" lon="-0.55512">
        <ele>153.8</ele>
        <time>2013-09-08T14:59:21Z</time>
      </trkpt>
      <trkpt lat="48.72342" lon="-0.55512">
        <ele>153.8</ele>
        <time>2013-09-08T14:59:22Z</time>
      </trkpt>
      <trkpt lat="48.72358" lon="-0.55511">
        <ele>153.6</ele>
        <time>2013-09-08T14:59:24Z</time>
      </trkpt>
      <trkpt lat="48.72365" lon="-0.55509">
        <ele>153.6</ele>
        <time>2013-09-08T14:59:25Z</time>
      </trkpt>
      <trkpt lat="48.72407" lon="-0.55492">
        <ele>153</ele>
        <time>2013-09-08T14:59:32Z</time>
      </trkpt>
      <trkpt lat="48.72429" lon="-0.55481">
        <ele>152.6</ele>
        <time>2013-09-08T14:59:37Z</time>
      </trkpt>
      <trkpt lat="48.72447" lon="-0.55474">
        <ele>152.4</ele>
        <time>2013-09-08T14:59:43Z</time>
      </trkpt>
      <trkpt lat="48.72448" lon="-0.5547">
        <ele>152.4</ele>
        <time>2013-09-08T14:59:45Z</time>
      </trkpt>
      <trkpt lat="48.72449" lon="-0.55467">
        <ele>152.4</ele>
        <time>2013-09-08T14:59:47Z</time>
      </trkpt>
      <trkpt lat="48.72451" lon="-0.55466">
        <ele>152.4</ele>
        <time>2013-09-08T14:59:48Z</time>
      </trkpt>
      <trkpt lat="48.72455" lon="-0.55465">
        <ele>152.6</ele>
        <time>2013-09-08T14:59:49Z</time>
      </trkpt>
      <trkpt lat="48.72459" lon="-0.55463">
        <ele>152.6</ele>
        <time>2013-09-08T14:59:50Z</time>
      </trkpt>
      <trkpt lat="48.72464" lon="-0.55461">
        <ele>152.6</ele>
        <time>2013-09-08T14:59:51Z</time>
      </trkpt>
      <trkpt lat="48.72468" lon="-0.55458">
        <ele>152.6</ele>
        <time>2013-09-08T14:59:52Z</time>
      </trkpt>
      <trkpt lat="48.72472" lon="-0.55454">
        <ele>152.4</ele>
        <time>2013-09-08T14:59:53Z</time>
      </trkpt>
      <trkpt lat="48.72476" lon="-0.55449">
        <ele>152.4</ele>
        <time>2013-09-08T14:59:54Z</time>
      </trkpt>
      <trkpt lat="48.72479" lon="-0.55442">
        <ele>152.4</ele>
        <time>2013-09-08T14:59:55Z</time>
      </trkpt>
      <trkpt lat="48.72482" lon="-0.55436">
        <ele>152.4</ele>
        <time>2013-09-08T14:59:56Z</time>
      </trkpt>
      <trkpt lat="48.72485" lon="-0.55429">
        <ele>152.4</ele>
        <time>2013-09-08T14:59:57Z</time>
      </trkpt>
      <trkpt lat="48.72488" lon="-0.55423">
        <ele>152.2</ele>
        <time>2013-09-08T14:59:58Z</time>
      </trkpt>
      <trkpt lat="48.72492" lon="-0.55419">
        <ele>152.2</ele>
        <time>2013-09-08T14:59:59Z</time>
      </trkpt>
      <trkpt lat="48.72496" lon="-0.55415">
        <ele>152.2</ele>
        <time>2013-09-08T15:00:00Z</time>
      </trkpt>
      <trkpt lat="48.725" lon="-0.55412">
        <ele>152</ele>
        <time>2013-09-08T15:00:01Z</time>
      </trkpt>
      <trkpt lat="48.72504" lon="-0.55409">
        <ele>152</ele>
        <time>2013-09-08T15:00:02Z</time>
      </trkpt>
      <trkpt lat="48.72508" lon="-0.55407">
        <ele>151.8</ele>
        <time>2013-09-08T15:00:03Z</time>
      </trkpt>
      <trkpt lat="48.72513" lon="-0.55406">
        <ele>151.8</ele>
        <time>2013-09-08T15:00:04Z</time>
      </trkpt>
      <trkpt lat="48.72517" lon="-0.55406">
        <ele>151.8</ele>
        <time>2013-09-08T15:00:05Z</time>
      </trkpt>
      <trkpt lat="48.72522" lon="-0.55405">
        <ele>151.6</ele>
        <time>2013-09-08T15:00:06Z</time>
      </trkpt>
      <trkpt lat="48.72574" lon="-0.55392">
        <ele>149.8</ele>
        <time>2013-09-08T15:00:19Z</time>
      </trkpt>
      <trkpt lat="48.72582" lon="-0.55386">
        <ele>149.6</ele>
        <time>2013-09-08T15:00:21Z</time>
      </trkpt>
      <trkpt lat="48.72591" lon="-0.55379">
        <ele>149.4</ele>
        <time>2013-09-08T15:00:23Z</time>
      </trkpt>
      <trkpt lat="48.72595" lon="-0.55375">
        <ele>149.4</ele>
        <time>2013-09-08T15:00:24Z</time>
      </trkpt>
      <trkpt lat="48.72607" lon="-0.55362">
        <ele>149.2</ele>
        <time>2013-09-08T15:00:27Z</time>
      </trkpt>
      <trkpt lat="48.72623" lon="-0.55336">
        <ele>148.6</ele>
        <time>2013-09-08T15:00:32Z</time>
      </trkpt>
      <trkpt lat="48.72647" lon="-0.55294">
        <ele>147.8</ele>
        <time>2013-09-08T15:00:39Z</time>
      </trkpt>
      <trkpt lat="48.7265" lon="-0.55289">
        <ele>147.8</ele>
        <time>2013-09-08T15:00:40Z</time>
      </trkpt>
      <trkpt lat="48.72653" lon="-0.55285">
        <ele>147.6</ele>
        <time>2013-09-08T15:00:41Z</time>
      </trkpt>
      <trkpt lat="48.72657" lon="-0.55282">
        <ele>147.6</ele>
        <time>2013-09-08T15:00:42Z</time>
      </trkpt>
      <trkpt lat="48.72661" lon="-0.55278">
        <ele>147.4</ele>
        <time>2013-09-08T15:00:43Z</time>
      </trkpt>
      <trkpt lat="48.72712" lon="-0.55241">
        <ele>146.4</ele>
        <time>2013-09-08T15:00:53Z</time>
      </trkpt>
      <trkpt lat="48.72782" lon="-0.55187">
        <ele>144.6</ele>
        <time>2013-09-08T15:01:04Z</time>
      </trkpt>
      <trkpt lat="48.72868" lon="-0.55151">
        <ele>142.2</ele>
        <time>2013-09-08T15:01:16Z</time>
      </trkpt>
      <trkpt lat="48.72897" lon="-0.55126">
        <ele>141.2</ele>
        <time>2013-09-08T15:01:21Z</time>
      </trkpt>
      <trkpt lat="48.72901" lon="-0.5512">
        <ele>141.2</ele>
        <time>2013-09-08T15:01:22Z</time>
      </trkpt>
      <trkpt lat="48.72905" lon="-0.55114">
        <ele>141</ele>
        <time>2013-09-08T15:01:23Z</time>
      </trkpt>
      <trkpt lat="48.72908" lon="-0.55108">
        <ele>141</ele>
        <time>2013-09-08T15:01:24Z</time>
      </trkpt>
      <trkpt lat="48.72912" lon="-0.55104">
        <ele>141</ele>
        <time>2013-09-08T15:01:25Z</time>
      </trkpt>
      <trkpt lat="48.72915" lon="-0.55103">
        <ele>141</ele>
        <time>2013-09-08T15:01:26Z</time>
      </trkpt>
      <trkpt lat="48.72919" lon="-0.55105">
        <ele>140.8</ele>
        <time>2013-09-08T15:01:27Z</time>
      </trkpt>
      <trkpt lat="48.72921" lon="-0.55108">
        <ele>140.8</ele>
        <time>2013-09-08T15:01:28Z</time>
      </trkpt>
      <trkpt lat="48.72923" lon="-0.55113">
        <ele>140.8</ele>
        <time>2013-09-08T15:01:29Z</time>
      </trkpt>
      <trkpt lat="48.72926" lon="-0.55119">
        <ele>140.8</ele>
        <time>2013-09-08T15:01:30Z</time>
      </trkpt>
      <trkpt lat="48.72927" lon="-0.55127">
        <ele>140.8</ele>
        <time>2013-09-08T15:01:31Z</time>
      </trkpt>
      <trkpt lat="48.72929" lon="-0.55136">
        <ele>140.8</ele>
        <time>2013-09-08T15:01:32Z</time>
      </trkpt>
      <trkpt lat="48.72951" lon="-0.55269">
        <ele>140.8</ele>
        <time>2013-09-08T15:01:46Z</time>
      </trkpt>
      <trkpt lat="48.72953" lon="-0.55277">
        <ele>141</ele>
        <time>2013-09-08T15:01:47Z</time>
      </trkpt>
      <trkpt lat="48.72956" lon="-0.55285">
        <ele>141</ele>
        <time>2013-09-08T15:01:48Z</time>
      </trkpt>
      <trkpt lat="48.72959" lon="-0.55293">
        <ele>141</ele>
        <time>2013-09-08T15:01:49Z</time>
      </trkpt>
      <trkpt lat="48.72964" lon="-0.553">
        <ele>141</ele>
        <time>2013-09-08T15:01:50Z</time>
      </trkpt>
      <trkpt lat="48.72968" lon="-0.55307">
        <ele>140.8</ele>
        <time>2013-09-08T15:01:51Z</time>
      </trkpt>
      <trkpt lat="48.72973" lon="-0.55313">
        <ele>140.8</ele>
        <time>2013-09-08T15:01:52Z</time>
      </trkpt>
      <trkpt lat="48.72979" lon="-0.55319">
        <ele>140.8</ele>
        <time>2013-09-08T15:01:53Z</time>
      </trkpt>
      <trkpt lat="48.72984" lon="-0.55325">
        <ele>140.6</ele>
        <time>2013-09-08T15:01:54Z</time>
      </trkpt>
      <trkpt lat="48.73007" lon="-0.55347">
        <ele>140.2</ele>
        <time>2013-09-08T15:01:58Z</time>
      </trkpt>
      <trkpt lat="48.73014" lon="-0.5535">
        <ele>140</ele>
        <time>2013-09-08T15:01:59Z</time>
      </trkpt>
      <trkpt lat="48.73043" lon="-0.55356">
        <ele>139.8</ele>
        <time>2013-09-08T15:02:04Z</time>
      </trkpt>
      <trkpt lat="48.73061" lon="-0.55353">
        <ele>140.2</ele>
        <time>2013-09-08T15:02:07Z</time>
      </trkpt>
      <trkpt lat="48.73073" lon="-0.55349">
        <ele>140.4</ele>
        <time>2013-09-08T15:02:09Z</time>
      </trkpt>
      <trkpt lat="48.73079" lon="-0.55348">
        <ele>140.6</ele>
        <time>2013-09-08T15:02:10Z</time>
      </trkpt>
      <trkpt lat="48.73085" lon="-0.55348">
        <ele>141</ele>
        <time>2013-09-08T15:02:11Z</time>
      </trkpt>
      <trkpt lat="48.73098" lon="-0.5535">
        <ele>141.4</ele>
        <time>2013-09-08T15:02:13Z</time>
      </trkpt>
      <trkpt lat="48.73154" lon="-0.55363">
        <ele>143</ele>
        <time>2013-09-08T15:02:22Z</time>
      </trkpt>
      <trkpt lat="48.7322" lon="-0.55425">
        <ele>142.2</ele>
        <time>2013-09-08T15:02:36Z</time>
      </trkpt>
      <trkpt lat="48.73224" lon="-0.55428">
        <ele>142.2</ele>
        <time>2013-09-08T15:02:37Z</time>
      </trkpt>
      <trkpt lat="48.73243" lon="-0.55439">
        <ele>142.6</ele>
        <time>2013-09-08T15:02:45Z</time>
      </trkpt>
      <trkpt lat="48.73295" lon="-0.55464">
        <ele>142.6</ele>
        <time>2013-09-08T15:02:55Z</time>
      </trkpt>
      <trkpt lat="48.73294" lon="-0.55465">
        <ele>142.8</ele>
        <time>2013-09-08T15:02:58Z</time>
      </trkpt>
      <trkpt lat="48.73288" lon="-0.55461">
        <ele>143</ele>
        <time>2013-09-08T15:03:02Z</time>
      </trkpt>
      <trkpt lat="48.73301" lon="-0.5547">
        <ele>142.6</ele>
        <time>2013-09-08T15:05:00Z</time>
      </trkpt>
      <trkpt lat="48.73304" lon="-0.55471">
        <ele>142.4</ele>
        <time>2013-09-08T15:05:01Z</time>
      </trkpt>
      <trkpt lat="48.73345" lon="-0.55493">
        <ele>140.6</ele>
        <time>2013-09-08T15:05:14Z</time>
      </trkpt>
      <trkpt lat="48.73395" lon="-0.55517">
        <ele>139.8</ele>
        <time>2013-09-08T15:05:30Z</time>
      </trkpt>
      <trkpt lat="48.73431" lon="-0.55544">
        <ele>139.2</ele>
        <time>2013-09-08T15:05:37Z</time>
      </trkpt>
      <trkpt lat="48.73447" lon="-0.55562">
        <ele>139.2</ele>
        <time>2013-09-08T15:05:41Z</time>
      </trkpt>
      <trkpt lat="48.7345" lon="-0.55565">
        <ele>139.4</ele>
        <time>2013-09-08T15:05:42Z</time>
      </trkpt>
      <trkpt lat="48.73453" lon="-0.55568">
        <ele>139.4</ele>
        <time>2013-09-08T15:05:43Z</time>
      </trkpt>
      <trkpt lat="48.73456" lon="-0.5557">
        <ele>139.6</ele>
        <time>2013-09-08T15:05:44Z</time>
      </trkpt>
      <trkpt lat="48.73459" lon="-0.55572">
        <ele>139.6</ele>
        <time>2013-09-08T15:05:45Z</time>
      </trkpt>
      <trkpt lat="48.73462" lon="-0.55574">
        <ele>139.6</ele>
        <time>2013-09-08T15:05:46Z</time>
      </trkpt>
      <trkpt lat="48.7349" lon="-0.55587">
        <ele>139.4</ele>
        <time>2013-09-08T15:05:54Z</time>
      </trkpt>
      <trkpt lat="48.73494" lon="-0.55589">
        <ele>139.2</ele>
        <time>2013-09-08T15:05:55Z</time>
      </trkpt>
      <trkpt lat="48.73561" lon="-0.55636">
        <ele>137.2</ele>
        <time>2013-09-08T15:06:10Z</time>
      </trkpt>
      <trkpt lat="48.73601" lon="-0.55665">
        <ele>136.4</ele>
        <time>2013-09-08T15:06:17Z</time>
      </trkpt>
      <trkpt lat="48.73607" lon="-0.55666">
        <ele>136.4</ele>
        <time>2013-09-08T15:06:18Z</time>
      </trkpt>
      <trkpt lat="48.73613" lon="-0.55666">
        <ele>136.6</ele>
        <time>2013-09-08T15:06:19Z</time>
      </trkpt>
      <trkpt lat="48.73619" lon="-0.55664">
        <ele>136.6</ele>
        <time>2013-09-08T15:06:20Z</time>
      </trkpt>
      <trkpt lat="48.73624" lon="-0.55663">
        <ele>136.6</ele>
        <time>2013-09-08T15:06:21Z</time>
      </trkpt>
      <trkpt lat="48.7363" lon="-0.55661">
        <ele>136.8</ele>
        <time>2013-09-08T15:06:22Z</time>
      </trkpt>
      <trkpt lat="48.73636" lon="-0.55662">
        <ele>136.8</ele>
        <time>2013-09-08T15:06:23Z</time>
      </trkpt>
      <trkpt lat="48.73716" lon="-0.55693">
        <ele>138</ele>
        <time>2013-09-08T15:06:36Z</time>
      </trkpt>
      <trkpt lat="48.73733" lon="-0.55706">
        <ele>138.2</ele>
        <time>2013-09-08T15:06:39Z</time>
      </trkpt>
      <trkpt lat="48.73765" lon="-0.5574">
        <ele>138.2</ele>
        <time>2013-09-08T15:06:45Z</time>
      </trkpt>
      <trkpt lat="48.7377" lon="-0.55745">
        <ele>138.2</ele>
        <time>2013-09-08T15:06:46Z</time>
      </trkpt>
      <trkpt lat="48.73797" lon="-0.55764">
        <ele>138.4</ele>
        <time>2013-09-08T15:06:51Z</time>
      </trkpt>
      <trkpt lat="48.73803" lon="-0.55766">
        <ele>138.4</ele>
        <time>2013-09-08T15:06:52Z</time>
      </trkpt>
      <trkpt lat="48.73842" lon="-0.55777">
        <ele>140</ele>
        <time>2013-09-08T15:07:02Z</time>
      </trkpt>
      <trkpt lat="48.7385" lon="-0.55784">
        <ele>141.8</ele>
        <time>2013-09-08T15:07:15Z</time>
      </trkpt>
      <trkpt lat="48.73845" lon="-0.55796">
        <ele>141.8</ele>
        <time>2013-09-08T15:07:23Z</time>
      </trkpt>
      <trkpt lat="48.73845" lon="-0.55803">
        <ele>141.8</ele>
        <time>2013-09-08T15:07:24Z</time>
      </trkpt>
      <trkpt lat="48.73859" lon="-0.55915">
        <ele>139</ele>
        <time>2013-09-08T15:07:35Z</time>
      </trkpt>
      <trkpt lat="48.73862" lon="-0.5595">
        <ele>138.2</ele>
        <time>2013-09-08T15:07:38Z</time>
      </trkpt>
      <trkpt lat="48.73862" lon="-0.55962">
        <ele>137.8</ele>
        <time>2013-09-08T15:07:39Z</time>
      </trkpt>
      <trkpt lat="48.73861" lon="-0.55974">
        <ele>137.4</ele>
        <time>2013-09-08T15:07:40Z</time>
      </trkpt>
      <trkpt lat="48.73859" lon="-0.55986">
        <ele>136.8</ele>
        <time>2013-09-08T15:07:41Z</time>
      </trkpt>
      <trkpt lat="48.73857" lon="-0.55997">
        <ele>136.4</ele>
        <time>2013-09-08T15:07:42Z</time>
      </trkpt>
      <trkpt lat="48.73855" lon="-0.56007">
        <ele>136.2</ele>
        <time>2013-09-08T15:07:43Z</time>
      </trkpt>
      <trkpt lat="48.73848" lon="-0.56036">
        <ele>135.6</ele>
        <time>2013-09-08T15:07:46Z</time>
      </trkpt>
      <trkpt lat="48.73845" lon="-0.56044">
        <ele>135.4</ele>
        <time>2013-09-08T15:07:47Z</time>
      </trkpt>
      <trkpt lat="48.73844" lon="-0.56053">
        <ele>135.2</ele>
        <time>2013-09-08T15:07:48Z</time>
      </trkpt>
      <trkpt lat="48.73843" lon="-0.56061">
        <ele>135.2</ele>
        <time>2013-09-08T15:07:49Z</time>
      </trkpt>
      <trkpt lat="48.73843" lon="-0.5607">
        <ele>135.2</ele>
        <time>2013-09-08T15:07:50Z</time>
      </trkpt>
      <trkpt lat="48.73843" lon="-0.5608">
        <ele>135</ele>
        <time>2013-09-08T15:07:51Z</time>
      </trkpt>
      <trkpt lat="48.73845" lon="-0.56089">
        <ele>135</ele>
        <time>2013-09-08T15:07:52Z</time>
      </trkpt>
      <trkpt lat="48.73848" lon="-0.56097">
        <ele>135</ele>
        <time>2013-09-08T15:07:53Z</time>
      </trkpt>
      <trkpt lat="48.73851" lon="-0.56105">
        <ele>135</ele>
        <time>2013-09-08T15:07:54Z</time>
      </trkpt>
      <trkpt lat="48.73855" lon="-0.56113">
        <ele>135</ele>
        <time>2013-09-08T15:07:55Z</time>
      </trkpt>
      <trkpt lat="48.73867" lon="-0.56135">
        <ele>134.8</ele>
        <time>2013-09-08T15:07:58Z</time>
      </trkpt>
      <trkpt lat="48.73872" lon="-0.5614">
        <ele>134.8</ele>
        <time>2013-09-08T15:07:59Z</time>
      </trkpt>
      <trkpt lat="48.73878" lon="-0.56142">
        <ele>134.6</ele>
        <time>2013-09-08T15:08:00Z</time>
      </trkpt>
      <trkpt lat="48.73909" lon="-0.56147">
        <ele>133.8</ele>
        <time>2013-09-08T15:08:05Z</time>
      </trkpt>
      <trkpt lat="48.73982" lon="-0.56203">
        <ele>133</ele>
        <time>2013-09-08T15:08:18Z</time>
      </trkpt>
      <trkpt lat="48.74082" lon="-0.56231">
        <ele>132.8</ele>
        <time>2013-09-08T15:08:34Z</time>
      </trkpt>
      <trkpt lat="48.74161" lon="-0.5626">
        <ele>133.4</ele>
        <time>2013-09-08T15:08:47Z</time>
      </trkpt>
      <trkpt lat="48.74248" lon="-0.56354">
        <ele>133</ele>
        <time>2013-09-08T15:09:04Z</time>
      </trkpt>
      <trkpt lat="48.74272" lon="-0.56386">
        <ele>133.6</ele>
        <time>2013-09-08T15:09:13Z</time>
      </trkpt>
      <trkpt lat="48.74275" lon="-0.56396">
        <ele>134.2</ele>
        <time>2013-09-08T15:09:26Z</time>
      </trkpt>
      <trkpt lat="48.74284" lon="-0.56407">
        <ele>134.4</ele>
        <time>2013-09-08T15:10:06Z</time>
      </trkpt>
      <trkpt lat="48.74288" lon="-0.56413">
        <ele>134.2</ele>
        <time>2013-09-08T15:10:07Z</time>
      </trkpt>
      <trkpt lat="48.74296" lon="-0.56428">
        <ele>134</ele>
        <time>2013-09-08T15:10:09Z</time>
      </trkpt>
      <trkpt lat="48.74325" lon="-0.56466">
        <ele>133.4</ele>
        <time>2013-09-08T15:10:15Z</time>
      </trkpt>
      <trkpt lat="48.74335" lon="-0.56477">
        <ele>133.4</ele>
        <time>2013-09-08T15:10:17Z</time>
      </trkpt>
      <trkpt lat="48.74418" lon="-0.56577">
        <ele>134</ele>
        <time>2013-09-08T15:10:34Z</time>
      </trkpt>
      <trkpt lat="48.74445" lon="-0.56628">
        <ele>134.2</ele>
        <time>2013-09-08T15:10:41Z</time>
      </trkpt>
      <trkpt lat="48.74449" lon="-0.56634">
        <ele>134.2</ele>
        <time>2013-09-08T15:10:42Z</time>
      </trkpt>
      <trkpt lat="48.74463" lon="-0.56659">
        <ele>134.2</ele>
        <time>2013-09-08T15:10:46Z</time>
      </trkpt>
      <trkpt lat="48.74466" lon="-0.56664">
        <ele>134.2</ele>
        <time>2013-09-08T15:10:47Z</time>
      </trkpt>
      <trkpt lat="48.74469" lon="-0.56668">
        <ele>134.2</ele>
        <time>2013-09-08T15:10:48Z</time>
      </trkpt>
      <trkpt lat="48.74471" lon="-0.56671">
        <ele>134.2</ele>
        <time>2013-09-08T15:10:49Z</time>
      </trkpt>
      <trkpt lat="48.74473" lon="-0.56674">
        <ele>134.2</ele>
        <time>2013-09-08T15:10:50Z</time>
      </trkpt>
      <trkpt lat="48.74474" lon="-0.56676">
        <ele>134.4</ele>
        <time>2013-09-08T15:10:51Z</time>
      </trkpt>
      <trkpt lat="48.74476" lon="-0.56678">
        <ele>134.4</ele>
        <time>2013-09-08T15:10:52Z</time>
      </trkpt>
      <trkpt lat="48.74493" lon="-0.56687">
        <ele>134</ele>
        <time>2013-09-08T15:11:08Z</time>
      </trkpt>
      <trkpt lat="48.74495" lon="-0.5669">
        <ele>134</ele>
        <time>2013-09-08T15:11:09Z</time>
      </trkpt>
      <trkpt lat="48.74498" lon="-0.56693">
        <ele>134</ele>
        <time>2013-09-08T15:11:10Z</time>
      </trkpt>
      <trkpt lat="48.74502" lon="-0.56699">
        <ele>134</ele>
        <time>2013-09-08T15:11:11Z</time>
      </trkpt>
      <trkpt lat="48.74506" lon="-0.56705">
        <ele>134</ele>
        <time>2013-09-08T15:11:12Z</time>
      </trkpt>
      <trkpt lat="48.74511" lon="-0.56712">
        <ele>134</ele>
        <time>2013-09-08T15:11:13Z</time>
      </trkpt>
      <trkpt lat="48.74588" lon="-0.5682">
        <ele>132.2</ele>
        <time>2013-09-08T15:11:29Z</time>
      </trkpt>
      <trkpt lat="48.74629" lon="-0.56876">
        <ele>132.2</ele>
        <time>2013-09-08T15:11:38Z</time>
      </trkpt>
      <trkpt lat="48.74633" lon="-0.56882">
        <ele>132.2</ele>
        <time>2013-09-08T15:11:39Z</time>
      </trkpt>
      <trkpt lat="48.74636" lon="-0.56889">
        <ele>132.4</ele>
        <time>2013-09-08T15:11:40Z</time>
      </trkpt>
      <trkpt lat="48.74641" lon="-0.56904">
        <ele>132.4</ele>
        <time>2013-09-08T15:11:42Z</time>
      </trkpt>
      <trkpt lat="48.74642" lon="-0.56912">
        <ele>132.4</ele>
        <time>2013-09-08T15:11:43Z</time>
      </trkpt>
      <trkpt lat="48.74657" lon="-0.56981">
        <ele>133.6</ele>
        <time>2013-09-08T15:11:55Z</time>
      </trkpt>
      <trkpt lat="48.74675" lon="-0.57077">
        <ele>133.4</ele>
        <time>2013-09-08T15:12:07Z</time>
      </trkpt>
      <trkpt lat="48.74676" lon="-0.57083">
        <ele>133.4</ele>
        <time>2013-09-08T15:12:08Z</time>
      </trkpt>
      <trkpt lat="48.74679" lon="-0.57088">
        <ele>133.4</ele>
        <time>2013-09-08T15:12:09Z</time>
      </trkpt>
      <trkpt lat="48.74687" lon="-0.57097">
        <ele>133.4</ele>
        <time>2013-09-08T15:12:12Z</time>
      </trkpt>
      <trkpt lat="48.7469" lon="-0.57096">
        <ele>133.2</ele>
        <time>2013-09-08T15:12:13Z</time>
      </trkpt>
      <trkpt lat="48.74692" lon="-0.57093">
        <ele>133.2</ele>
        <time>2013-09-08T15:12:14Z</time>
      </trkpt>
      <trkpt lat="48.7473" lon="-0.57051">
        <ele>133</ele>
        <time>2013-09-08T15:12:23Z</time>
      </trkpt>
      <trkpt lat="48.74746" lon="-0.57033">
        <ele>133.6</ele>
        <time>2013-09-08T15:12:32Z</time>
      </trkpt>
      <trkpt lat="48.74749" lon="-0.57034">
        <ele>133.6</ele>
        <time>2013-09-08T15:12:33Z</time>
      </trkpt>
      <trkpt lat="48.74751" lon="-0.57039">
        <ele>133.8</ele>
        <time>2013-09-08T15:12:34Z</time>
      </trkpt>
      <trkpt lat="48.74762" lon="-0.57074">
        <ele>133.6</ele>
        <time>2013-09-08T15:12:38Z</time>
      </trkpt>
      <trkpt lat="48.74768" lon="-0.5708">
        <ele>133.4</ele>
        <time>2013-09-08T15:12:39Z</time>
      </trkpt>
      <trkpt lat="48.74812" lon="-0.57119">
        <ele>133.4</ele>
        <time>2013-09-08T15:12:50Z</time>
      </trkpt>
      <trkpt lat="48.74814" lon="-0.57122">
        <ele>133.6</ele>
        <time>2013-09-08T15:12:51Z</time>
      </trkpt>
      <trkpt lat="48.74815" lon="-0.57125">
        <ele>133.6</ele>
        <time>2013-09-08T15:12:52Z</time>
      </trkpt>
      <trkpt lat="48.74815" lon="-0.57129">
        <ele>133.6</ele>
        <time>2013-09-08T15:12:53Z</time>
      </trkpt>
      <trkpt lat="48.74814" lon="-0.57135">
        <ele>133.6</ele>
        <time>2013-09-08T15:12:54Z</time>
      </trkpt>
      <trkpt lat="48.74811" lon="-0.57141">
        <ele>133.8</ele>
        <time>2013-09-08T15:12:55Z</time>
      </trkpt>
      <trkpt lat="48.74807" lon="-0.57149">
        <ele>133.6</ele>
        <time>2013-09-08T15:12:56Z</time>
      </trkpt>
      <trkpt lat="48.74804" lon="-0.57157">
        <ele>133.6</ele>
        <time>2013-09-08T15:12:57Z</time>
      </trkpt>
      <trkpt lat="48.74795" lon="-0.57182">
        <ele>133.4</ele>
        <time>2013-09-08T15:13:00Z</time>
      </trkpt>
      <trkpt lat="48.74787" lon="-0.57201">
        <ele>133.2</ele>
        <time>2013-09-08T15:13:07Z</time>
      </trkpt>
      <trkpt lat="48.74787" lon="-0.572">
        <ele>133.4</ele>
        <time>2013-09-08T15:13:08Z</time>
      </trkpt>
      <trkpt lat="48.74799" lon="-0.57225">
        <ele>132.2</ele>
        <time>2013-09-08T15:14:07Z</time>
      </trkpt>
      <trkpt lat="48.74804" lon="-0.5722">
        <ele>131.6</ele>
        <time>2013-09-08T15:14:17Z</time>
      </trkpt>
    </trkseg>
  </trk>
</gpx>